GFSWCAN_prec_precacc_072.txt.gz
Total_Precipitation_Accumulation
0.36 0.31 0.33 0.34 0.33 0.30 0.27 0.28 0.32 0.31 0.24 0.21 0.20 0.25 0.28 0.27 0.51 0.40 0.35 0.38 0.33 0.20 0.08 0.02 0.02 0.04 0.18 0.42 0.61 0.56 0.71 0.49 0.45 0.53 0.33 0.13 0.03 0.02 0.00 0.01 0.00 0.03 0.04 0.06 0.09 0.11 0.01 0.00 0.00 0.01 0.01 0.00 0.00 0.05
0.37 0.35 0.35 0.37 0.35 0.30 0.31 0.31 0.32 0.29 0.24 0.22 0.18 0.21 0.25 0.22 0.42 0.51 0.34 0.33 0.34 0.27 0.11 0.03 0.01 0.01 0.05 0.27 0.60 0.60 0.59 0.41 0.46 0.40 0.16 0.07 0.04 0.02 0.01 0.01 0.00 0.00 0.00 0.01 0.00 0.00 0.00 0.00 0.00 0.00 0.00 0.00 0.00 0.00
0.38 0.42 0.37 0.36 0.34 0.31 0.28 0.28 0.34 0.29 0.24 0.23 0.21 0.19 0.21 0.22 0.31 0.50 0.32 0.27 0.33 0.30 0.11 0.03 0.02 0.03 0.00 0.08 0.45 0.76 0.49 0.50 0.50 0.45 0.39 0.11 0.07 0.03 0.01 0.00 0.00 0.00 0.00 0.00 0.00 0.00 0.00 0.00 0.00 0.00 0.00 0.00 0.00 0.00
0.35 0.37 0.32 0.30 0.29 0.24 0.23 0.28 0.28 0.26 0.19 0.20 0.22 0.18 0.17 0.21 0.31 0.42 0.29 0.20 0.36 0.43 0.27 0.11 0.03 0.06 0.05 0.06 0.35 0.69 0.69 0.56 0.58 0.51 0.52 0.33 0.10 0.02 0.02 0.00 0.00 0.00 0.00 0.00 0.00 0.00 0.00 0.00 0.00 0.00 0.00 0.00 0.00 0.00
0.30 0.31 0.29 0.26 0.22 0.22 0.22 0.21 0.21 0.21 0.17 0.19 0.21 0.20 0.21 0.29 0.41 0.29 0.16 0.18 0.28 0.64 0.54 0.31 0.11 0.01 0.04 0.05 0.28 0.67 0.88 0.85 0.78 0.80 0.55 0.34 0.15 0.02 0.00 0.00 0.00 0.00 0.00 0.00 0.00 0.00 0.00 0.00 0.00 0.00 0.00 0.00 0.00 0.00
0.33 0.31 0.29 0.26 0.22 0.25 0.21 0.16 0.16 0.17 0.15 0.18 0.24 0.31 0.28 0.38 0.59 0.39 0.35 0.28 0.33 0.48 0.76 0.58 0.29 0.08 0.06 0.12 0.15 0.50 0.72 0.69 0.73 0.85 0.50 0.23 0.11 0.17 0.08 0.01 0.00 0.00 0.00 0.00 0.00 0.00 0.00 0.00 0.00 0.00 0.00 0.00 0.00 0.00
0.36 0.34 0.29 0.28 0.27 0.29 0.27 0.18 0.18 0.26 0.26 0.27 0.33 0.33 0.31 0.44 0.45 0.47 0.33 0.47 0.42 0.39 0.64 0.71 0.53 0.22 0.12 0.43 0.18 0.39 0.85 0.99 0.82 0.78 0.46 0.26 0.17 0.31 0.21 0.01 0.00 0.00 0.00 0.00 0.00 0.00 0.00 0.00 0.00 0.00 0.00 0.00 0.00 0.00
0.77 0.86 0.83 0.54 0.45 0.42 0.42 0.25 0.26 0.35 0.41 0.32 0.38 0.41 0.43 0.52 0.45 0.37 0.13 0.23 0.37 0.58 0.55 0.59 0.54 0.49 0.38 0.68 0.46 0.51 0.95 1.13 1.03 0.74 0.40 0.22 0.22 0.33 0.20 0.01 0.00 0.00 0.00 0.00 0.00 0.00 0.00 0.00 0.00 0.00 0.00 0.00 0.00 0.01
0.81 0.84 1.01 1.17 1.03 0.84 0.71 0.52 0.42 0.45 0.53 0.56 0.60 0.66 0.62 0.46 0.26 0.24 0.50 0.49 0.37 0.84 0.88 0.44 0.35 0.62 0.42 0.70 0.57 0.51 0.74 1.05 0.88 0.68 0.40 0.52 0.41 0.26 0.04 0.00 0.00 0.00 0.00 0.00 0.00 0.00 0.00 0.00 0.00 0.00 0.00 0.00 0.00 0.00
0.76 0.78 0.80 0.96 1.21 1.40 1.35 1.06 0.88 0.75 0.79 0.97 0.85 0.84 0.67 0.43 0.49 0.77 1.15 0.95 0.91 0.65 0.53 0.38 0.28 0.35 0.40 0.47 0.60 0.43 0.57 0.76 0.64 0.50 0.56 0.48 0.26 0.13 0.02 0.00 0.00 0.00 0.00 0.00 0.00 0.00 0.00 0.00 0.00 0.00 0.00 0.00 0.00 0.00
0.63 0.79 0.88 0.95 1.16 1.40 1.77 1.85 1.74 1.48 1.38 1.32 1.24 0.80 0.78 0.97 1.08 1.00 1.03 0.64 0.69 0.35 0.14 0.08 0.15 0.24 0.32 0.48 0.59 0.41 0.72 0.35 0.54 0.31 0.39 0.36 0.20 0.06 0.00 0.00 0.00 0.00 0.00 0.00 0.00 0.00 0.00 0.00 0.00 0.00 0.00 0.00 0.00 0.00
0.46 0.56 0.85 1.13 1.25 1.68 1.91 2.41 3.00 2.97 2.24 1.29 0.85 1.09 1.32 1.22 1.14 0.89 0.66 0.29 0.16 0.05 0.02 0.09 0.12 0.25 0.33 0.42 0.30 0.18 0.32 0.19 0.09 0.11 0.23 0.12 0.04 0.00 0.00 0.00 0.00 0.00 0.00 0.00 0.00 0.00 0.00 0.00 0.01 0.01 0.00 0.00 0.00 0.00
0.45 0.50 0.68 0.96 1.25 1.58 2.02 2.35 2.99 2.94 1.88 1.41 1.49 2.15 1.38 1.10 0.85 0.33 0.22 0.09 0.03 0.01 0.08 0.18 0.25 0.31 0.31 0.33 0.23 0.09 0.03 0.05 0.04 0.07 0.08 0.11 0.01 0.00 0.00 0.00 0.00 0.01 0.15 0.22 0.16 0.07 0.03 0.03 0.06 0.08 0.04 0.02 0.01 0.01
0.55 0.64 0.66 0.78 1.09 1.38 2.04 2.85 3.31 3.11 2.57 2.11 1.92 1.79 0.77 0.61 0.11 0.09 0.05 0.01 0.01 0.04 0.09 0.13 0.37 0.38 0.23 0.20 0.15 0.06 0.04 0.04 0.04 0.03 0.00 0.00 0.00 0.00 0.00 0.00 0.04 0.06 0.08 0.11 0.19 0.20 0.19 0.24 0.34 0.25 0.18 0.14 0.07 0.04
0.56 0.73 0.73 0.73 0.95 1.53 2.38 3.32 3.45 2.54 2.13 1.74 1.05 0.67 0.34 0.09 0.04 0.04 0.05 0.03 0.01 0.01 0.01 0.06 0.30 0.21 0.20 0.20 0.10 0.06 0.07 0.05 0.01 0.00 0.00 0.00 0.00 0.00 0.00 0.00 0.03 0.06 0.05 0.03 0.02 0.03 0.04 0.08 0.14 0.16 0.09 0.10 0.10 0.11
0.67 0.80 0.84 0.77 0.85 1.37 2.16 2.21 2.31 1.79 2.08 1.60 0.80 0.37 0.11 0.03 0.02 0.03 0.04 0.05 0.04 0.05 0.13 0.18 0.18 0.12 0.12 0.09 0.07 0.04 0.03 0.02 0.01 0.00 0.00 0.00 0.00 0.00 0.00 0.00 0.01 0.02 0.01 0.00 0.00 0.00 0.00 0.00 0.00 0.02 0.07 0.09 0.11 0.15
0.45 0.45 0.74 0.67 0.82 1.24 1.55 1.90 1.72 1.79 2.00 1.50 0.46 0.05 0.02 0.03 0.02 0.04 0.05 0.06 0.07 0.13 0.23 0.39 0.28 0.10 0.08 0.06 0.02 0.02 0.04 0.04 0.00 0.00 0.00 0.00 0.00 0.00 0.00 0.00 0.00 0.00 0.00 0.00 0.00 0.00 0.00 0.00 0.00 0.00 0.00 0.00 0.00 0.01
0.20 0.35 0.59 0.53 0.51 0.74 1.18 1.50 1.87 1.80 1.49 0.73 0.12 0.03 0.01 0.01 0.04 0.04 0.06 0.14 0.23 0.31 0.31 0.54 0.23 0.15 0.06 0.06 0.03 0.02 0.01 0.01 0.00 0.00 0.00 0.00 0.00 0.00 0.00 0.00 0.00 0.00 0.00 0.00 0.00 0.00 0.00 0.00 0.00 0.00 0.00 0.00 0.00 0.00
0.28 0.36 0.39 0.31 0.30 0.54 0.90 1.16 1.31 1.10 0.68 0.26 0.07 0.04 0.03 0.02 0.01 0.03 0.04 0.10 0.23 0.34 0.52 0.55 0.36 0.12 0.01 0.02 0.04 0.02 0.00 0.00 0.00 0.00 0.00 0.00 0.00 0.00 0.00 0.00 0.00 0.00 0.00 0.00 0.00 0.00 0.00 0.00 0.00 0.00 0.00 0.00 0.00 0.00
0.54 0.67 0.47 0.26 0.24 0.40 0.58 0.81 0.80 0.68 0.44 0.30 0.18 0.12 0.09 0.06 0.06 0.05 0.04 0.07 0.12 0.27 0.44 0.34 0.11 0.03 0.02 0.03 0.02 0.02 0.00 0.00 0.00 0.00 0.00 0.00 0.00 0.00 0.00 0.00 0.00 0.00 0.00 0.00 0.00 0.00 0.00 0.00 0.00 0.00 0.00 0.00 0.00 0.00
0.41 0.44 0.29 0.13 0.26 0.36 0.49 0.44 0.63 0.57 0.47 0.44 0.54 0.39 0.33 0.25 0.20 0.23 0.37 0.34 0.48 0.56 0.27 0.11 0.04 0.02 0.03 0.04 0.04 0.03 0.01 0.01 0.00 0.00 0.00 0.00 0.00 0.00 0.00 0.00 0.00 0.00 0.00 0.00 0.00 0.00 0.00 0.00 0.00 0.00 0.00 0.00 0.00 0.00
0.22 0.23 0.19 0.19 0.32 0.27 0.29 0.35 0.45 0.46 0.37 0.49 0.66 0.63 0.59 0.56 0.57 0.59 0.63 0.83 0.83 0.38 0.13 0.06 0.09 0.07 0.04 0.04 0.06 0.06 0.05 0.03 0.01 0.00 0.00 0.00 0.00 0.00 0.00 0.00 0.00 0.00 0.00 0.00 0.00 0.00 0.00 0.00 0.00 0.00 0.00 0.00 0.00 0.00
0.16 0.11 0.15 0.16 0.19 0.14 0.22 0.24 0.27 0.35 0.37 0.47 0.55 0.57 0.67 0.66 0.75 0.87 1.01 0.78 0.45 0.26 0.18 0.16 0.14 0.14 0.12 0.08 0.06 0.04 0.05 0.06 0.04 0.02 0.01 0.00 0.00 0.00 0.00 0.00 0.00 0.00 0.00 0.00 0.00 0.00 0.00 0.00 0.00 0.00 0.00 0.00 0.00 0.00
0.08 0.11 0.08 0.08 0.11 0.14 0.14 0.20 0.16 0.21 0.27 0.30 0.39 0.41 0.41 0.58 0.69 0.70 0.55 0.28 0.25 0.27 0.25 0.25 0.20 0.13 0.12 0.14 0.16 0.13 0.09 0.07 0.05 0.06 0.08 0.07 0.04 0.02 0.01 0.01 0.00 0.00 0.00 0.00 0.00 0.00 0.00 0.00 0.00 0.00 0.00 0.00 0.00 0.00
0.27 0.16 0.07 0.05 0.02 0.02 0.05 0.12 0.14 0.12 0.19 0.26 0.32 0.36 0.37 0.45 0.56 0.44 0.26 0.20 0.33 0.40 0.34 0.26 0.19 0.16 0.14 0.12 0.12 0.15 0.16 0.16 0.13 0.09 0.10 0.13 0.11 0.10 0.10 0.06 0.03 0.01 0.00 0.00 0.00 0.00 0.00 0.00 0.00 0.00 0.00 0.00 0.01 0.03
0.20 0.05 0.02 0.00 0.00 0.00 0.00 0.06 0.12 0.16 0.20 0.24 0.28 0.29 0.33 0.36 0.32 0.31 0.18 0.21 0.34 0.45 0.47 0.37 0.27 0.20 0.17 0.17 0.18 0.22 0.21 0.20 0.18 0.15 0.21 0.27 0.20 0.15 0.11 0.10 0.09 0.07 0.04 0.03 0.04 0.03 0.04 0.04 0.03 0.04 0.03 0.03 0.07 0.17
0.08 0.03 0.02 0.00 0.00 0.00 0.00 0.00 0.01 0.04 0.09 0.14 0.16 0.18 0.20 0.22 0.25 0.14 0.13 0.22 0.33 0.40 0.45 0.47 0.38 0.26 0.22 0.22 0.23 0.25 0.28 0.32 0.28 0.21 0.24 0.33 0.34 0.29 0.20 0.14 0.08 0.06 0.10 0.15 0.13 0.11 0.10 0.11 0.11 0.12 0.15 0.17 0.17 0.18
0.02 0.00 0.00 0.01 0.00 0.00 0.00 0.00 0.00 0.00 0.00 0.03 0.10 0.09 0.10 0.11 0.08 0.08 0.13 0.22 0.33 0.38 0.44 0.48 0.46 0.34 0.29 0.27 0.28 0.30 0.34 0.38 0.39 0.33 0.31 0.35 0.39 0.40 0.38 0.31 0.29 0.29 0.27 0.24 0.26 0.27 0.25 0.23 0.23 0.23 0.25 0.24 0.20 0.21
0.02 0.00 0.00 0.00 0.00 0.00 0.00 0.00 0.00 0.00 0.00 0.00 0.01 0.03 0.03 0.03 0.06 0.09 0.14 0.21 0.30 0.36 0.39 0.42 0.45 0.43 0.39 0.37 0.36 0.37 0.38 0.37 0.32 0.27 0.20 0.20 0.25 0.34 0.42 0.44 0.46 0.48 0.43 0.36 0.35 0.32 0.27 0.26 0.28 0.29 0.30 0.30 0.27 0.27
0.02 0.00 0.00 0.01 0.00 0.00 0.00 0.01 0.01 0.01 0.00 0.00 0.00 0.00 0.01 0.03 0.06 0.09 0.14 0.19 0.26 0.32 0.37 0.42 0.44 0.44 0.42 0.40 0.41 0.42 0.43 0.43 0.41 0.31 0.24 0.21 0.23 0.31 0.40 0.44 0.46 0.47 0.47 0.43 0.41 0.45 0.44 0.44 0.43 0.42 0.38 0.36 0.33 0.31
0.02 0.01 0.00 0.00 0.00 0.01 0.02 0.03 0.02 0.01 0.00 0.00 0.00 0.00 0.01 0.02 0.04 0.07 0.11 0.16 0.22 0.28 0.33 0.36 0.39 0.43 0.42 0.44 0.43 0.42 0.40 0.41 0.42 0.43 0.39 0.38 0.40 0.40 0.43 0.46 0.46 0.46 0.48 0.46 0.42 0.36 0.33 0.29 0.24 0.21 0.24 0.25 0.25 0.25
0.05 0.03 0.01 0.01 0.01 0.02 0.03 0.02 0.02 0.01 0.02 0.01 0.01 0.01 0.01 0.02 0.03 0.04 0.07 0.10 0.15 0.20 0.26 0.29 0.29 0.31 0.33 0.34 0.36 0.39 0.40 0.39 0.38 0.39 0.39 0.37 0.36 0.38 0.40 0.43 0.45 0.44 0.47 0.48 0.44 0.41 0.38 0.37 0.39 0.37 0.35 0.37 0.35 0.32
0.09 0.09 0.07 0.04 0.02 0.02 0.02 0.02 0.02 0.01 0.01 0.01 0.01 0.02 0.02 0.02 0.03 0.03 0.03 0.07 0.10 0.15 0.19 0.23 0.26 0.28 0.30 0.31 0.34 0.36 0.39 0.44 0.47 0.50 0.53 0.51 0.45 0.41 0.40 0.41 0.41 0.42 0.41 0.43 0.45 0.48 0.51 0.50 0.46 0.44 0.42 0.41 0.40 0.39

GFSWCAN_prec_precacc_075.txt.gz
Total_Precipitation_Accumulation
0.38 0.32 0.33 0.34 0.33 0.30 0.27 0.28 0.33 0.31 0.24 0.21 0.20 0.25 0.28 0.27 0.51 0.40 0.35 0.38 0.33 0.20 0.08 0.02 0.02 0.04 0.18 0.42 0.61 0.56 0.71 0.50 0.52 0.71 0.47 0.18 0.03 0.02 0.00 0.01 0.00 0.03 0.05 0.07 0.10 0.12 0.01 0.00 0.00 0.01 0.01 0.00 0.00 0.05
0.39 0.35 0.35 0.37 0.35 0.30 0.32 0.31 0.32 0.29 0.24 0.22 0.18 0.21 0.25 0.22 0.42 0.51 0.34 0.33 0.34 0.27 0.11 0.03 0.01 0.01 0.05 0.27 0.60 0.60 0.59 0.42 0.51 0.49 0.30 0.20 0.07 0.02 0.01 0.01 0.00 0.00 0.00 0.01 0.00 0.00 0.00 0.00 0.00 0.00 0.00 0.00 0.00 0.00
0.39 0.42 0.37 0.36 0.34 0.32 0.29 0.29 0.35 0.29 0.25 0.23 0.21 0.19 0.21 0.22 0.31 0.50 0.32 0.27 0.33 0.31 0.11 0.03 0.02 0.03 0.00 0.08 0.45 0.76 0.49 0.50 0.50 0.47 0.47 0.25 0.19 0.05 0.01 0.00 0.00 0.00 0.00 0.00 0.00 0.00 0.00 0.00 0.00 0.00 0.00 0.00 0.00 0.00
0.35 0.37 0.32 0.30 0.30 0.24 0.24 0.28 0.28 0.26 0.19 0.20 0.23 0.19 0.17 0.22 0.31 0.42 0.29 0.20 0.36 0.44 0.29 0.11 0.03 0.06 0.05 0.06 0.35 0.69 0.69 0.56 0.58 0.51 0.56 0.41 0.20 0.10 0.03 0.00 0.00 0.00 0.00 0.00 0.00 0.00 0.00 0.00 0.00 0.00 0.00 0.00 0.00 0.00
0.31 0.31 0.29 0.26 0.22 0.22 0.22 0.21 0.21 0.21 0.17 0.20 0.21 0.20 0.22 0.31 0.42 0.30 0.16 0.18 0.28 0.64 0.55 0.31 0.11 0.01 0.04 0.05 0.28 0.67 0.88 0.85 0.78 0.80 0.55 0.36 0.18 0.14 0.04 0.01 0.00 0.00 0.00 0.00 0.00 0.00 0.00 0.00 0.00 0.00 0.00 0.00 0.00 0.00
0.34 0.31 0.29 0.26 0.22 0.25 0.21 0.16 0.16 0.17 0.15 0.18 0.25 0.31 0.30 0.42 0.62 0.40 0.36 0.28 0.33 0.48 0.78 0.58 0.29 0.08 0.06 0.12 0.15 0.50 0.72 0.69 0.73 0.86 0.51 0.23 0.12 0.31 0.18 0.05 0.00 0.00 0.00 0.00 0.00 0.00 0.00 0.00 0.00 0.00 0.00 0.00 0.00 0.00
0.37 0.34 0.29 0.28 0.27 0.29 0.27 0.18 0.18 0.26 0.26 0.27 0.33 0.33 0.32 0.46 0.46 0.50 0.35 0.47 0.42 0.39 0.64 0.71 0.53 0.22 0.12 0.43 0.18 0.39 0.85 0.99 0.82 0.79 0.46 0.26 0.19 0.45 0.36 0.06 0.00 0.00 0.00 0.00 0.00 0.00 0.00 0.00 0.00 0.00 0.00 0.00 0.00 0.00
0.77 0.86 0.83 0.54 0.45 0.42 0.42 0.25 0.26 0.35 0.41 0.32 0.38 0.41 0.45 0.56 0.48 0.39 0.14 0.24 0.37 0.58 0.56 0.59 0.54 0.49 0.38 0.69 0.46 0.51 0.95 1.14 1.06 0.76 0.40 0.22 0.23 0.36 0.24 0.01 0.00 0.00 0.00 0.00 0.00 0.00 0.00 0.00 0.00 0.00 0.00 0.00 0.00 0.01
0.81 0.84 1.01 1.17 1.03 0.84 0.71 0.52 0.42 0.45 0.53 0.56 0.60 0.67 0.66 0.48 0.28 0.25 0.50 0.49 0.37 0.85 0.88 0.44 0.36 0.62 0.42 0.71 0.59 0.52 0.75 1.07 0.89 0.70 0.40 0.53 0.42 0.31 0.05 0.00 0.00 0.00 0.00 0.00 0.00 0.00 0.00 0.00 0.00 0.00 0.00 0.00 0.00 0.00
0.76 0.78 0.80 0.96 1.21 1.40 1.35 1.06 0.88 0.75 0.79 0.97 0.85 0.84 0.67 0.44 0.50 0.77 1.16 0.96 0.94 0.71 0.58 0.39 0.28 0.35 0.40 0.47 0.63 0.46 0.60 0.78 0.67 0.50 0.57 0.49 0.27 0.13 0.02 0.00 0.00 0.00 0.00 0.00 0.00 0.00 0.00 0.00 0.00 0.00 0.00 0.00 0.00 0.00
0.63 0.79 0.88 0.95 1.16 1.40 1.77 1.85 1.74 1.48 1.38 1.32 1.24 0.81 0.79 0.98 1.08 1.01 1.03 0.65 0.70 0.36 0.15 0.08 0.16 0.26 0.33 0.50 0.64 0.46 0.79 0.46 0.76 0.39 0.46 0.50 0.23 0.06 0.00 0.00 0.00 0.00 0.00 0.00 0.00 0.00 0.00 0.00 0.00 0.00 0.00 0.00 0.00 0.00
0.46 0.56 0.85 1.13 1.25 1.68 1.91 2.41 3.00 2.97 2.24 1.29 0.85 1.10 1.33 1.23 1.16 0.90 0.67 0.29 0.16 0.05 0.02 0.10 0.19 0.31 0.36 0.47 0.37 0.25 0.42 0.36 0.28 0.14 0.29 0.20 0.07 0.01 0.00 0.00 0.00 0.00 0.00 0.00 0.00 0.00 0.00 0.00 0.01 0.01 0.00 0.00 0.00 0.00
0.45 0.50 0.68 0.96 1.25 1.58 2.02 2.35 2.99 2.94 1.88 1.41 1.49 2.15 1.38 1.11 0.87 0.33 0.23 0.10 0.03 0.01 0.09 0.26 0.33 0.38 0.39 0.49 0.36 0.16 0.07 0.12 0.10 0.13 0.13 0.13 0.01 0.00 0.00 0.00 0.00 0.01 0.15 0.22 0.16 0.07 0.03 0.03 0.06 0.08 0.04 0.02 0.01 0.01
0.55 0.64 0.66 0.78 1.09 1.38 2.04 2.85 3.31 3.11 2.57 2.11 1.92 1.79 0.77 0.61 0.11 0.09 0.05 0.01 0.01 0.04 0.09 0.14 0.38 0.40 0.27 0.31 0.29 0.14 0.08 0.05 0.06 0.03 0.01 0.01 0.00 0.00 0.00 0.00 0.05 0.08 0.08 0.11 0.19 0.20 0.20 0.24 0.34 0.26 0.19 0.15 0.07 0.04
0.56 0.73 0.73 0.73 0.95 1.53 2.39 3.34 3.46 2.54 2.13 1.74 1.05 0.67 0.34 0.09 0.04 0.04 0.05 0.03 0.01 0.01 0.01 0.07 0.31 0.23 0.24 0.27 0.18 0.09 0.09 0.06 0.01 0.01 0.00 0.00 0.00 0.00 0.00 0.03 0.14 0.12 0.06 0.03 0.02 0.03 0.04 0.08 0.14 0.16 0.10 0.10 0.11 0.11
0.67 0.80 0.84 0.77 0.85 1.37 2.18 2.25 2.34 1.79 2.08 1.60 0.80 0.37 0.11 0.03 0.02 0.03 0.04 0.05 0.04 0.06 0.13 0.20 0.23 0.15 0.13 0.12 0.10 0.07 0.06 0.03 0.04 0.00 0.00 0.00 0.00 0.00 0.00 0.00 0.05 0.04 0.01 0.00 0.00 0.00 0.00 0.00 0.00 0.02 0.07 0.09 0.11 0.15
0.46 0.45 0.74 0.67 0.83 1.27 1.58 1.92 1.75 1.82 2.01 1.50 0.46 0.05 0.02 0.03 0.02 0.04 0.05 0.06 0.08 0.13 0.24 0.40 0.35 0.16 0.10 0.07 0.02 0.02 0.04 0.05 0.03 0.00 0.00 0.00 0.00 0.00 0.00 0.00 0.03 0.00 0.00 0.00 0.00 0.00 0.00 0.00 0.00 0.00 0.00 0.00 0.00 0.01
0.21 0.35 0.59 0.53 0.53 0.76 1.20 1.52 1.91 1.83 1.50 0.73 0.12 0.03 0.01 0.01 0.04 0.04 0.06 0.14 0.23 0.31 0.32 0.57 0.25 0.16 0.07 0.06 0.03 0.02 0.01 0.01 0.00 0.00 0.00 0.00 0.00 0.00 0.00 0.00 0.00 0.00 0.00 0.00 0.00 0.00 0.00 0.00 0.00 0.00 0.00 0.00 0.00 0.00
0.28 0.37 0.41 0.35 0.32 0.54 0.93 1.20 1.35 1.13 0.68 0.26 0.07 0.04 0.03 0.02 0.01 0.03 0.04 0.10 0.23 0.34 0.52 0.56 0.37 0.13 0.01 0.02 0.04 0.03 0.01 0.00 0.00 0.00 0.00 0.00 0.00 0.00 0.00 0.00 0.00 0.00 0.00 0.00 0.00 0.00 0.00 0.00 0.00 0.00 0.00 0.00 0.00 0.00
0.55 0.72 0.55 0.31 0.26 0.42 0.60 0.85 0.83 0.68 0.44 0.30 0.18 0.12 0.09 0.06 0.06 0.05 0.04 0.07 0.12 0.27 0.44 0.34 0.11 0.03 0.02 0.03 0.02 0.02 0.00 0.00 0.00 0.00 0.00 0.00 0.00 0.00 0.00 0.00 0.00 0.00 0.00 0.00 0.00 0.00 0.00 0.00 0.00 0.00 0.00 0.00 0.00 0.00
0.46 0.57 0.42 0.21 0.32 0.39 0.50 0.44 0.63 0.57 0.47 0.44 0.54 0.39 0.33 0.25 0.20 0.23 0.37 0.34 0.48 0.56 0.27 0.11 0.04 0.02 0.03 0.05 0.06 0.03 0.01 0.01 0.00 0.00 0.00 0.00 0.00 0.00 0.00 0.00 0.00 0.00 0.00 0.00 0.00 0.00 0.00 0.00 0.00 0.00 0.00 0.00 0.00 0.00
0.25 0.29 0.27 0.31 0.43 0.33 0.31 0.36 0.46 0.46 0.37 0.49 0.66 0.63 0.59 0.56 0.57 0.59 0.63 0.84 0.83 0.38 0.13 0.06 0.09 0.07 0.04 0.04 0.06 0.06 0.05 0.03 0.01 0.00 0.00 0.00 0.00 0.00 0.00 0.00 0.00 0.00 0.00 0.00 0.00 0.00 0.00 0.00 0.00 0.00 0.00 0.00 0.00 0.00
0.22 0.18 0.24 0.27 0.27 0.18 0.26 0.26 0.28 0.36 0.37 0.47 0.56 0.57 0.67 0.66 0.76 0.88 1.01 0.78 0.45 0.26 0.18 0.16 0.14 0.14 0.12 0.08 0.06 0.04 0.05 0.06 0.04 0.02 0.01 0.00 0.00 0.00 0.00 0.00 0.00 0.00 0.00 0.00 0.00 0.00 0.00 0.00 0.00 0.00 0.00 0.00 0.00 0.00
0.12 0.19 0.16 0.15 0.15 0.17 0.16 0.20 0.16 0.22 0.28 0.31 0.39 0.41 0.41 0.58 0.69 0.70 0.55 0.28 0.25 0.27 0.25 0.25 0.20 0.13 0.12 0.14 0.16 0.13 0.09 0.07 0.05 0.06 0.08 0.07 0.04 0.02 0.01 0.01 0.00 0.00 0.00 0.00 0.00 0.00 0.00 0.00 0.00 0.00 0.00 0.00 0.00 0.00
0.34 0.24 0.11 0.08 0.02 0.02 0.05 0.12 0.14 0.13 0.19 0.27 0.32 0.36 0.37 0.45 0.56 0.44 0.26 0.20 0.33 0.40 0.34 0.26 0.19 0.16 0.14 0.12 0.12 0.15 0.16 0.16 0.13 0.09 0.10 0.13 0.11 0.10 0.10 0.06 0.03 0.01 0.00 0.00 0.00 0.00 0.00 0.00 0.00 0.00 0.00 0.00 0.01 0.03
0.22 0.07 0.03 0.00 0.00 0.00 0.00 0.06 0.12 0.16 0.20 0.24 0.28 0.29 0.33 0.36 0.32 0.31 0.18 0.21 0.34 0.45 0.47 0.37 0.27 0.20 0.17 0.17 0.18 0.22 0.21 0.20 0.18 0.15 0.21 0.27 0.20 0.15 0.11 0.10 0.09 0.07 0.04 0.03 0.04 0.03 0.04 0.04 0.03 0.04 0.03 0.03 0.07 0.17
0.08 0.03 0.02 0.00 0.00 0.00 0.00 0.00 0.01 0.04 0.09 0.14 0.16 0.18 0.20 0.22 0.25 0.14 0.13 0.22 0.33 0.40 0.45 0.47 0.38 0.26 0.22 0.22 0.23 0.25 0.28 0.32 0.28 0.21 0.24 0.33 0.34 0.29 0.20 0.14 0.08 0.06 0.10 0.15 0.13 0.11 0.10 0.11 0.11 0.12 0.15 0.17 0.17 0.18
0.02 0.00 0.00 0.01 0.01 0.01 0.01 0.00 0.00 0.00 0.00 0.03 0.10 0.09 0.10 0.11 0.08 0.08 0.13 0.22 0.33 0.38 0.44 0.48 0.46 0.34 0.29 0.27 0.28 0.30 0.34 0.38 0.39 0.33 0.31 0.35 0.39 0.40 0.38 0.31 0.29 0.29 0.27 0.24 0.26 0.27 0.25 0.23 0.23 0.23 0.25 0.24 0.20 0.21
0.02 0.00 0.00 0.00 0.01 0.00 0.00 0.00 0.00 0.00 0.00 0.00 0.01 0.03 0.03 0.03 0.06 0.09 0.14 0.21 0.30 0.36 0.39 0.42 0.45 0.43 0.39 0.37 0.36 0.37 0.38 0.37 0.32 0.27 0.20 0.20 0.25 0.34 0.42 0.44 0.46 0.48 0.43 0.36 0.35 0.32 0.27 0.26 0.28 0.29 0.30 0.30 0.27 0.27
0.02 0.00 0.00 0.01 0.00 0.00 0.00 0.01 0.01 0.01 0.00 0.00 0.00 0.00 0.01 0.03 0.06 0.09 0.14 0.19 0.26 0.32 0.37 0.42 0.44 0.44 0.42 0.40 0.41 0.42 0.43 0.43 0.41 0.31 0.24 0.21 0.23 0.31 0.40 0.44 0.46 0.47 0.47 0.43 0.41 0.45 0.44 0.44 0.43 0.42 0.38 0.36 0.33 0.31
0.02 0.01 0.00 0.00 0.00 0.01 0.02 0.03 0.02 0.01 0.00 0.00 0.00 0.00 0.01 0.02 0.04 0.07 0.11 0.16 0.22 0.28 0.33 0.36 0.39 0.43 0.42 0.44 0.43 0.42 0.40 0.41 0.42 0.43 0.39 0.38 0.40 0.40 0.43 0.46 0.46 0.46 0.48 0.46 0.42 0.36 0.33 0.29 0.24 0.21 0.24 0.25 0.25 0.25
0.05 0.03 0.01 0.01 0.01 0.02 0.03 0.02 0.02 0.01 0.02 0.01 0.01 0.01 0.01 0.02 0.03 0.04 0.07 0.10 0.15 0.20 0.26 0.29 0.29 0.31 0.33 0.34 0.36 0.39 0.40 0.39 0.38 0.39 0.39 0.37 0.36 0.38 0.40 0.43 0.45 0.44 0.47 0.48 0.44 0.41 0.38 0.37 0.39 0.37 0.35 0.37 0.35 0.32
0.09 0.09 0.07 0.04 0.02 0.02 0.02 0.02 0.02 0.01 0.01 0.01 0.01 0.02 0.02 0.02 0.03 0.03 0.03 0.07 0.10 0.15 0.19 0.23 0.26 0.28 0.30 0.31 0.34 0.36 0.39 0.44 0.47 0.50 0.53 0.51 0.45 0.41 0.40 0.41 0.41 0.42 0.41 0.43 0.45 0.48 0.51 0.50 0.46 0.44 0.42 0.41 0.40 0.39

GFSWCAN_prec_precacc_078.txt.gz
Total_Precipitation_Accumulation
0.55 0.47 0.36 0.35 0.33 0.30 0.27 0.28 0.33 0.31 0.24 0.21 0.20 0.25 0.28 0.27 0.51 0.40 0.35 0.38 0.33 0.20 0.08 0.02 0.02 0.04 0.18 0.42 0.61 0.56 0.71 0.50 0.53 0.79 0.63 0.32 0.09 0.02 0.00 0.01 0.00 0.03 0.05 0.09 0.12 0.13 0.01 0.00 0.00 0.01 0.01 0.00 0.00 0.05
0.65 0.54 0.40 0.38 0.35 0.30 0.32 0.31 0.33 0.29 0.24 0.23 0.18 0.21 0.25 0.22 0.42 0.51 0.34 0.33 0.34 0.27 0.11 0.03 0.01 0.01 0.05 0.27 0.60 0.60 0.59 0.42 0.52 0.54 0.46 0.34 0.19 0.07 0.01 0.01 0.00 0.00 0.00 0.01 0.01 0.00 0.00 0.00 0.00 0.00 0.00 0.00 0.00 0.00
0.59 0.60 0.44 0.37 0.34 0.32 0.29 0.29 0.35 0.29 0.25 0.24 0.21 0.19 0.21 0.22 0.31 0.50 0.32 0.27 0.33 0.31 0.11 0.03 0.02 0.03 0.00 0.08 0.45 0.76 0.49 0.50 0.50 0.47 0.47 0.27 0.23 0.16 0.07 0.02 0.00 0.00 0.00 0.00 0.00 0.00 0.00 0.00 0.00 0.00 0.00 0.00 0.00 0.00
0.51 0.50 0.38 0.33 0.31 0.25 0.24 0.29 0.29 0.26 0.20 0.21 0.23 0.20 0.17 0.22 0.31 0.42 0.29 0.20 0.36 0.45 0.31 0.11 0.03 0.06 0.05 0.06 0.35 0.69 0.69 0.56 0.58 0.51 0.57 0.42 0.20 0.15 0.09 0.03 0.01 0.00 0.00 0.00 0.00 0.00 0.00 0.00 0.00 0.00 0.00 0.00 0.00 0.00
0.50 0.38 0.34 0.29 0.24 0.22 0.22 0.22 0.22 0.22 0.17 0.20 0.22 0.21 0.23 0.31 0.44 0.31 0.16 0.18 0.28 0.64 0.55 0.31 0.11 0.01 0.04 0.05 0.28 0.67 0.88 0.85 0.78 0.82 0.56 0.36 0.19 0.15 0.05 0.02 0.01 0.00 0.00 0.00 0.00 0.00 0.00 0.00 0.00 0.00 0.00 0.00 0.00 0.00
0.60 0.43 0.33 0.28 0.23 0.25 0.21 0.16 0.16 0.17 0.15 0.18 0.25 0.31 0.30 0.44 0.64 0.41 0.38 0.28 0.33 0.48 0.79 0.58 0.29 0.08 0.06 0.12 0.15 0.50 0.72 0.69 0.74 0.88 0.52 0.24 0.13 0.34 0.21 0.07 0.00 0.00 0.00 0.00 0.00 0.00 0.00 0.00 0.00 0.00 0.00 0.00 0.00 0.00
0.50 0.42 0.32 0.31 0.28 0.29 0.27 0.18 0.18 0.26 0.26 0.27 0.33 0.33 0.33 0.47 0.46 0.50 0.35 0.47 0.42 0.39 0.65 0.72 0.53 0.22 0.12 0.43 0.18 0.39 0.85 0.99 0.83 0.80 0.47 0.26 0.20 0.51 0.42 0.07 0.00 0.00 0.00 0.00 0.00 0.00 0.00 0.00 0.00 0.00 0.00 0.00 0.00 0.00
0.83 0.89 0.85 0.56 0.46 0.42 0.42 0.25 0.26 0.35 0.41 0.32 0.38 0.41 0.45 0.57 0.50 0.40 0.15 0.25 0.38 0.58 0.56 0.59 0.54 0.49 0.38 0.69 0.46 0.51 0.96 1.16 1.08 0.77 0.41 0.22 0.23 0.37 0.25 0.01 0.00 0.00 0.00 0.00 0.00 0.00 0.00 0.00 0.00 0.00 0.00 0.00 0.00 0.01
0.85 0.85 1.02 1.18 1.03 0.84 0.71 0.52 0.42 0.45 0.54 0.56 0.60 0.67 0.66 0.49 0.28 0.25 0.52 0.52 0.38 0.85 0.88 0.44 0.36 0.62 0.42 0.72 0.59 0.53 0.77 1.11 0.91 0.74 0.41 0.54 0.43 0.33 0.05 0.00 0.00 0.00 0.00 0.00 0.00 0.00 0.00 0.00 0.00 0.00 0.00 0.00 0.00 0.00
0.77 0.78 0.80 0.96 1.21 1.40 1.35 1.06 0.88 0.75 0.80 0.97 0.85 0.84 0.67 0.44 0.50 0.78 1.17 0.97 0.96 0.74 0.59 0.39 0.28 0.35 0.40 0.47 0.64 0.48 0.62 0.79 0.68 0.51 0.57 0.50 0.27 0.13 0.02 0.00 0.00 0.00 0.00 0.00 0.00 0.00 0.00 0.00 0.00 0.00 0.00 0.00 0.00 0.00
0.63 0.79 0.88 0.95 1.16 1.40 1.77 1.85 1.74 1.48 1.38 1.32 1.24 0.81 0.79 0.99 1.08 1.01 1.04 0.65 0.71 0.37 0.15 0.09 0.18 0.29 0.34 0.53 0.66 0.49 0.81 0.49 0.82 0.44 0.48 0.57 0.34 0.08 0.00 0.00 0.00 0.00 0.00 0.00 0.00 0.00 0.00 0.00 0.00 0.00 0.00 0.00 0.00 0.00
0.47 0.56 0.85 1.14 1.25 1.68 1.92 2.42 3.00 2.97 2.24 1.29 0.85 1.11 1.34 1.23 1.16 0.91 0.68 0.30 0.16 0.05 0.02 0.10 0.20 0.32 0.37 0.51 0.41 0.27 0.46 0.44 0.40 0.21 0.35 0.40 0.32 0.13 0.02 0.00 0.00 0.00 0.00 0.00 0.00 0.00 0.00 0.00 0.01 0.01 0.00 0.00 0.00 0.00
0.46 0.50 0.69 0.96 1.26 1.59 2.03 2.36 2.99 2.94 1.88 1.41 1.49 2.16 1.39 1.12 0.88 0.34 0.23 0.10 0.03 0.01 0.09 0.27 0.34 0.38 0.41 0.55 0.40 0.21 0.14 0.17 0.16 0.20 0.20 0.18 0.06 0.03 0.03 0.01 0.00 0.01 0.15 0.22 0.16 0.07 0.03 0.03 0.06 0.08 0.04 0.02 0.01 0.01
0.56 0.65 0.66 0.79 1.10 1.39 2.05 2.86 3.31 3.11 2.57 2.11 1.92 1.79 0.78 0.62 0.12 0.09 0.05 0.01 0.01 0.04 0.09 0.14 0.39 0.40 0.28 0.32 0.34 0.21 0.11 0.08 0.07 0.04 0.02 0.01 0.00 0.00 0.00 0.00 0.05 0.08 0.08 0.11 0.19 0.20 0.20 0.24 0.34 0.26 0.19 0.15 0.07 0.04
0.56 0.73 0.74 0.74 0.96 1.53 2.40 3.34 3.46 2.54 2.13 1.74 1.05 0.67 0.34 0.09 0.04 0.04 0.05 0.03 0.01 0.01 0.01 0.07 0.32 0.25 0.26 0.30 0.21 0.12 0.11 0.07 0.03 0.03 0.01 0.00 0.00 0.00 0.00 0.07 0.24 0.16 0.09 0.03 0.02 0.03 0.05 0.09 0.14 0.16 0.10 0.10 0.11 0.11
0.67 0.81 0.84 0.78 0.86 1.38 2.19 2.25 2.34 1.79 2.08 1.60 0.80 0.37 0.11 0.03 0.02 0.03 0.04 0.05 0.04 0.06 0.13 0.21 0.25 0.17 0.16 0.14 0.12 0.09 0.08 0.05 0.07 0.04 0.00 0.00 0.00 0.00 0.01 0.06 0.14 0.09 0.01 0.00 0.00 0.00 0.00 0.00 0.00 0.02 0.07 0.09 0.11 0.15
0.46 0.46 0.77 0.68 0.84 1.30 1.60 1.92 1.75 1.82 2.01 1.50 0.46 0.05 0.02 0.03 0.02 0.04 0.05 0.06 0.08 0.13 0.24 0.41 0.38 0.18 0.13 0.09 0.03 0.02 0.04 0.05 0.04 0.02 0.00 0.00 0.00 0.00 0.00 0.04 0.10 0.03 0.00 0.00 0.00 0.00 0.00 0.00 0.00 0.00 0.00 0.00 0.00 0.01
0.21 0.37 0.60 0.54 0.55 0.79 1.23 1.53 1.92 1.86 1.52 0.73 0.12 0.03 0.01 0.01 0.04 0.04 0.06 0.14 0.23 0.31 0.32 0.58 0.26 0.16 0.08 0.06 0.03 0.02 0.01 0.01 0.01 0.00 0.00 0.00 0.00 0.00 0.00 0.02 0.04 0.01 0.00 0.00 0.00 0.00 0.00 0.00 0.00 0.00 0.00 0.00 0.00 0.00
0.29 0.37 0.41 0.37 0.33 0.55 0.97 1.23 1.37 1.16 0.69 0.26 0.07 0.04 0.03 0.02 0.01 0.03 0.04 0.10 0.23 0.34 0.53 0.57 0.38 0.13 0.01 0.02 0.04 0.03 0.01 0.01 0.01 0.00 0.00 0.00 0.00 0.00 0.00 0.00 0.00 0.00 0.00 0.00 0.00 0.00 0.00 0.00 0.00 0.00 0.00 0.00 0.00 0.00
0.56 0.74 0.62 0.36 0.27 0.44 0.63 0.90 0.85 0.69 0.44 0.30 0.18 0.12 0.09 0.06 0.06 0.05 0.04 0.07 0.12 0.28 0.44 0.35 0.11 0.03 0.02 0.03 0.02 0.02 0.00 0.00 0.00 0.00 0.00 0.00 0.00 0.00 0.00 0.00 0.00 0.00 0.00 0.00 0.00 0.00 0.00 0.00 0.00 0.00 0.00 0.00 0.00 0.00
0.47 0.65 0.62 0.35 0.43 0.45 0.51 0.45 0.64 0.58 0.47 0.44 0.54 0.39 0.33 0.25 0.20 0.23 0.37 0.34 0.49 0.56 0.27 0.11 0.04 0.02 0.03 0.05 0.06 0.03 0.01 0.01 0.00 0.00 0.00 0.00 0.00 0.00 0.00 0.00 0.00 0.00 0.00 0.00 0.00 0.00 0.00 0.00 0.00 0.00 0.00 0.00 0.00 0.00
0.27 0.34 0.35 0.46 0.58 0.40 0.32 0.37 0.46 0.47 0.37 0.49 0.66 0.63 0.59 0.56 0.58 0.59 0.63 0.84 0.83 0.38 0.13 0.06 0.09 0.07 0.04 0.04 0.06 0.06 0.05 0.03 0.01 0.00 0.00 0.00 0.00 0.00 0.00 0.00 0.00 0.00 0.00 0.00 0.00 0.00 0.00 0.00 0.00 0.00 0.00 0.00 0.00 0.00
0.28 0.25 0.33 0.37 0.33 0.21 0.29 0.27 0.29 0.36 0.37 0.47 0.56 0.57 0.67 0.66 0.76 0.88 1.01 0.79 0.45 0.26 0.18 0.16 0.14 0.14 0.12 0.08 0.06 0.04 0.05 0.06 0.04 0.02 0.01 0.00 0.00 0.00 0.00 0.00 0.00 0.00 0.00 0.00 0.00 0.00 0.00 0.00 0.00 0.00 0.00 0.00 0.00 0.00
0.16 0.28 0.24 0.20 0.18 0.20 0.18 0.21 0.17 0.22 0.28 0.31 0.39 0.41 0.42 0.58 0.69 0.70 0.55 0.28 0.25 0.27 0.25 0.25 0.20 0.13 0.12 0.14 0.16 0.13 0.09 0.07 0.05 0.06 0.08 0.07 0.04 0.02 0.01 0.01 0.00 0.00 0.00 0.00 0.00 0.00 0.00 0.00 0.00 0.00 0.00 0.00 0.00 0.00
0.37 0.29 0.16 0.11 0.04 0.03 0.05 0.12 0.14 0.13 0.19 0.27 0.33 0.36 0.37 0.46 0.56 0.44 0.26 0.20 0.33 0.40 0.34 0.26 0.19 0.16 0.14 0.12 0.12 0.15 0.16 0.16 0.13 0.09 0.10 0.13 0.11 0.10 0.10 0.06 0.03 0.01 0.00 0.00 0.00 0.00 0.00 0.00 0.00 0.00 0.00 0.00 0.01 0.03
0.23 0.08 0.03 0.01 0.01 0.00 0.00 0.06 0.12 0.17 0.20 0.25 0.28 0.29 0.33 0.36 0.32 0.31 0.18 0.21 0.34 0.45 0.47 0.37 0.27 0.20 0.17 0.17 0.18 0.22 0.21 0.20 0.18 0.15 0.21 0.27 0.20 0.15 0.11 0.10 0.09 0.07 0.04 0.03 0.04 0.03 0.04 0.04 0.03 0.04 0.03 0.03 0.07 0.17
0.08 0.03 0.02 0.00 0.00 0.00 0.00 0.00 0.01 0.04 0.10 0.14 0.16 0.18 0.20 0.22 0.25 0.14 0.13 0.22 0.33 0.40 0.45 0.47 0.38 0.26 0.22 0.22 0.23 0.25 0.28 0.32 0.28 0.21 0.24 0.33 0.34 0.29 0.20 0.14 0.08 0.06 0.10 0.15 0.13 0.11 0.10 0.11 0.11 0.12 0.15 0.17 0.17 0.18
0.02 0.00 0.00 0.01 0.01 0.01 0.01 0.01 0.00 0.00 0.00 0.03 0.10 0.09 0.10 0.11 0.08 0.08 0.13 0.22 0.33 0.38 0.44 0.48 0.46 0.34 0.29 0.27 0.28 0.30 0.34 0.38 0.39 0.33 0.31 0.35 0.39 0.40 0.38 0.31 0.29 0.29 0.27 0.24 0.26 0.27 0.25 0.23 0.23 0.23 0.25 0.24 0.20 0.21
0.02 0.00 0.00 0.01 0.02 0.01 0.00 0.00 0.00 0.00 0.00 0.00 0.01 0.03 0.03 0.03 0.06 0.09 0.14 0.21 0.30 0.36 0.39 0.42 0.45 0.43 0.39 0.37 0.36 0.37 0.38 0.37 0.32 0.27 0.20 0.20 0.25 0.34 0.42 0.44 0.46 0.48 0.43 0.36 0.35 0.32 0.27 0.26 0.28 0.29 0.30 0.30 0.27 0.27
0.02 0.00 0.00 0.01 0.01 0.00 0.00 0.01 0.01 0.01 0.00 0.00 0.00 0.00 0.01 0.03 0.06 0.09 0.14 0.19 0.26 0.32 0.37 0.42 0.44 0.44 0.42 0.40 0.41 0.42 0.43 0.43 0.41 0.31 0.24 0.21 0.23 0.31 0.40 0.44 0.46 0.47 0.47 0.43 0.41 0.45 0.44 0.44 0.43 0.42 0.38 0.36 0.33 0.31
0.02 0.01 0.00 0.00 0.00 0.01 0.02 0.03 0.02 0.01 0.00 0.00 0.00 0.00 0.01 0.02 0.04 0.07 0.11 0.16 0.22 0.28 0.33 0.36 0.39 0.43 0.42 0.44 0.43 0.42 0.40 0.41 0.42 0.43 0.39 0.38 0.40 0.40 0.43 0.46 0.46 0.46 0.48 0.46 0.42 0.36 0.33 0.29 0.24 0.21 0.24 0.26 0.26 0.25
0.05 0.03 0.01 0.01 0.01 0.02 0.03 0.02 0.02 0.01 0.02 0.01 0.01 0.01 0.01 0.02 0.03 0.04 0.07 0.10 0.15 0.20 0.26 0.29 0.29 0.31 0.33 0.34 0.36 0.39 0.40 0.39 0.38 0.39 0.39 0.37 0.36 0.38 0.40 0.43 0.45 0.44 0.47 0.48 0.44 0.41 0.38 0.37 0.39 0.37 0.35 0.37 0.35 0.32
0.09 0.09 0.07 0.04 0.02 0.02 0.02 0.02 0.02 0.01 0.01 0.01 0.01 0.02 0.02 0.02 0.03 0.03 0.03 0.07 0.10 0.15 0.19 0.23 0.26 0.28 0.30 0.31 0.34 0.36 0.39 0.44 0.47 0.50 0.53 0.51 0.45 0.42 0.40 0.41 0.41 0.42 0.41 0.43 0.45 0.48 0.51 0.50 0.46 0.44 0.42 0.41 0.40 0.39

GFSWCAN_prec_precacc_081.txt.gz
Total_Precipitation_Accumulation
0.77 0.71 0.52 0.45 0.37 0.31 0.27 0.28 0.33 0.31 0.24 0.21 0.20 0.25 0.28 0.27 0.51 0.40 0.35 0.38 0.33 0.20 0.08 0.02 0.02 0.04 0.18 0.42 0.61 0.56 0.71 0.50 0.53 0.80 0.74 0.39 0.12 0.04 0.01 0.01 0.00 0.03 0.06 0.11 0.13 0.16 0.02 0.00 0.00 0.01 0.01 0.00 0.00 0.05
0.96 0.87 0.60 0.48 0.41 0.32 0.32 0.31 0.33 0.29 0.24 0.23 0.18 0.21 0.25 0.22 0.42 0.51 0.34 0.33 0.34 0.27 0.11 0.03 0.01 0.01 0.05 0.27 0.60 0.60 0.59 0.42 0.52 0.54 0.47 0.38 0.30 0.24 0.08 0.06 0.02 0.01 0.00 0.01 0.01 0.00 0.00 0.00 0.00 0.00 0.00 0.00 0.00 0.00
0.88 0.99 0.78 0.46 0.38 0.34 0.30 0.30 0.35 0.29 0.25 0.24 0.21 0.19 0.21 0.22 0.31 0.50 0.32 0.27 0.33 0.31 0.11 0.03 0.02 0.03 0.00 0.08 0.45 0.77 0.49 0.50 0.50 0.47 0.47 0.27 0.25 0.19 0.12 0.10 0.05 0.02 0.00 0.00 0.00 0.00 0.00 0.00 0.00 0.00 0.00 0.00 0.00 0.00
0.76 0.89 0.72 0.46 0.33 0.26 0.25 0.29 0.29 0.26 0.20 0.21 0.23 0.20 0.17 0.22 0.31 0.42 0.29 0.20 0.36 0.45 0.31 0.11 0.03 0.06 0.05 0.06 0.35 0.69 0.69 0.56 0.58 0.52 0.57 0.43 0.21 0.15 0.09 0.04 0.04 0.02 0.00 0.00 0.00 0.00 0.00 0.00 0.00 0.00 0.00 0.00 0.00 0.00
0.75 0.80 0.77 0.46 0.28 0.24 0.23 0.22 0.22 0.22 0.18 0.20 0.22 0.21 0.24 0.32 0.45 0.31 0.17 0.18 0.28 0.65 0.55 0.31 0.11 0.01 0.04 0.05 0.28 0.67 0.88 0.85 0.78 0.82 0.57 0.36 0.19 0.15 0.05 0.03 0.01 0.00 0.00 0.00 0.00 0.00 0.00 0.00 0.00 0.00 0.00 0.00 0.00 0.00
0.86 0.83 0.84 0.55 0.30 0.29 0.23 0.17 0.16 0.17 0.15 0.18 0.25 0.32 0.31 0.46 0.66 0.43 0.39 0.29 0.34 0.48 0.79 0.59 0.29 0.08 0.06 0.12 0.15 0.50 0.72 0.69 0.75 0.89 0.53 0.24 0.13 0.34 0.21 0.07 0.00 0.00 0.00 0.00 0.00 0.00 0.00 0.00 0.00 0.00 0.00 0.00 0.00 0.00
0.78 0.82 0.73 0.58 0.44 0.37 0.29 0.19 0.18 0.26 0.27 0.27 0.34 0.34 0.33 0.48 0.46 0.50 0.35 0.47 0.42 0.39 0.65 0.72 0.53 0.22 0.12 0.43 0.18 0.39 0.85 0.99 0.84 0.82 0.48 0.26 0.20 0.55 0.46 0.07 0.00 0.00 0.00 0.00 0.00 0.00 0.00 0.00 0.00 0.00 0.00 0.00 0.00 0.00
1.21 1.32 1.15 0.70 0.60 0.50 0.44 0.25 0.26 0.35 0.41 0.32 0.38 0.41 0.46 0.57 0.50 0.40 0.15 0.25 0.38 0.58 0.56 0.59 0.54 0.49 0.38 0.69 0.46 0.51 0.97 1.18 1.09 0.78 0.42 0.23 0.23 0.37 0.25 0.01 0.00 0.00 0.00 0.00 0.00 0.00 0.00 0.00 0.00 0.00 0.00 0.00 0.00 0.01
1.25 1.26 1.26 1.27 1.09 0.86 0.72 0.53 0.42 0.45 0.54 0.56 0.61 0.68 0.66 0.49 0.28 0.25 0.53 0.53 0.38 0.85 0.88 0.44 0.36 0.62 0.42 0.72 0.60 0.54 0.79 1.13 0.92 0.76 0.42 0.56 0.45 0.34 0.05 0.00 0.00 0.00 0.00 0.00 0.00 0.00 0.00 0.00 0.00 0.00 0.00 0.00 0.00 0.00
1.12 1.07 0.93 1.01 1.23 1.41 1.35 1.06 0.88 0.75 0.80 0.97 0.86 0.84 0.67 0.44 0.50 0.78 1.18 0.98 0.97 0.75 0.60 0.39 0.28 0.35 0.40 0.47 0.64 0.48 0.63 0.80 0.69 0.51 0.58 0.52 0.27 0.13 0.02 0.00 0.00 0.00 0.00 0.00 0.00 0.00 0.00 0.00 0.00 0.00 0.00 0.00 0.00 0.00
0.90 0.99 0.97 0.98 1.16 1.40 1.77 1.85 1.75 1.49 1.38 1.32 1.25 0.81 0.80 1.00 1.09 1.01 1.04 0.66 0.72 0.37 0.15 0.09 0.18 0.29 0.34 0.53 0.66 0.50 0.82 0.51 0.83 0.46 0.51 0.59 0.43 0.18 0.00 0.00 0.00 0.00 0.00 0.00 0.00 0.00 0.00 0.00 0.00 0.00 0.00 0.00 0.00 0.00
0.61 0.66 0.89 1.14 1.25 1.68 1.92 2.42 3.01 2.98 2.24 1.29 0.85 1.11 1.35 1.24 1.17 0.91 0.68 0.30 0.16 0.05 0.02 0.10 0.20 0.33 0.37 0.52 0.42 0.28 0.48 0.47 0.42 0.24 0.38 0.46 0.47 0.28 0.06 0.00 0.00 0.00 0.00 0.00 0.00 0.00 0.00 0.00 0.01 0.01 0.00 0.00 0.00 0.00
0.50 0.52 0.69 0.96 1.26 1.59 2.04 2.37 3.00 2.94 1.88 1.41 1.49 2.16 1.39 1.12 0.88 0.34 0.23 0.10 0.03 0.01 0.09 0.27 0.34 0.38 0.42 0.58 0.41 0.23 0.17 0.21 0.21 0.22 0.22 0.25 0.11 0.09 0.13 0.06 0.00 0.01 0.15 0.22 0.16 0.07 0.03 0.03 0.06 0.08 0.04 0.02 0.01 0.01
0.57 0.65 0.67 0.80 1.10 1.41 2.07 2.87 3.33 3.12 2.57 2.11 1.92 1.79 0.78 0.62 0.12 0.09 0.05 0.01 0.01 0.04 0.09 0.14 0.39 0.40 0.28 0.35 0.36 0.24 0.13 0.11 0.11 0.05 0.02 0.02 0.01 0.01 0.02 0.07 0.11 0.11 0.09 0.11 0.19 0.20 0.20 0.24 0.35 0.26 0.19 0.15 0.07 0.04
0.58 0.74 0.75 0.76 1.00 1.57 2.43 3.36 3.47 2.54 2.13 1.74 1.05 0.67 0.34 0.09 0.04 0.04 0.05 0.03 0.01 0.01 0.01 0.07 0.32 0.26 0.27 0.32 0.23 0.15 0.12 0.09 0.05 0.04 0.01 0.00 0.01 0.01 0.01 0.10 0.31 0.21 0.12 0.04 0.02 0.03 0.06 0.11 0.16 0.17 0.10 0.10 0.11 0.11
0.68 0.82 0.87 0.81 0.89 1.41 2.21 2.26 2.34 1.79 2.08 1.60 0.80 0.37 0.11 0.03 0.02 0.03 0.04 0.05 0.04 0.06 0.13 0.21 0.25 0.19 0.18 0.16 0.14 0.11 0.10 0.06 0.08 0.04 0.00 0.00 0.01 0.02 0.05 0.16 0.26 0.15 0.05 0.01 0.00 0.00 0.00 0.00 0.00 0.02 0.07 0.09 0.11 0.15
0.48 0.50 0.81 0.72 0.87 1.31 1.60 1.92 1.75 1.82 2.01 1.50 0.46 0.05 0.02 0.03 0.02 0.04 0.05 0.06 0.08 0.13 0.24 0.41 0.39 0.19 0.15 0.12 0.03 0.03 0.06 0.06 0.04 0.02 0.00 0.00 0.00 0.02 0.07 0.13 0.18 0.09 0.04 0.02 0.00 0.00 0.00 0.00 0.00 0.00 0.00 0.00 0.00 0.01
0.25 0.39 0.61 0.55 0.57 0.80 1.24 1.53 1.92 1.86 1.52 0.73 0.12 0.03 0.01 0.01 0.04 0.04 0.06 0.14 0.23 0.31 0.32 0.58 0.26 0.16 0.08 0.07 0.03 0.03 0.02 0.01 0.01 0.00 0.00 0.00 0.00 0.00 0.02 0.08 0.12 0.08 0.03 0.00 0.00 0.00 0.00 0.00 0.00 0.00 0.00 0.00 0.00 0.00
0.29 0.37 0.42 0.38 0.33 0.56 0.98 1.24 1.37 1.17 0.69 0.26 0.07 0.04 0.03 0.02 0.01 0.03 0.04 0.10 0.23 0.35 0.53 0.57 0.38 0.14 0.01 0.02 0.04 0.03 0.01 0.01 0.01 0.00 0.00 0.00 0.00 0.00 0.00 0.00 0.00 0.01 0.00 0.00 0.00 0.00 0.00 0.00 0.00 0.00 0.00 0.00 0.00 0.00
0.58 0.75 0.63 0.36 0.27 0.44 0.63 0.91 0.86 0.69 0.44 0.30 0.18 0.12 0.09 0.06 0.06 0.05 0.04 0.07 0.13 0.28 0.45 0.35 0.11 0.03 0.02 0.03 0.02 0.02 0.00 0.00 0.00 0.00 0.00 0.00 0.00 0.00 0.00 0.00 0.00 0.00 0.00 0.00 0.00 0.00 0.00 0.00 0.00 0.00 0.00 0.00 0.00 0.00
0.49 0.72 0.71 0.40 0.47 0.46 0.51 0.45 0.64 0.58 0.47 0.44 0.54 0.39 0.33 0.26 0.21 0.23 0.37 0.34 0.50 0.57 0.27 0.11 0.04 0.02 0.03 0.05 0.06 0.03 0.01 0.01 0.00 0.00 0.00 0.00 0.00 0.00 0.00 0.00 0.00 0.00 0.00 0.00 0.00 0.00 0.00 0.00 0.00 0.00 0.00 0.00 0.00 0.00
0.32 0.45 0.46 0.60 0.67 0.42 0.32 0.37 0.46 0.47 0.37 0.49 0.66 0.63 0.59 0.56 0.58 0.60 0.64 0.85 0.84 0.38 0.13 0.06 0.09 0.07 0.04 0.04 0.06 0.06 0.05 0.03 0.01 0.00 0.00 0.00 0.00 0.00 0.00 0.00 0.00 0.00 0.00 0.00 0.00 0.00 0.00 0.00 0.00 0.00 0.00 0.00 0.00 0.00
0.30 0.27 0.39 0.48 0.40 0.24 0.32 0.29 0.29 0.36 0.37 0.48 0.56 0.57 0.67 0.66 0.76 0.88 1.02 0.79 0.45 0.26 0.18 0.16 0.14 0.14 0.12 0.08 0.06 0.04 0.05 0.06 0.04 0.02 0.01 0.00 0.00 0.00 0.00 0.00 0.00 0.00 0.00 0.00 0.00 0.00 0.00 0.00 0.00 0.00 0.00 0.00 0.00 0.00
0.18 0.33 0.30 0.26 0.21 0.23 0.20 0.23 0.18 0.22 0.28 0.31 0.39 0.41 0.42 0.58 0.70 0.70 0.56 0.28 0.25 0.27 0.25 0.25 0.20 0.13 0.12 0.14 0.16 0.13 0.09 0.07 0.05 0.06 0.08 0.07 0.04 0.02 0.01 0.01 0.00 0.00 0.00 0.00 0.00 0.00 0.00 0.00 0.00 0.00 0.00 0.00 0.00 0.00
0.41 0.35 0.19 0.15 0.07 0.04 0.05 0.13 0.14 0.13 0.19 0.27 0.33 0.36 0.37 0.46 0.56 0.44 0.26 0.20 0.33 0.40 0.34 0.26 0.19 0.16 0.14 0.12 0.12 0.15 0.16 0.16 0.13 0.09 0.10 0.13 0.11 0.10 0.10 0.06 0.03 0.01 0.00 0.00 0.00 0.00 0.00 0.00 0.00 0.00 0.00 0.00 0.01 0.03
0.24 0.09 0.05 0.03 0.02 0.00 0.01 0.06 0.12 0.17 0.20 0.25 0.28 0.29 0.33 0.36 0.32 0.31 0.18 0.21 0.34 0.45 0.47 0.37 0.27 0.20 0.17 0.17 0.18 0.22 0.21 0.20 0.18 0.15 0.21 0.27 0.20 0.15 0.11 0.10 0.09 0.07 0.04 0.03 0.04 0.03 0.04 0.04 0.03 0.04 0.03 0.03 0.07 0.17
0.08 0.04 0.02 0.00 0.00 0.00 0.00 0.00 0.01 0.04 0.10 0.14 0.16 0.18 0.20 0.22 0.25 0.14 0.13 0.22 0.33 0.40 0.45 0.47 0.38 0.26 0.22 0.22 0.23 0.25 0.28 0.32 0.28 0.21 0.24 0.33 0.34 0.29 0.20 0.14 0.08 0.06 0.10 0.15 0.13 0.11 0.10 0.11 0.11 0.12 0.15 0.17 0.17 0.18
0.02 0.00 0.00 0.01 0.01 0.01 0.01 0.01 0.00 0.00 0.00 0.03 0.10 0.09 0.10 0.11 0.08 0.08 0.13 0.22 0.33 0.38 0.44 0.48 0.46 0.34 0.29 0.27 0.28 0.30 0.34 0.38 0.39 0.33 0.31 0.35 0.39 0.40 0.38 0.31 0.29 0.29 0.27 0.24 0.26 0.27 0.25 0.23 0.23 0.23 0.25 0.24 0.20 0.21
0.02 0.00 0.00 0.01 0.02 0.01 0.00 0.00 0.00 0.00 0.00 0.00 0.01 0.03 0.03 0.03 0.06 0.09 0.14 0.21 0.30 0.36 0.39 0.42 0.45 0.43 0.39 0.37 0.36 0.37 0.38 0.37 0.32 0.27 0.20 0.20 0.25 0.34 0.42 0.44 0.46 0.48 0.43 0.36 0.35 0.32 0.27 0.26 0.28 0.29 0.30 0.30 0.27 0.27
0.02 0.00 0.00 0.01 0.01 0.00 0.00 0.01 0.01 0.01 0.00 0.00 0.00 0.00 0.01 0.03 0.06 0.09 0.14 0.19 0.26 0.32 0.37 0.42 0.44 0.44 0.42 0.40 0.41 0.42 0.43 0.43 0.41 0.31 0.24 0.21 0.23 0.31 0.40 0.44 0.46 0.47 0.47 0.43 0.41 0.45 0.44 0.44 0.43 0.42 0.38 0.36 0.33 0.31
0.02 0.01 0.00 0.00 0.00 0.01 0.02 0.03 0.02 0.01 0.00 0.00 0.00 0.00 0.01 0.02 0.04 0.07 0.11 0.16 0.22 0.28 0.33 0.36 0.39 0.43 0.42 0.44 0.43 0.42 0.40 0.41 0.42 0.43 0.39 0.38 0.40 0.40 0.43 0.46 0.46 0.46 0.48 0.46 0.42 0.36 0.33 0.29 0.24 0.21 0.24 0.26 0.26 0.25
0.05 0.03 0.01 0.01 0.01 0.02 0.03 0.02 0.02 0.01 0.02 0.01 0.01 0.01 0.01 0.02 0.03 0.04 0.07 0.10 0.15 0.20 0.26 0.29 0.29 0.31 0.33 0.34 0.36 0.39 0.40 0.39 0.38 0.39 0.39 0.37 0.36 0.38 0.40 0.43 0.45 0.44 0.47 0.48 0.44 0.41 0.38 0.37 0.39 0.37 0.35 0.37 0.35 0.32
0.09 0.09 0.07 0.04 0.02 0.02 0.02 0.02 0.02 0.01 0.01 0.01 0.01 0.02 0.02 0.02 0.03 0.03 0.03 0.07 0.10 0.15 0.19 0.23 0.26 0.28 0.30 0.31 0.34 0.36 0.39 0.44 0.47 0.50 0.53 0.51 0.46 0.42 0.41 0.41 0.41 0.42 0.41 0.43 0.45 0.48 0.51 0.50 0.46 0.44 0.42 0.41 0.40 0.39

GFSWCAN_prec_precacc_084.txt.gz
Total_Precipitation_Accumulation
0.92 0.99 1.09 0.82 0.52 0.42 0.32 0.30 0.33 0.31 0.24 0.21 0.20 0.25 0.28 0.27 0.51 0.40 0.35 0.38 0.33 0.20 0.08 0.02 0.02 0.04 0.18 0.42 0.61 0.56 0.71 0.50 0.53 0.80 0.74 0.42 0.13 0.05 0.04 0.05 0.01 0.05 0.09 0.13 0.14 0.17 0.02 0.00 0.00 0.01 0.01 0.00 0.00 0.05
1.06 0.99 1.06 0.94 0.61 0.47 0.40 0.34 0.33 0.29 0.24 0.23 0.18 0.21 0.25 0.22 0.42 0.51 0.34 0.33 0.34 0.27 0.11 0.03 0.01 0.01 0.05 0.27 0.60 0.60 0.59 0.42 0.52 0.54 0.47 0.38 0.30 0.24 0.10 0.08 0.02 0.02 0.00 0.01 0.01 0.01 0.00 0.00 0.00 0.00 0.00 0.00 0.00 0.00
1.02 1.12 1.08 0.99 0.69 0.48 0.42 0.34 0.37 0.30 0.25 0.24 0.21 0.19 0.21 0.22 0.31 0.50 0.32 0.27 0.33 0.31 0.11 0.03 0.02 0.03 0.00 0.08 0.45 0.77 0.49 0.50 0.50 0.47 0.47 0.27 0.25 0.20 0.13 0.12 0.06 0.07 0.03 0.00 0.00 0.00 0.00 0.00 0.00 0.00 0.00 0.00 0.00 0.00
0.90 1.07 1.02 0.91 0.85 0.49 0.35 0.33 0.32 0.28 0.20 0.21 0.23 0.20 0.17 0.22 0.31 0.42 0.29 0.20 0.36 0.45 0.31 0.11 0.03 0.06 0.05 0.06 0.35 0.69 0.69 0.56 0.58 0.52 0.58 0.43 0.21 0.15 0.09 0.04 0.04 0.03 0.02 0.01 0.00 0.00 0.00 0.00 0.00 0.00 0.00 0.00 0.00 0.00
0.86 0.93 0.98 0.81 0.71 0.58 0.37 0.29 0.27 0.24 0.18 0.20 0.22 0.21 0.24 0.32 0.46 0.32 0.17 0.19 0.28 0.65 0.55 0.31 0.11 0.01 0.04 0.05 0.28 0.67 0.88 0.85 0.78 0.83 0.57 0.37 0.19 0.15 0.05 0.03 0.01 0.00 0.00 0.01 0.00 0.00 0.00 0.00 0.00 0.00 0.00 0.00 0.00 0.00
0.99 0.94 1.02 0.95 0.67 0.58 0.37 0.26 0.21 0.19 0.15 0.18 0.25 0.32 0.32 0.47 0.68 0.46 0.40 0.29 0.34 0.48 0.79 0.59 0.29 0.08 0.06 0.12 0.15 0.50 0.72 0.69 0.76 0.91 0.53 0.24 0.13 0.34 0.21 0.07 0.00 0.00 0.00 0.00 0.00 0.00 0.00 0.00 0.00 0.00 0.00 0.00 0.00 0.00
0.93 0.96 0.91 0.99 0.88 0.66 0.47 0.29 0.22 0.27 0.27 0.27 0.34 0.34 0.35 0.49 0.48 0.51 0.35 0.47 0.42 0.39 0.65 0.72 0.53 0.22 0.12 0.43 0.18 0.39 0.85 1.00 0.85 0.85 0.49 0.26 0.20 0.57 0.47 0.07 0.00 0.00 0.00 0.00 0.00 0.00 0.00 0.00 0.00 0.00 0.00 0.00 0.00 0.00
1.37 1.51 1.41 1.08 0.94 0.80 0.68 0.38 0.30 0.36 0.42 0.33 0.39 0.43 0.47 0.59 0.52 0.41 0.15 0.26 0.38 0.58 0.56 0.59 0.54 0.49 0.38 0.69 0.46 0.52 0.98 1.20 1.11 0.79 0.42 0.23 0.24 0.39 0.26 0.01 0.00 0.00 0.01 0.00 0.00 0.00 0.00 0.00 0.00 0.00 0.00 0.00 0.00 0.01
1.41 1.47 1.58 1.64 1.41 1.05 0.89 0.63 0.46 0.47 0.54 0.57 0.61 0.68 0.67 0.50 0.30 0.26 0.54 0.53 0.38 0.85 0.88 0.44 0.36 0.62 0.42 0.72 0.60 0.55 0.81 1.14 0.92 0.77 0.42 0.56 0.45 0.35 0.06 0.00 0.00 0.00 0.00 0.00 0.00 0.00 0.00 0.00 0.00 0.00 0.00 0.00 0.00 0.00
1.31 1.32 1.25 1.36 1.49 1.58 1.47 1.11 0.89 0.77 0.80 0.97 0.86 0.84 0.69 0.46 0.51 0.79 1.18 0.99 0.97 0.75 0.60 0.39 0.28 0.35 0.40 0.47 0.64 0.49 0.64 0.80 0.70 0.51 0.59 0.53 0.27 0.13 0.03 0.01 0.00 0.00 0.00 0.00 0.00 0.01 0.01 0.00 0.00 0.00 0.00 0.00 0.00 0.00
1.19 1.25 1.23 1.27 1.34 1.52 1.84 1.87 1.76 1.50 1.38 1.32 1.25 0.84 0.85 1.02 1.09 1.01 1.04 0.66 0.72 0.37 0.15 0.09 0.18 0.29 0.34 0.53 0.67 0.50 0.83 0.51 0.83 0.46 0.52 0.59 0.44 0.27 0.05 0.00 0.00 0.00 0.00 0.00 0.00 0.00 0.00 0.00 0.00 0.00 0.00 0.00 0.00 0.00
1.09 0.94 1.04 1.33 1.40 1.76 1.94 2.43 3.01 2.98 2.24 1.29 0.86 1.14 1.37 1.24 1.17 0.91 0.68 0.30 0.16 0.05 0.02 0.10 0.20 0.33 0.37 0.52 0.42 0.28 0.50 0.49 0.42 0.25 0.39 0.46 0.50 0.34 0.14 0.02 0.00 0.00 0.00 0.00 0.01 0.01 0.01 0.01 0.01 0.01 0.00 0.00 0.00 0.00
1.03 0.77 0.79 1.07 1.34 1.62 2.04 2.37 3.00 2.94 1.88 1.42 1.50 2.18 1.39 1.13 0.88 0.34 0.23 0.10 0.03 0.01 0.09 0.27 0.34 0.38 0.42 0.59 0.42 0.24 0.18 0.22 0.23 0.24 0.23 0.27 0.12 0.11 0.18 0.11 0.02 0.01 0.16 0.22 0.16 0.07 0.03 0.03 0.06 0.08 0.04 0.02 0.01 0.01
0.93 0.83 0.77 0.86 1.13 1.41 2.07 2.87 3.33 3.13 2.59 2.13 1.95 1.81 0.78 0.62 0.12 0.09 0.05 0.01 0.01 0.04 0.09 0.14 0.39 0.40 0.28 0.36 0.37 0.25 0.13 0.15 0.14 0.06 0.03 0.03 0.01 0.02 0.03 0.12 0.17 0.13 0.09 0.11 0.20 0.20 0.20 0.25 0.35 0.27 0.19 0.15 0.07 0.04
0.74 0.84 0.82 0.78 1.00 1.57 2.43 3.36 3.48 2.56 2.16 1.77 1.06 0.68 0.34 0.09 0.04 0.04 0.05 0.03 0.01 0.01 0.01 0.07 0.32 0.26 0.27 0.33 0.24 0.16 0.14 0.11 0.06 0.05 0.01 0.00 0.02 0.01 0.03 0.13 0.37 0.28 0.17 0.08 0.05 0.06 0.08 0.13 0.19 0.18 0.10 0.10 0.11 0.11
0.75 0.88 0.91 0.82 0.90 1.42 2.23 2.28 2.36 1.83 2.12 1.61 0.80 0.37 0.11 0.03 0.02 0.03 0.04 0.05 0.04 0.06 0.13 0.21 0.25 0.19 0.18 0.18 0.16 0.12 0.11 0.07 0.09 0.04 0.00 0.00 0.02 0.03 0.08 0.22 0.32 0.19 0.10 0.07 0.03 0.00 0.00 0.00 0.00 0.02 0.07 0.09 0.11 0.15
0.52 0.58 0.87 0.76 0.92 1.36 1.66 1.97 1.78 1.84 2.02 1.51 0.46 0.05 0.02 0.03 0.02 0.04 0.05 0.06 0.08 0.13 0.24 0.41 0.39 0.19 0.15 0.13 0.04 0.03 0.06 0.06 0.04 0.02 0.00 0.00 0.00 0.02 0.08 0.19 0.28 0.14 0.14 0.16 0.06 0.00 0.00 0.00 0.00 0.00 0.00 0.00 0.00 0.01
0.36 0.54 0.75 0.69 0.68 0.89 1.31 1.55 1.92 1.86 1.52 0.74 0.12 0.03 0.01 0.01 0.04 0.04 0.06 0.14 0.23 0.31 0.32 0.58 0.26 0.16 0.08 0.07 0.03 0.03 0.02 0.01 0.01 0.00 0.00 0.00 0.00 0.00 0.02 0.11 0.19 0.17 0.15 0.10 0.04 0.00 0.00 0.00 0.00 0.00 0.00 0.00 0.00 0.00
0.44 0.52 0.56 0.48 0.38 0.57 0.99 1.24 1.37 1.17 0.69 0.27 0.07 0.04 0.03 0.02 0.01 0.03 0.04 0.10 0.23 0.35 0.53 0.57 0.38 0.14 0.01 0.02 0.04 0.03 0.01 0.01 0.01 0.00 0.00 0.00 0.00 0.00 0.00 0.00 0.01 0.02 0.03 0.02 0.01 0.00 0.00 0.00 0.00 0.00 0.00 0.00 0.00 0.00
0.65 0.84 0.69 0.37 0.27 0.44 0.63 0.91 0.86 0.69 0.44 0.30 0.18 0.12 0.09 0.06 0.06 0.05 0.04 0.07 0.13 0.29 0.46 0.36 0.11 0.03 0.02 0.03 0.02 0.02 0.00 0.00 0.00 0.00 0.00 0.00 0.00 0.00 0.00 0.00 0.00 0.00 0.00 0.00 0.00 0.00 0.00 0.00 0.00 0.00 0.00 0.00 0.00 0.00
0.52 0.76 0.72 0.40 0.47 0.46 0.51 0.45 0.64 0.58 0.47 0.44 0.54 0.39 0.33 0.26 0.21 0.24 0.37 0.35 0.51 0.58 0.28 0.11 0.04 0.02 0.03 0.05 0.06 0.03 0.01 0.01 0.00 0.00 0.00 0.00 0.00 0.00 0.00 0.00 0.00 0.00 0.00 0.00 0.00 0.00 0.00 0.00 0.00 0.00 0.00 0.00 0.00 0.00
0.38 0.50 0.48 0.62 0.68 0.42 0.32 0.37 0.46 0.47 0.37 0.49 0.66 0.63 0.59 0.56 0.58 0.60 0.64 0.86 0.84 0.38 0.13 0.06 0.09 0.07 0.04 0.04 0.06 0.06 0.05 0.03 0.01 0.00 0.00 0.00 0.00 0.00 0.00 0.00 0.00 0.00 0.00 0.00 0.00 0.00 0.00 0.00 0.00 0.00 0.00 0.00 0.00 0.00
0.33 0.30 0.44 0.53 0.41 0.24 0.33 0.29 0.29 0.36 0.37 0.48 0.56 0.57 0.68 0.66 0.76 0.89 1.02 0.79 0.45 0.26 0.18 0.16 0.14 0.14 0.12 0.08 0.06 0.04 0.05 0.06 0.04 0.02 0.01 0.00 0.00 0.00 0.00 0.00 0.00 0.00 0.00 0.00 0.00 0.00 0.00 0.00 0.00 0.00 0.00 0.00 0.00 0.00
0.21 0.37 0.32 0.28 0.22 0.25 0.21 0.24 0.18 0.23 0.28 0.31 0.39 0.41 0.42 0.58 0.70 0.70 0.56 0.28 0.25 0.27 0.25 0.25 0.20 0.13 0.12 0.14 0.16 0.13 0.09 0.07 0.05 0.06 0.08 0.07 0.04 0.02 0.01 0.01 0.00 0.00 0.00 0.00 0.00 0.00 0.00 0.00 0.00 0.00 0.00 0.00 0.00 0.00
0.44 0.37 0.20 0.15 0.07 0.04 0.06 0.13 0.14 0.13 0.19 0.27 0.33 0.36 0.38 0.46 0.56 0.44 0.26 0.20 0.33 0.40 0.34 0.26 0.19 0.16 0.14 0.12 0.12 0.15 0.16 0.16 0.13 0.09 0.10 0.13 0.11 0.10 0.10 0.06 0.03 0.01 0.00 0.00 0.00 0.00 0.00 0.00 0.00 0.00 0.00 0.00 0.01 0.03
0.24 0.10 0.05 0.03 0.02 0.00 0.01 0.06 0.12 0.17 0.20 0.25 0.28 0.29 0.33 0.36 0.32 0.31 0.18 0.21 0.34 0.45 0.47 0.37 0.27 0.20 0.17 0.17 0.18 0.22 0.21 0.20 0.18 0.15 0.21 0.27 0.20 0.15 0.11 0.10 0.09 0.07 0.04 0.03 0.04 0.03 0.04 0.04 0.03 0.04 0.03 0.03 0.07 0.17
0.08 0.04 0.02 0.00 0.00 0.00 0.00 0.00 0.01 0.04 0.10 0.14 0.16 0.18 0.20 0.22 0.25 0.14 0.13 0.22 0.33 0.40 0.45 0.47 0.38 0.26 0.22 0.22 0.23 0.25 0.28 0.32 0.28 0.21 0.24 0.33 0.34 0.29 0.20 0.14 0.08 0.06 0.10 0.15 0.13 0.11 0.10 0.11 0.11 0.12 0.15 0.17 0.17 0.18
0.02 0.00 0.00 0.01 0.01 0.01 0.01 0.01 0.00 0.00 0.00 0.03 0.10 0.09 0.10 0.11 0.08 0.08 0.13 0.22 0.33 0.38 0.44 0.48 0.46 0.34 0.29 0.27 0.28 0.30 0.34 0.38 0.39 0.33 0.31 0.35 0.39 0.40 0.38 0.31 0.29 0.29 0.27 0.24 0.26 0.27 0.25 0.23 0.23 0.23 0.25 0.24 0.20 0.21
0.02 0.00 0.00 0.01 0.02 0.01 0.00 0.00 0.00 0.00 0.00 0.00 0.01 0.03 0.03 0.03 0.06 0.09 0.14 0.21 0.30 0.36 0.39 0.42 0.45 0.43 0.39 0.37 0.36 0.37 0.38 0.37 0.32 0.27 0.20 0.20 0.25 0.34 0.42 0.44 0.46 0.48 0.43 0.36 0.35 0.32 0.27 0.26 0.28 0.29 0.30 0.30 0.27 0.27
0.02 0.00 0.00 0.01 0.01 0.00 0.00 0.01 0.01 0.01 0.00 0.00 0.00 0.00 0.01 0.03 0.06 0.09 0.14 0.19 0.26 0.32 0.37 0.42 0.44 0.44 0.42 0.40 0.41 0.42 0.43 0.43 0.41 0.31 0.24 0.21 0.23 0.31 0.40 0.44 0.46 0.47 0.47 0.43 0.41 0.45 0.44 0.44 0.43 0.42 0.38 0.36 0.33 0.31
0.02 0.01 0.00 0.00 0.00 0.01 0.02 0.03 0.02 0.01 0.00 0.00 0.00 0.00 0.01 0.02 0.04 0.07 0.11 0.16 0.22 0.28 0.33 0.36 0.39 0.43 0.42 0.44 0.43 0.42 0.40 0.41 0.42 0.43 0.39 0.38 0.40 0.40 0.43 0.46 0.46 0.46 0.48 0.46 0.42 0.36 0.33 0.29 0.24 0.21 0.24 0.26 0.26 0.25
0.05 0.03 0.01 0.01 0.01 0.02 0.03 0.02 0.02 0.01 0.02 0.01 0.01 0.01 0.01 0.02 0.03 0.04 0.07 0.10 0.15 0.20 0.26 0.29 0.29 0.31 0.33 0.34 0.36 0.39 0.40 0.39 0.38 0.39 0.39 0.37 0.36 0.38 0.40 0.43 0.45 0.44 0.47 0.48 0.44 0.41 0.38 0.37 0.39 0.38 0.36 0.37 0.36 0.32
0.09 0.09 0.07 0.04 0.02 0.02 0.02 0.02 0.02 0.01 0.01 0.01 0.01 0.02 0.02 0.02 0.03 0.03 0.03 0.07 0.10 0.15 0.19 0.23 0.26 0.28 0.30 0.31 0.34 0.36 0.39 0.44 0.47 0.50 0.54 0.51 0.46 0.42 0.41 0.42 0.42 0.42 0.42 0.43 0.45 0.48 0.51 0.50 0.46 0.44 0.42 0.41 0.40 0.39

GFSWCAN_prec_precacc_087.txt.gz
Total_Precipitation_Accumulation
1.06 1.21 1.37 1.34 1.11 0.94 0.74 0.42 0.36 0.31 0.24 0.21 0.20 0.25 0.28 0.27 0.51 0.40 0.35 0.38 0.33 0.20 0.08 0.02 0.02 0.04 0.18 0.42 0.61 0.56 0.71 0.50 0.53 0.80 0.74 0.42 0.14 0.06 0.04 0.08 0.04 0.08 0.19 0.20 0.19 0.21 0.03 0.00 0.00 0.01 0.01 0.00 0.00 0.05
1.21 1.19 1.24 1.23 1.19 1.18 0.88 0.49 0.35 0.29 0.24 0.23 0.18 0.21 0.25 0.22 0.42 0.51 0.34 0.33 0.34 0.27 0.11 0.03 0.01 0.01 0.05 0.27 0.60 0.60 0.59 0.42 0.52 0.54 0.47 0.38 0.30 0.24 0.10 0.08 0.02 0.03 0.02 0.05 0.02 0.02 0.00 0.00 0.00 0.00 0.00 0.00 0.00 0.00
1.18 1.31 1.25 1.11 0.97 0.94 1.00 0.54 0.40 0.30 0.25 0.24 0.21 0.19 0.21 0.22 0.31 0.50 0.32 0.27 0.33 0.31 0.11 0.03 0.02 0.03 0.00 0.08 0.45 0.77 0.49 0.50 0.50 0.47 0.47 0.27 0.25 0.20 0.13 0.12 0.06 0.07 0.03 0.01 0.00 0.00 0.00 0.00 0.00 0.00 0.00 0.00 0.00 0.00
1.04 1.24 1.24 1.07 1.02 0.81 0.84 0.58 0.36 0.29 0.20 0.21 0.23 0.20 0.17 0.22 0.31 0.42 0.29 0.20 0.36 0.45 0.31 0.11 0.03 0.06 0.05 0.06 0.35 0.69 0.69 0.56 0.58 0.52 0.58 0.43 0.21 0.15 0.09 0.04 0.04 0.03 0.02 0.02 0.00 0.00 0.00 0.00 0.00 0.00 0.00 0.00 0.00 0.00
1.04 1.10 1.21 1.15 0.95 0.96 0.77 0.57 0.34 0.28 0.20 0.21 0.22 0.21 0.24 0.32 0.46 0.32 0.17 0.19 0.28 0.65 0.55 0.31 0.11 0.01 0.04 0.05 0.28 0.67 0.88 0.85 0.79 0.83 0.58 0.37 0.19 0.15 0.05 0.03 0.01 0.00 0.00 0.01 0.01 0.00 0.00 0.00 0.00 0.00 0.00 0.00 0.00 0.00
1.12 1.08 1.17 1.17 1.03 0.95 0.81 0.50 0.34 0.26 0.21 0.20 0.25 0.32 0.32 0.47 0.68 0.46 0.40 0.29 0.34 0.48 0.79 0.59 0.29 0.08 0.06 0.12 0.15 0.50 0.72 0.69 0.77 0.92 0.54 0.24 0.13 0.34 0.22 0.07 0.00 0.00 0.00 0.00 0.00 0.00 0.00 0.00 0.00 0.00 0.00 0.00 0.00 0.00
1.04 1.07 1.04 1.13 1.12 0.97 0.81 0.50 0.38 0.37 0.33 0.29 0.34 0.35 0.36 0.50 0.48 0.51 0.35 0.47 0.42 0.39 0.65 0.72 0.53 0.22 0.12 0.43 0.18 0.39 0.85 1.01 0.87 0.86 0.50 0.26 0.20 0.58 0.48 0.07 0.00 0.00 0.00 0.00 0.00 0.00 0.00 0.00 0.00 0.00 0.00 0.00 0.00 0.00
1.46 1.63 1.56 1.27 1.19 1.08 0.92 0.55 0.43 0.46 0.46 0.33 0.40 0.45 0.48 0.60 0.52 0.41 0.15 0.26 0.38 0.58 0.56 0.59 0.54 0.49 0.38 0.69 0.46 0.52 0.98 1.21 1.12 0.80 0.43 0.24 0.24 0.40 0.27 0.01 0.00 0.00 0.01 0.00 0.00 0.00 0.00 0.00 0.00 0.00 0.00 0.00 0.00 0.01
1.50 1.62 1.77 1.85 1.70 1.34 1.08 0.77 0.57 0.54 0.56 0.58 0.62 0.69 0.67 0.50 0.31 0.28 0.54 0.53 0.38 0.85 0.88 0.44 0.36 0.62 0.42 0.72 0.60 0.56 0.81 1.15 0.93 0.78 0.42 0.57 0.46 0.36 0.06 0.00 0.00 0.00 0.00 0.00 0.00 0.00 0.00 0.01 0.00 0.00 0.00 0.00 0.00 0.00
1.42 1.48 1.48 1.54 1.79 1.86 1.65 1.23 0.99 0.81 0.82 0.98 0.86 0.84 0.69 0.47 0.53 0.80 1.18 0.99 0.97 0.75 0.60 0.39 0.28 0.35 0.40 0.47 0.64 0.49 0.65 0.81 0.70 0.51 0.59 0.54 0.27 0.13 0.05 0.05 0.01 0.00 0.00 0.00 0.00 0.01 0.01 0.01 0.00 0.00 0.00 0.00 0.00 0.00
1.35 1.43 1.46 1.48 1.63 1.77 2.04 1.97 1.80 1.51 1.40 1.33 1.25 0.84 0.87 1.04 1.09 1.01 1.05 0.66 0.72 0.37 0.15 0.09 0.18 0.29 0.34 0.53 0.67 0.50 0.84 0.52 0.84 0.46 0.52 0.60 0.44 0.28 0.08 0.04 0.00 0.00 0.00 0.00 0.00 0.00 0.00 0.00 0.00 0.00 0.00 0.00 0.00 0.00
1.35 1.18 1.29 1.58 1.62 1.92 2.06 2.49 3.03 2.98 2.25 1.30 0.86 1.15 1.39 1.25 1.17 0.91 0.68 0.30 0.16 0.05 0.02 0.10 0.20 0.33 0.37 0.52 0.42 0.28 0.50 0.50 0.43 0.25 0.40 0.46 0.50 0.34 0.14 0.03 0.01 0.00 0.00 0.00 0.01 0.03 0.02 0.02 0.04 0.03 0.01 0.00 0.00 0.00
1.37 1.03 1.00 1.25 1.49 1.76 2.15 2.40 3.00 2.94 1.89 1.42 1.50 2.19 1.41 1.15 0.89 0.34 0.23 0.10 0.03 0.01 0.09 0.27 0.34 0.39 0.43 0.60 0.42 0.25 0.19 0.23 0.24 0.25 0.23 0.27 0.12 0.11 0.19 0.12 0.03 0.02 0.16 0.23 0.18 0.14 0.09 0.09 0.12 0.14 0.09 0.04 0.02 0.01
1.25 1.07 0.93 1.01 1.27 1.56 2.15 2.89 3.33 3.13 2.59 2.13 1.95 1.82 0.80 0.64 0.12 0.09 0.05 0.01 0.01 0.04 0.09 0.14 0.39 0.41 0.29 0.36 0.38 0.26 0.14 0.17 0.16 0.07 0.03 0.03 0.01 0.02 0.03 0.13 0.18 0.15 0.10 0.12 0.22 0.23 0.21 0.25 0.36 0.27 0.20 0.16 0.07 0.04
1.12 1.15 1.01 0.90 1.09 1.65 2.45 3.37 3.48 2.56 2.16 1.77 1.08 0.70 0.35 0.10 0.04 0.04 0.05 0.03 0.01 0.01 0.01 0.07 0.32 0.26 0.28 0.33 0.24 0.16 0.15 0.12 0.06 0.05 0.01 0.00 0.02 0.01 0.03 0.13 0.38 0.32 0.20 0.10 0.07 0.09 0.12 0.17 0.21 0.19 0.10 0.10 0.11 0.11
1.21 1.28 1.17 0.94 0.94 1.44 2.23 2.28 2.36 1.83 2.13 1.63 0.82 0.39 0.11 0.03 0.02 0.03 0.04 0.05 0.04 0.06 0.13 0.21 0.25 0.19 0.19 0.18 0.16 0.12 0.12 0.07 0.09 0.04 0.00 0.00 0.02 0.03 0.08 0.22 0.33 0.21 0.15 0.15 0.11 0.05 0.02 0.01 0.00 0.02 0.07 0.09 0.11 0.15
0.85 0.93 1.08 0.85 0.94 1.36 1.66 1.97 1.80 1.89 2.09 1.54 0.47 0.06 0.03 0.03 0.02 0.04 0.05 0.06 0.08 0.13 0.24 0.41 0.39 0.19 0.15 0.14 0.04 0.03 0.06 0.06 0.04 0.02 0.00 0.00 0.00 0.02 0.08 0.19 0.30 0.17 0.18 0.23 0.18 0.05 0.00 0.00 0.00 0.00 0.00 0.00 0.00 0.01
0.57 0.68 0.81 0.71 0.68 0.91 1.35 1.62 2.00 1.93 1.57 0.75 0.13 0.03 0.01 0.01 0.04 0.04 0.06 0.14 0.23 0.31 0.32 0.58 0.26 0.16 0.08 0.07 0.03 0.03 0.02 0.01 0.01 0.00 0.00 0.00 0.00 0.00 0.02 0.11 0.20 0.21 0.21 0.16 0.09 0.02 0.00 0.00 0.00 0.00 0.00 0.00 0.00 0.00
0.58 0.61 0.62 0.54 0.44 0.67 1.12 1.36 1.42 1.19 0.70 0.28 0.07 0.04 0.03 0.02 0.01 0.03 0.04 0.10 0.23 0.35 0.53 0.57 0.38 0.14 0.01 0.02 0.04 0.03 0.01 0.01 0.01 0.00 0.00 0.00 0.00 0.00 0.00 0.00 0.01 0.03 0.06 0.07 0.07 0.05 0.03 0.01 0.00 0.00 0.00 0.00 0.00 0.00
0.83 1.02 0.88 0.50 0.36 0.52 0.68 0.94 0.86 0.69 0.45 0.30 0.18 0.12 0.09 0.06 0.06 0.05 0.04 0.07 0.13 0.29 0.46 0.36 0.11 0.03 0.02 0.03 0.02 0.02 0.00 0.00 0.00 0.00 0.00 0.00 0.00 0.00 0.00 0.00 0.00 0.00 0.00 0.00 0.00 0.00 0.00 0.00 0.00 0.00 0.00 0.00 0.00 0.00
0.77 0.96 0.82 0.44 0.48 0.46 0.51 0.45 0.64 0.58 0.47 0.44 0.55 0.39 0.33 0.26 0.21 0.24 0.37 0.35 0.52 0.58 0.28 0.11 0.04 0.02 0.03 0.05 0.06 0.03 0.01 0.01 0.00 0.00 0.00 0.00 0.00 0.00 0.00 0.00 0.00 0.00 0.00 0.00 0.00 0.00 0.00 0.00 0.00 0.00 0.00 0.00 0.00 0.00
0.46 0.54 0.49 0.62 0.68 0.42 0.32 0.37 0.46 0.47 0.37 0.49 0.67 0.63 0.59 0.56 0.58 0.60 0.65 0.86 0.84 0.38 0.13 0.06 0.09 0.07 0.04 0.04 0.06 0.06 0.05 0.03 0.01 0.00 0.00 0.00 0.00 0.00 0.00 0.00 0.00 0.00 0.00 0.00 0.00 0.00 0.00 0.00 0.00 0.00 0.00 0.00 0.00 0.00
0.34 0.31 0.44 0.53 0.41 0.24 0.33 0.29 0.29 0.36 0.37 0.48 0.56 0.57 0.68 0.66 0.76 0.89 1.02 0.79 0.45 0.26 0.18 0.16 0.14 0.14 0.12 0.08 0.06 0.04 0.05 0.06 0.04 0.02 0.01 0.00 0.00 0.00 0.00 0.00 0.00 0.00 0.00 0.00 0.00 0.00 0.00 0.00 0.00 0.00 0.00 0.00 0.00 0.00
0.21 0.38 0.33 0.28 0.22 0.25 0.21 0.24 0.18 0.23 0.28 0.31 0.39 0.41 0.42 0.58 0.70 0.71 0.56 0.28 0.25 0.27 0.25 0.25 0.20 0.13 0.12 0.14 0.16 0.13 0.09 0.07 0.05 0.06 0.08 0.07 0.04 0.02 0.01 0.01 0.00 0.00 0.00 0.00 0.00 0.00 0.00 0.00 0.00 0.00 0.00 0.00 0.00 0.00
0.47 0.39 0.21 0.15 0.07 0.04 0.06 0.13 0.14 0.13 0.19 0.27 0.33 0.36 0.38 0.46 0.56 0.44 0.26 0.20 0.33 0.40 0.34 0.26 0.19 0.16 0.14 0.12 0.12 0.15 0.16 0.16 0.13 0.09 0.10 0.13 0.11 0.10 0.10 0.06 0.03 0.01 0.00 0.00 0.00 0.00 0.00 0.00 0.00 0.00 0.00 0.00 0.01 0.03
0.25 0.10 0.05 0.03 0.02 0.00 0.01 0.06 0.12 0.17 0.20 0.25 0.28 0.29 0.33 0.36 0.32 0.31 0.18 0.21 0.34 0.45 0.47 0.37 0.27 0.20 0.17 0.17 0.18 0.22 0.21 0.20 0.18 0.15 0.21 0.27 0.20 0.15 0.11 0.10 0.09 0.07 0.04 0.03 0.04 0.03 0.04 0.04 0.03 0.04 0.03 0.03 0.07 0.17
0.08 0.04 0.02 0.00 0.00 0.00 0.00 0.00 0.01 0.04 0.10 0.14 0.16 0.18 0.20 0.22 0.25 0.14 0.13 0.22 0.33 0.40 0.45 0.47 0.38 0.26 0.22 0.22 0.23 0.25 0.28 0.32 0.28 0.21 0.24 0.33 0.34 0.29 0.20 0.14 0.08 0.06 0.10 0.15 0.13 0.11 0.10 0.11 0.11 0.12 0.15 0.17 0.17 0.18
0.02 0.00 0.00 0.01 0.01 0.01 0.01 0.01 0.00 0.00 0.00 0.03 0.10 0.09 0.10 0.11 0.08 0.08 0.13 0.22 0.33 0.38 0.44 0.48 0.46 0.34 0.29 0.27 0.28 0.30 0.34 0.38 0.39 0.33 0.31 0.35 0.39 0.40 0.38 0.31 0.29 0.29 0.27 0.24 0.26 0.27 0.25 0.23 0.23 0.23 0.25 0.24 0.20 0.21
0.02 0.00 0.00 0.01 0.02 0.01 0.00 0.00 0.00 0.00 0.00 0.00 0.01 0.03 0.03 0.03 0.06 0.09 0.14 0.21 0.30 0.36 0.39 0.42 0.45 0.43 0.39 0.37 0.36 0.37 0.38 0.37 0.32 0.27 0.20 0.20 0.25 0.34 0.42 0.44 0.46 0.48 0.43 0.36 0.35 0.32 0.27 0.26 0.28 0.29 0.30 0.30 0.27 0.27
0.02 0.00 0.00 0.01 0.01 0.00 0.00 0.01 0.01 0.01 0.00 0.00 0.00 0.00 0.01 0.03 0.06 0.09 0.14 0.19 0.26 0.32 0.37 0.42 0.44 0.44 0.42 0.40 0.41 0.42 0.43 0.43 0.41 0.31 0.24 0.21 0.23 0.31 0.40 0.44 0.46 0.47 0.47 0.43 0.41 0.45 0.44 0.44 0.43 0.42 0.38 0.36 0.33 0.31
0.02 0.01 0.00 0.00 0.00 0.01 0.02 0.03 0.02 0.01 0.00 0.00 0.00 0.00 0.01 0.02 0.04 0.07 0.11 0.16 0.22 0.28 0.33 0.36 0.39 0.43 0.42 0.44 0.43 0.42 0.40 0.41 0.42 0.43 0.39 0.38 0.40 0.40 0.43 0.46 0.46 0.46 0.48 0.46 0.42 0.36 0.33 0.29 0.24 0.21 0.24 0.26 0.26 0.25
0.05 0.03 0.01 0.01 0.01 0.02 0.03 0.02 0.02 0.01 0.02 0.01 0.01 0.01 0.01 0.02 0.03 0.04 0.07 0.10 0.15 0.20 0.26 0.29 0.29 0.31 0.33 0.34 0.36 0.39 0.40 0.39 0.38 0.39 0.39 0.37 0.36 0.38 0.41 0.43 0.45 0.45 0.47 0.48 0.45 0.41 0.38 0.37 0.39 0.38 0.36 0.37 0.36 0.32
0.09 0.09 0.07 0.04 0.02 0.02 0.02 0.02 0.02 0.01 0.01 0.01 0.01 0.02 0.02 0.02 0.03 0.03 0.03 0.07 0.10 0.15 0.19 0.23 0.26 0.28 0.30 0.31 0.34 0.36 0.39 0.44 0.47 0.50 0.54 0.52 0.47 0.43 0.42 0.43 0.42 0.43 0.42 0.43 0.46 0.48 0.51 0.50 0.47 0.44 0.42 0.41 0.40 0.39

GFSWCAN_prec_precacc_090.txt.gz
Total_Precipitation_Accumulation
1.07 1.23 1.44 1.45 1.21 1.12 1.15 1.07 0.81 0.51 0.32 0.22 0.20 0.25 0.28 0.27 0.51 0.40 0.35 0.38 0.33 0.20 0.08 0.02 0.02 0.04 0.18 0.42 0.61 0.56 0.71 0.50 0.53 0.80 0.74 0.42 0.14 0.06 0.04 0.08 0.04 0.10 0.21 0.23 0.21 0.26 0.04 0.00 0.00 0.01 0.01 0.00 0.00 0.05
1.21 1.21 1.32 1.37 1.35 1.48 1.25 0.82 0.68 0.48 0.30 0.24 0.18 0.21 0.25 0.22 0.42 0.51 0.34 0.33 0.34 0.27 0.11 0.03 0.01 0.01 0.05 0.27 0.60 0.60 0.59 0.42 0.52 0.54 0.47 0.38 0.30 0.24 0.10 0.08 0.02 0.03 0.03 0.07 0.05 0.04 0.00 0.00 0.00 0.00 0.00 0.00 0.00 0.00
1.19 1.33 1.30 1.25 1.17 1.20 1.61 1.05 0.69 0.45 0.30 0.25 0.21 0.19 0.21 0.22 0.31 0.50 0.32 0.27 0.33 0.31 0.11 0.03 0.02 0.03 0.00 0.08 0.45 0.77 0.49 0.50 0.50 0.47 0.47 0.27 0.25 0.20 0.13 0.12 0.06 0.07 0.03 0.01 0.00 0.01 0.00 0.00 0.00 0.00 0.00 0.00 0.00 0.00
1.05 1.26 1.27 1.16 1.19 1.01 1.21 1.23 0.74 0.43 0.24 0.21 0.23 0.20 0.17 0.22 0.31 0.42 0.29 0.20 0.36 0.45 0.31 0.11 0.03 0.06 0.05 0.06 0.35 0.69 0.69 0.56 0.58 0.52 0.58 0.43 0.21 0.15 0.09 0.04 0.04 0.03 0.02 0.02 0.00 0.00 0.00 0.00 0.00 0.00 0.00 0.00 0.00 0.00
1.04 1.12 1.24 1.24 1.15 1.21 0.99 1.01 0.68 0.40 0.26 0.21 0.22 0.21 0.24 0.32 0.46 0.32 0.17 0.19 0.28 0.65 0.55 0.31 0.11 0.01 0.04 0.05 0.28 0.67 0.88 0.85 0.79 0.84 0.58 0.37 0.19 0.15 0.05 0.03 0.01 0.00 0.00 0.01 0.01 0.01 0.00 0.00 0.00 0.00 0.00 0.00 0.00 0.00
1.13 1.10 1.24 1.29 1.34 1.30 1.11 0.80 0.63 0.40 0.28 0.21 0.25 0.32 0.32 0.47 0.68 0.46 0.40 0.29 0.34 0.48 0.79 0.59 0.29 0.08 0.06 0.12 0.15 0.50 0.72 0.69 0.77 0.92 0.54 0.24 0.13 0.35 0.22 0.07 0.00 0.00 0.00 0.00 0.00 0.00 0.00 0.00 0.00 0.00 0.00 0.00 0.00 0.00
1.04 1.10 1.12 1.27 1.42 1.48 1.14 0.74 0.64 0.52 0.40 0.31 0.35 0.35 0.36 0.50 0.48 0.51 0.35 0.47 0.42 0.39 0.65 0.72 0.53 0.22 0.12 0.43 0.18 0.39 0.85 1.01 0.87 0.87 0.50 0.27 0.20 0.58 0.48 0.07 0.00 0.00 0.00 0.00 0.00 0.00 0.00 0.00 0.00 0.00 0.00 0.00 0.00 0.00
1.47 1.66 1.64 1.41 1.44 1.51 1.27 0.79 0.66 0.61 0.55 0.41 0.42 0.45 0.48 0.60 0.52 0.41 0.16 0.26 0.38 0.58 0.56 0.59 0.54 0.49 0.38 0.69 0.46 0.52 0.99 1.21 1.13 0.80 0.43 0.24 0.25 0.40 0.27 0.01 0.00 0.00 0.01 0.00 0.00 0.00 0.00 0.00 0.00 0.00 0.00 0.00 0.00 0.01
1.51 1.65 1.86 2.06 2.03 1.64 1.36 1.01 0.75 0.69 0.69 0.68 0.65 0.69 0.67 0.50 0.31 0.28 0.54 0.53 0.38 0.85 0.88 0.44 0.36 0.62 0.42 0.72 0.60 0.56 0.82 1.15 0.94 0.78 0.42 0.57 0.46 0.36 0.06 0.01 0.01 0.01 0.01 0.01 0.00 0.00 0.00 0.01 0.00 0.00 0.00 0.00 0.00 0.00
1.44 1.54 1.60 1.85 2.18 2.12 1.89 1.48 1.16 0.96 0.92 1.05 0.89 0.85 0.70 0.47 0.53 0.80 1.18 0.99 0.97 0.75 0.60 0.39 0.28 0.35 0.40 0.47 0.64 0.50 0.65 0.82 0.71 0.51 0.59 0.54 0.28 0.13 0.05 0.06 0.03 0.00 0.00 0.00 0.00 0.01 0.01 0.01 0.00 0.00 0.00 0.00 0.00 0.00
1.40 1.53 1.67 1.84 1.94 2.02 2.27 2.16 1.94 1.59 1.47 1.35 1.26 0.85 0.87 1.05 1.09 1.02 1.05 0.66 0.72 0.37 0.15 0.09 0.18 0.29 0.34 0.53 0.67 0.50 0.84 0.52 0.84 0.46 0.53 0.60 0.44 0.28 0.08 0.04 0.00 0.00 0.00 0.00 0.00 0.00 0.00 0.00 0.01 0.01 0.00 0.00 0.00 0.00
1.41 1.32 1.57 1.89 1.85 2.14 2.23 2.58 3.09 3.04 2.27 1.30 0.87 1.15 1.39 1.25 1.17 0.92 0.68 0.30 0.16 0.05 0.02 0.10 0.20 0.33 0.37 0.52 0.42 0.28 0.50 0.50 0.43 0.26 0.40 0.46 0.50 0.34 0.14 0.03 0.01 0.00 0.00 0.00 0.01 0.03 0.02 0.02 0.05 0.07 0.07 0.05 0.02 0.01
1.46 1.24 1.30 1.48 1.71 1.94 2.22 2.45 3.03 2.95 1.89 1.44 1.51 2.19 1.41 1.15 0.89 0.34 0.23 0.10 0.03 0.01 0.09 0.27 0.34 0.39 0.43 0.60 0.42 0.25 0.19 0.23 0.25 0.25 0.23 0.27 0.12 0.11 0.19 0.12 0.03 0.02 0.16 0.23 0.19 0.15 0.10 0.12 0.18 0.21 0.21 0.20 0.13 0.06
1.42 1.31 1.18 1.22 1.46 1.65 2.26 2.97 3.34 3.13 2.60 2.14 1.95 1.82 0.80 0.64 0.12 0.09 0.05 0.01 0.01 0.04 0.09 0.14 0.39 0.41 0.29 0.37 0.38 0.26 0.14 0.18 0.17 0.07 0.03 0.03 0.01 0.02 0.03 0.13 0.18 0.15 0.10 0.13 0.22 0.26 0.27 0.29 0.39 0.30 0.22 0.17 0.08 0.04
1.34 1.40 1.24 1.11 1.23 1.77 2.54 3.38 3.48 2.56 2.17 1.78 1.08 0.70 0.35 0.10 0.06 0.04 0.05 0.03 0.01 0.01 0.01 0.07 0.32 0.26 0.28 0.33 0.24 0.17 0.15 0.13 0.07 0.05 0.01 0.00 0.02 0.01 0.03 0.13 0.38 0.32 0.21 0.11 0.07 0.10 0.14 0.18 0.21 0.19 0.10 0.10 0.11 0.11
1.54 1.58 1.43 1.13 1.05 1.54 2.29 2.30 2.36 1.84 2.14 1.63 0.82 0.39 0.12 0.04 0.03 0.04 0.04 0.05 0.04 0.06 0.13 0.21 0.25 0.19 0.19 0.18 0.16 0.12 0.12 0.07 0.09 0.04 0.00 0.00 0.02 0.03 0.08 0.22 0.33 0.21 0.15 0.16 0.12 0.05 0.02 0.01 0.00 0.02 0.07 0.09 0.11 0.15
1.23 1.41 1.46 1.09 1.10 1.44 1.71 1.99 1.81 1.92 2.13 1.55 0.48 0.07 0.04 0.03 0.02 0.04 0.05 0.06 0.08 0.13 0.24 0.41 0.39 0.19 0.16 0.14 0.04 0.03 0.06 0.06 0.04 0.02 0.00 0.00 0.00 0.02 0.08 0.19 0.30 0.18 0.19 0.25 0.21 0.09 0.03 0.01 0.00 0.00 0.00 0.00 0.00 0.01
0.95 1.07 1.10 0.93 0.82 0.97 1.39 1.66 2.04 2.00 1.63 0.77 0.15 0.07 0.02 0.02 0.04 0.04 0.06 0.14 0.23 0.31 0.32 0.58 0.26 0.16 0.08 0.07 0.03 0.03 0.02 0.01 0.01 0.00 0.00 0.00 0.00 0.00 0.02 0.11 0.20 0.22 0.21 0.17 0.11 0.05 0.03 0.01 0.00 0.00 0.00 0.00 0.00 0.00
0.81 0.84 0.80 0.66 0.48 0.69 1.19 1.45 1.49 1.24 0.74 0.31 0.11 0.06 0.03 0.02 0.01 0.03 0.04 0.10 0.23 0.35 0.53 0.57 0.38 0.14 0.01 0.02 0.04 0.03 0.01 0.01 0.01 0.00 0.00 0.00 0.00 0.00 0.00 0.00 0.01 0.03 0.06 0.08 0.09 0.08 0.06 0.05 0.03 0.01 0.00 0.00 0.00 0.00
1.05 1.22 1.01 0.56 0.39 0.59 0.78 1.06 0.91 0.72 0.48 0.33 0.19 0.13 0.09 0.06 0.06 0.05 0.04 0.07 0.13 0.29 0.46 0.36 0.11 0.03 0.02 0.03 0.02 0.02 0.00 0.00 0.00 0.00 0.00 0.00 0.00 0.00 0.00 0.00 0.00 0.00 0.00 0.00 0.00 0.01 0.01 0.01 0.01 0.01 0.00 0.00 0.00 0.00
0.98 1.13 0.93 0.54 0.60 0.53 0.56 0.50 0.67 0.59 0.48 0.45 0.55 0.39 0.33 0.26 0.21 0.24 0.38 0.35 0.52 0.58 0.28 0.11 0.04 0.02 0.03 0.05 0.06 0.03 0.01 0.01 0.00 0.00 0.00 0.00 0.00 0.00 0.00 0.00 0.00 0.00 0.00 0.00 0.00 0.00 0.00 0.00 0.00 0.00 0.00 0.00 0.00 0.00
0.66 0.68 0.61 0.71 0.75 0.47 0.35 0.39 0.47 0.47 0.38 0.50 0.67 0.63 0.60 0.56 0.58 0.60 0.65 0.87 0.85 0.38 0.13 0.06 0.09 0.07 0.04 0.04 0.06 0.06 0.05 0.03 0.01 0.00 0.00 0.00 0.00 0.00 0.00 0.00 0.00 0.00 0.00 0.00 0.00 0.00 0.00 0.00 0.00 0.00 0.00 0.00 0.00 0.00
0.43 0.37 0.49 0.56 0.43 0.25 0.35 0.30 0.29 0.36 0.37 0.48 0.56 0.57 0.68 0.66 0.76 0.89 1.02 0.79 0.45 0.26 0.18 0.16 0.14 0.14 0.12 0.08 0.06 0.04 0.05 0.06 0.04 0.02 0.01 0.00 0.00 0.00 0.00 0.00 0.00 0.00 0.00 0.00 0.00 0.00 0.00 0.00 0.00 0.00 0.00 0.00 0.00 0.00
0.23 0.40 0.35 0.29 0.22 0.25 0.22 0.24 0.18 0.23 0.28 0.31 0.39 0.41 0.42 0.59 0.70 0.71 0.56 0.28 0.25 0.27 0.25 0.25 0.20 0.13 0.12 0.14 0.16 0.13 0.09 0.07 0.05 0.06 0.08 0.07 0.04 0.02 0.01 0.01 0.00 0.00 0.00 0.00 0.00 0.00 0.00 0.00 0.00 0.00 0.00 0.00 0.00 0.00
0.48 0.42 0.22 0.16 0.07 0.04 0.06 0.13 0.14 0.13 0.19 0.27 0.33 0.36 0.38 0.46 0.56 0.44 0.26 0.20 0.33 0.40 0.34 0.26 0.19 0.16 0.14 0.12 0.12 0.15 0.16 0.16 0.13 0.09 0.10 0.13 0.11 0.10 0.10 0.06 0.03 0.01 0.00 0.00 0.00 0.00 0.00 0.00 0.00 0.00 0.00 0.00 0.01 0.03
0.27 0.11 0.05 0.03 0.02 0.00 0.01 0.06 0.12 0.17 0.20 0.25 0.28 0.29 0.34 0.36 0.32 0.31 0.18 0.21 0.34 0.45 0.47 0.37 0.27 0.20 0.17 0.17 0.18 0.22 0.21 0.20 0.18 0.15 0.21 0.27 0.20 0.15 0.11 0.10 0.09 0.07 0.04 0.03 0.04 0.03 0.04 0.04 0.03 0.04 0.03 0.03 0.07 0.17
0.08 0.04 0.02 0.00 0.00 0.00 0.00 0.00 0.01 0.04 0.10 0.14 0.16 0.18 0.20 0.22 0.25 0.14 0.13 0.22 0.33 0.40 0.45 0.47 0.38 0.26 0.22 0.22 0.23 0.25 0.28 0.32 0.28 0.21 0.24 0.33 0.34 0.29 0.20 0.14 0.08 0.06 0.10 0.15 0.13 0.11 0.10 0.11 0.11 0.12 0.15 0.17 0.17 0.18
0.02 0.00 0.00 0.01 0.01 0.01 0.01 0.01 0.00 0.00 0.00 0.03 0.10 0.09 0.10 0.11 0.08 0.08 0.13 0.22 0.33 0.38 0.44 0.48 0.46 0.34 0.29 0.27 0.28 0.30 0.34 0.38 0.39 0.33 0.31 0.35 0.39 0.40 0.38 0.31 0.29 0.29 0.27 0.24 0.26 0.27 0.25 0.23 0.23 0.23 0.25 0.24 0.20 0.21
0.02 0.00 0.00 0.01 0.02 0.01 0.00 0.00 0.00 0.00 0.00 0.00 0.01 0.03 0.03 0.03 0.06 0.09 0.14 0.21 0.30 0.36 0.39 0.42 0.45 0.43 0.39 0.37 0.36 0.37 0.38 0.37 0.32 0.27 0.20 0.20 0.25 0.34 0.42 0.44 0.46 0.48 0.43 0.36 0.35 0.32 0.27 0.26 0.28 0.29 0.30 0.30 0.27 0.27
0.02 0.00 0.00 0.01 0.01 0.00 0.00 0.01 0.01 0.01 0.00 0.00 0.00 0.00 0.01 0.03 0.06 0.09 0.14 0.19 0.26 0.32 0.37 0.42 0.44 0.44 0.42 0.40 0.41 0.42 0.43 0.43 0.41 0.31 0.24 0.21 0.23 0.31 0.40 0.44 0.46 0.47 0.47 0.43 0.41 0.45 0.44 0.44 0.43 0.42 0.38 0.36 0.33 0.31
0.02 0.01 0.00 0.00 0.00 0.01 0.02 0.03 0.02 0.01 0.00 0.00 0.00 0.00 0.01 0.02 0.04 0.07 0.11 0.16 0.22 0.28 0.33 0.36 0.39 0.43 0.42 0.44 0.43 0.42 0.40 0.41 0.42 0.43 0.39 0.38 0.40 0.40 0.43 0.46 0.46 0.46 0.48 0.46 0.42 0.37 0.33 0.30 0.24 0.21 0.24 0.26 0.26 0.25
0.05 0.03 0.01 0.01 0.01 0.03 0.03 0.02 0.02 0.01 0.02 0.01 0.01 0.01 0.01 0.02 0.03 0.04 0.07 0.10 0.15 0.20 0.26 0.29 0.29 0.31 0.33 0.34 0.36 0.39 0.40 0.39 0.38 0.39 0.39 0.37 0.37 0.38 0.41 0.43 0.45 0.45 0.47 0.49 0.45 0.41 0.38 0.38 0.40 0.38 0.36 0.37 0.36 0.32
0.09 0.09 0.07 0.04 0.02 0.02 0.02 0.02 0.02 0.01 0.01 0.01 0.01 0.02 0.02 0.02 0.03 0.03 0.03 0.07 0.10 0.15 0.19 0.23 0.26 0.28 0.30 0.31 0.34 0.36 0.39 0.44 0.47 0.51 0.54 0.52 0.47 0.43 0.42 0.43 0.43 0.43 0.43 0.44 0.46 0.48 0.52 0.50 0.47 0.44 0.43 0.42 0.40 0.39

GFSWCAN_prec_precacc_093.txt.gz
Total_Precipitation_Accumulation
1.07 1.24 1.44 1.45 1.22 1.13 1.22 1.23 1.10 0.65 0.58 0.64 0.46 0.30 0.28 0.27 0.51 0.40 0.35 0.38 0.33 0.20 0.08 0.02 0.02 0.04 0.18 0.42 0.61 0.56 0.71 0.50 0.53 0.80 0.74 0.42 0.14 0.06 0.04 0.08 0.04 0.10 0.21 0.24 0.22 0.27 0.04 0.00 0.00 0.01 0.01 0.00 0.00 0.05
1.22 1.22 1.32 1.38 1.35 1.49 1.29 0.91 0.89 0.82 0.55 0.43 0.33 0.23 0.25 0.22 0.42 0.51 0.34 0.33 0.34 0.27 0.11 0.03 0.01 0.01 0.05 0.27 0.60 0.60 0.59 0.42 0.52 0.54 0.47 0.38 0.30 0.24 0.10 0.08 0.02 0.03 0.03 0.08 0.07 0.05 0.01 0.00 0.00 0.00 0.00 0.00 0.00 0.01
1.19 1.33 1.30 1.25 1.17 1.22 1.66 1.17 0.90 0.75 0.55 0.40 0.28 0.21 0.21 0.22 0.31 0.50 0.32 0.27 0.33 0.31 0.11 0.03 0.02 0.03 0.00 0.08 0.45 0.77 0.49 0.50 0.50 0.47 0.47 0.27 0.25 0.20 0.13 0.12 0.06 0.07 0.03 0.01 0.00 0.01 0.04 0.11 0.02 0.00 0.00 0.00 0.00 0.00
1.06 1.27 1.28 1.16 1.19 1.03 1.32 1.67 1.11 0.75 0.44 0.32 0.29 0.22 0.18 0.22 0.31 0.42 0.29 0.20 0.36 0.45 0.31 0.11 0.03 0.06 0.05 0.06 0.35 0.69 0.69 0.56 0.58 0.52 0.58 0.43 0.21 0.15 0.09 0.04 0.04 0.03 0.02 0.02 0.00 0.00 0.00 0.00 0.00 0.00 0.00 0.00 0.00 0.00
1.05 1.12 1.25 1.24 1.15 1.24 1.11 1.31 1.26 0.78 0.46 0.31 0.27 0.23 0.25 0.32 0.46 0.32 0.17 0.19 0.28 0.65 0.55 0.31 0.11 0.01 0.04 0.05 0.28 0.67 0.88 0.85 0.79 0.84 0.58 0.37 0.19 0.15 0.05 0.03 0.01 0.00 0.00 0.01 0.01 0.01 0.00 0.00 0.00 0.00 0.00 0.00 0.00 0.00
1.13 1.10 1.24 1.29 1.34 1.34 1.25 0.97 0.90 0.72 0.46 0.31 0.29 0.33 0.32 0.47 0.68 0.46 0.40 0.29 0.34 0.48 0.79 0.59 0.29 0.08 0.06 0.12 0.15 0.50 0.72 0.69 0.77 0.92 0.54 0.24 0.13 0.35 0.22 0.07 0.00 0.00 0.00 0.00 0.00 0.00 0.00 0.00 0.00 0.00 0.00 0.00 0.00 0.00
1.05 1.10 1.12 1.27 1.43 1.53 1.31 0.97 0.79 0.70 0.55 0.41 0.38 0.35 0.36 0.50 0.48 0.51 0.35 0.47 0.42 0.39 0.65 0.72 0.53 0.22 0.12 0.43 0.18 0.39 0.85 1.01 0.87 0.87 0.50 0.27 0.20 0.58 0.48 0.07 0.00 0.00 0.00 0.00 0.00 0.00 0.00 0.00 0.00 0.00 0.01 0.01 0.00 0.01
1.47 1.66 1.64 1.42 1.47 1.63 1.48 1.06 0.89 0.74 0.69 0.48 0.45 0.46 0.48 0.60 0.52 0.41 0.16 0.26 0.38 0.58 0.56 0.59 0.54 0.49 0.38 0.69 0.46 0.52 0.99 1.21 1.13 0.80 0.44 0.24 0.25 0.40 0.27 0.01 0.00 0.00 0.01 0.00 0.00 0.00 0.00 0.00 0.00 0.00 0.01 0.02 0.00 0.01
1.51 1.65 1.86 2.07 2.08 1.86 1.56 1.31 1.02 0.80 0.81 0.72 0.68 0.70 0.67 0.50 0.31 0.28 0.54 0.53 0.38 0.85 0.88 0.44 0.36 0.62 0.42 0.72 0.60 0.56 0.82 1.15 0.94 0.78 0.43 0.57 0.46 0.36 0.06 0.01 0.01 0.02 0.02 0.01 0.00 0.00 0.00 0.01 0.00 0.00 0.01 0.03 0.02 0.00
1.44 1.54 1.60 1.87 2.30 2.43 2.11 1.74 1.36 1.03 1.00 1.11 0.94 0.89 0.72 0.47 0.53 0.80 1.18 0.99 0.97 0.75 0.60 0.39 0.28 0.35 0.40 0.47 0.65 0.50 0.66 0.82 0.72 0.52 0.59 0.54 0.28 0.13 0.05 0.06 0.03 0.00 0.01 0.00 0.00 0.01 0.01 0.01 0.00 0.00 0.00 0.00 0.01 0.01
1.40 1.53 1.68 1.91 2.18 2.29 2.48 2.35 2.06 1.65 1.57 1.50 1.40 0.90 0.88 1.05 1.09 1.02 1.05 0.66 0.72 0.37 0.15 0.09 0.18 0.29 0.34 0.53 0.67 0.50 0.84 0.52 0.84 0.47 0.53 0.60 0.44 0.28 0.08 0.04 0.00 0.00 0.01 0.00 0.00 0.00 0.00 0.00 0.01 0.01 0.01 0.01 0.01 0.00
1.41 1.34 1.62 2.06 2.10 2.34 2.37 2.71 3.16 3.10 2.35 1.38 0.89 1.17 1.40 1.25 1.17 0.92 0.68 0.30 0.16 0.05 0.02 0.10 0.20 0.33 0.37 0.52 0.42 0.28 0.51 0.51 0.43 0.26 0.41 0.46 0.50 0.34 0.14 0.03 0.01 0.00 0.01 0.01 0.01 0.03 0.02 0.03 0.06 0.08 0.08 0.07 0.05 0.04
1.47 1.28 1.44 1.72 1.88 2.08 2.32 2.51 3.06 2.95 1.90 1.47 1.58 2.22 1.42 1.15 0.89 0.34 0.23 0.10 0.03 0.01 0.09 0.27 0.34 0.39 0.43 0.60 0.42 0.25 0.19 0.24 0.25 0.26 0.23 0.27 0.12 0.11 0.19 0.12 0.03 0.02 0.16 0.23 0.19 0.15 0.10 0.12 0.19 0.23 0.22 0.24 0.24 0.23
1.46 1.42 1.45 1.40 1.61 1.77 2.34 3.03 3.35 3.14 2.64 2.21 1.97 1.83 0.80 0.64 0.12 0.09 0.05 0.01 0.01 0.04 0.09 0.14 0.39 0.41 0.29 0.37 0.38 0.26 0.14 0.18 0.17 0.07 0.03 0.03 0.01 0.02 0.03 0.13 0.18 0.15 0.10 0.13 0.22 0.26 0.27 0.29 0.39 0.34 0.27 0.21 0.12 0.07
1.45 1.68 1.50 1.29 1.41 1.90 2.62 3.41 3.49 2.58 2.20 1.82 1.10 0.71 0.35 0.10 0.06 0.04 0.05 0.03 0.01 0.01 0.01 0.07 0.32 0.26 0.28 0.33 0.24 0.17 0.16 0.13 0.07 0.05 0.01 0.00 0.02 0.01 0.03 0.13 0.38 0.32 0.21 0.11 0.07 0.10 0.14 0.18 0.21 0.19 0.11 0.11 0.11 0.11
1.85 2.01 1.73 1.39 1.24 1.65 2.35 2.35 2.43 1.91 2.22 1.68 0.85 0.40 0.12 0.04 0.06 0.05 0.04 0.05 0.04 0.06 0.13 0.21 0.25 0.19 0.19 0.18 0.16 0.12 0.12 0.07 0.09 0.04 0.00 0.00 0.02 0.03 0.08 0.22 0.33 0.21 0.15 0.16 0.12 0.05 0.02 0.01 0.00 0.02 0.07 0.09 0.11 0.15
1.76 1.93 1.82 1.29 1.25 1.56 1.78 2.09 1.92 2.03 2.23 1.60 0.49 0.07 0.06 0.07 0.05 0.04 0.05 0.06 0.08 0.13 0.24 0.41 0.39 0.19 0.16 0.14 0.04 0.03 0.06 0.06 0.04 0.02 0.00 0.00 0.00 0.02 0.08 0.19 0.30 0.18 0.19 0.25 0.21 0.09 0.03 0.01 0.00 0.00 0.00 0.00 0.00 0.01
1.35 1.44 1.30 1.10 1.00 1.15 1.56 1.78 2.12 2.06 1.67 0.78 0.16 0.13 0.09 0.05 0.05 0.04 0.06 0.14 0.23 0.31 0.32 0.58 0.26 0.16 0.08 0.07 0.03 0.03 0.02 0.01 0.01 0.00 0.00 0.00 0.00 0.00 0.02 0.11 0.20 0.22 0.21 0.17 0.12 0.06 0.03 0.02 0.01 0.00 0.00 0.00 0.00 0.00
1.01 0.99 0.92 0.76 0.57 0.78 1.30 1.55 1.52 1.25 0.75 0.34 0.20 0.16 0.06 0.03 0.01 0.03 0.04 0.10 0.23 0.35 0.53 0.57 0.38 0.14 0.01 0.02 0.04 0.03 0.01 0.01 0.01 0.00 0.00 0.00 0.00 0.00 0.00 0.00 0.01 0.03 0.06 0.08 0.09 0.08 0.06 0.05 0.03 0.02 0.02 0.01 0.00 0.00
1.27 1.43 1.19 0.71 0.48 0.64 0.80 1.11 0.94 0.73 0.52 0.42 0.30 0.19 0.10 0.06 0.06 0.05 0.04 0.07 0.13 0.29 0.46 0.36 0.11 0.03 0.02 0.03 0.02 0.02 0.00 0.00 0.00 0.00 0.00 0.00 0.00 0.00 0.00 0.00 0.00 0.00 0.00 0.00 0.00 0.01 0.01 0.01 0.01 0.01 0.00 0.00 0.00 0.00
1.31 1.45 1.17 0.69 0.70 0.56 0.61 0.55 0.72 0.66 0.55 0.52 0.61 0.40 0.34 0.26 0.21 0.24 0.38 0.35 0.52 0.58 0.28 0.11 0.04 0.02 0.03 0.05 0.06 0.03 0.01 0.01 0.00 0.00 0.00 0.00 0.00 0.00 0.00 0.00 0.00 0.00 0.00 0.00 0.00 0.00 0.00 0.00 0.00 0.00 0.00 0.00 0.00 0.00
1.01 0.90 0.76 0.81 0.84 0.58 0.46 0.47 0.53 0.52 0.42 0.54 0.69 0.64 0.60 0.57 0.59 0.61 0.65 0.87 0.85 0.38 0.13 0.06 0.09 0.07 0.04 0.04 0.06 0.06 0.05 0.03 0.01 0.00 0.00 0.00 0.00 0.00 0.00 0.00 0.00 0.00 0.00 0.00 0.00 0.00 0.00 0.00 0.00 0.00 0.00 0.00 0.00 0.00
0.59 0.51 0.65 0.73 0.58 0.37 0.47 0.35 0.33 0.39 0.38 0.50 0.57 0.57 0.68 0.67 0.77 0.89 1.02 0.79 0.45 0.26 0.18 0.16 0.14 0.14 0.12 0.08 0.06 0.04 0.05 0.06 0.04 0.02 0.01 0.00 0.00 0.00 0.00 0.00 0.00 0.00 0.00 0.00 0.00 0.00 0.00 0.00 0.00 0.00 0.00 0.00 0.00 0.00
0.34 0.54 0.49 0.40 0.29 0.30 0.24 0.25 0.18 0.23 0.28 0.31 0.39 0.41 0.42 0.59 0.70 0.71 0.56 0.28 0.25 0.27 0.25 0.25 0.20 0.13 0.12 0.14 0.16 0.13 0.09 0.07 0.05 0.06 0.08 0.07 0.04 0.02 0.01 0.01 0.00 0.00 0.00 0.00 0.00 0.00 0.00 0.00 0.00 0.00 0.00 0.00 0.00 0.00
0.56 0.51 0.28 0.18 0.08 0.04 0.06 0.13 0.14 0.13 0.19 0.27 0.33 0.36 0.38 0.46 0.56 0.44 0.26 0.20 0.33 0.40 0.34 0.26 0.19 0.16 0.14 0.12 0.12 0.15 0.16 0.16 0.13 0.09 0.10 0.13 0.11 0.10 0.10 0.06 0.03 0.01 0.00 0.00 0.00 0.00 0.00 0.00 0.00 0.00 0.00 0.00 0.01 0.03
0.30 0.13 0.06 0.03 0.02 0.00 0.01 0.06 0.12 0.17 0.20 0.25 0.28 0.29 0.34 0.36 0.32 0.31 0.18 0.21 0.34 0.45 0.47 0.37 0.27 0.20 0.17 0.17 0.18 0.22 0.21 0.20 0.18 0.15 0.21 0.27 0.20 0.15 0.11 0.10 0.09 0.07 0.04 0.03 0.04 0.03 0.04 0.04 0.03 0.04 0.03 0.03 0.07 0.17
0.09 0.04 0.02 0.00 0.00 0.00 0.00 0.00 0.01 0.04 0.10 0.14 0.16 0.18 0.20 0.22 0.25 0.14 0.13 0.22 0.33 0.40 0.45 0.47 0.38 0.26 0.22 0.22 0.23 0.25 0.28 0.32 0.28 0.21 0.24 0.33 0.34 0.29 0.20 0.14 0.08 0.06 0.10 0.15 0.13 0.11 0.10 0.11 0.11 0.12 0.15 0.17 0.17 0.18
0.02 0.00 0.00 0.01 0.01 0.01 0.01 0.01 0.00 0.00 0.00 0.03 0.10 0.09 0.10 0.11 0.08 0.08 0.13 0.22 0.33 0.38 0.44 0.48 0.46 0.34 0.29 0.27 0.28 0.30 0.34 0.38 0.39 0.33 0.31 0.35 0.39 0.40 0.38 0.31 0.29 0.29 0.27 0.24 0.26 0.27 0.25 0.23 0.23 0.23 0.25 0.24 0.20 0.21
0.02 0.00 0.00 0.02 0.03 0.01 0.00 0.00 0.00 0.00 0.00 0.00 0.01 0.03 0.03 0.03 0.06 0.09 0.14 0.21 0.30 0.36 0.39 0.42 0.45 0.43 0.39 0.37 0.36 0.37 0.38 0.37 0.32 0.27 0.20 0.20 0.25 0.34 0.42 0.44 0.46 0.48 0.43 0.36 0.35 0.32 0.27 0.26 0.28 0.29 0.30 0.30 0.27 0.27
0.02 0.00 0.00 0.01 0.01 0.00 0.00 0.01 0.01 0.01 0.00 0.00 0.00 0.00 0.01 0.03 0.06 0.09 0.14 0.19 0.26 0.32 0.37 0.42 0.44 0.44 0.42 0.40 0.41 0.42 0.43 0.43 0.41 0.31 0.24 0.21 0.23 0.31 0.40 0.44 0.46 0.47 0.47 0.43 0.41 0.45 0.44 0.44 0.43 0.42 0.38 0.36 0.33 0.31
0.02 0.01 0.00 0.00 0.00 0.01 0.02 0.03 0.02 0.01 0.00 0.00 0.00 0.00 0.01 0.02 0.04 0.07 0.11 0.16 0.22 0.28 0.33 0.36 0.39 0.43 0.42 0.44 0.43 0.42 0.40 0.41 0.42 0.43 0.39 0.38 0.40 0.40 0.43 0.46 0.46 0.46 0.48 0.47 0.43 0.37 0.33 0.30 0.24 0.21 0.24 0.26 0.26 0.25
0.05 0.03 0.01 0.01 0.01 0.03 0.03 0.02 0.02 0.01 0.02 0.01 0.01 0.01 0.01 0.02 0.03 0.04 0.07 0.10 0.15 0.20 0.26 0.29 0.29 0.31 0.33 0.34 0.36 0.39 0.40 0.39 0.38 0.39 0.39 0.37 0.37 0.38 0.41 0.43 0.45 0.45 0.48 0.49 0.46 0.42 0.39 0.38 0.40 0.38 0.36 0.37 0.36 0.32
0.09 0.09 0.07 0.04 0.02 0.02 0.02 0.02 0.02 0.01 0.01 0.01 0.01 0.02 0.02 0.02 0.03 0.03 0.03 0.07 0.10 0.15 0.19 0.23 0.26 0.28 0.30 0.31 0.34 0.36 0.39 0.44 0.47 0.51 0.54 0.52 0.47 0.44 0.43 0.44 0.43 0.44 0.44 0.45 0.46 0.49 0.52 0.51 0.47 0.44 0.43 0.42 0.40 0.39

GFSWCAN_prec_precacc_096.txt.gz
Total_Precipitation_Accumulation
1.08 1.24 1.44 1.46 1.22 1.13 1.22 1.23 1.10 0.66 0.60 0.82 0.81 0.58 0.43 0.30 0.51 0.40 0.35 0.38 0.33 0.20 0.08 0.02 0.02 0.04 0.18 0.42 0.61 0.56 0.71 0.50 0.53 0.80 0.74 0.42 0.14 0.06 0.04 0.08 0.04 0.10 0.22 0.24 0.22 0.27 0.04 0.00 0.00 0.01 0.01 0.00 0.00 0.05
1.23 1.22 1.33 1.38 1.36 1.49 1.29 0.91 0.90 0.83 0.57 0.50 0.60 0.55 0.43 0.24 0.42 0.51 0.34 0.33 0.34 0.27 0.11 0.03 0.01 0.01 0.05 0.27 0.60 0.60 0.59 0.42 0.52 0.54 0.47 0.38 0.30 0.24 0.10 0.08 0.02 0.03 0.03 0.09 0.08 0.05 0.01 0.01 0.00 0.00 0.00 0.00 0.00 0.01
1.20 1.34 1.31 1.25 1.17 1.22 1.66 1.17 0.90 0.77 0.63 0.51 0.40 0.36 0.32 0.25 0.31 0.50 0.32 0.27 0.33 0.31 0.11 0.03 0.02 0.03 0.00 0.08 0.45 0.77 0.49 0.50 0.50 0.47 0.47 0.27 0.25 0.20 0.13 0.12 0.06 0.07 0.03 0.01 0.00 0.01 0.04 0.16 0.17 0.07 0.01 0.00 0.00 0.00
1.07 1.27 1.28 1.17 1.19 1.03 1.33 1.68 1.12 0.80 0.55 0.47 0.43 0.28 0.22 0.23 0.31 0.42 0.29 0.20 0.36 0.45 0.31 0.11 0.03 0.06 0.05 0.06 0.35 0.69 0.69 0.56 0.58 0.52 0.58 0.43 0.21 0.15 0.09 0.04 0.04 0.03 0.02 0.02 0.00 0.00 0.00 0.00 0.02 0.05 0.05 0.01 0.00 0.00
1.06 1.13 1.25 1.24 1.16 1.24 1.13 1.41 1.35 0.89 0.58 0.47 0.40 0.29 0.26 0.32 0.46 0.32 0.17 0.19 0.28 0.65 0.55 0.31 0.11 0.01 0.04 0.05 0.28 0.67 0.88 0.85 0.79 0.84 0.58 0.37 0.19 0.15 0.05 0.03 0.01 0.00 0.00 0.01 0.01 0.01 0.00 0.00 0.00 0.00 0.00 0.01 0.00 0.00
1.14 1.10 1.25 1.30 1.34 1.34 1.27 1.10 1.13 0.88 0.60 0.43 0.39 0.39 0.34 0.49 0.69 0.46 0.40 0.29 0.34 0.48 0.79 0.59 0.29 0.08 0.06 0.12 0.15 0.50 0.72 0.69 0.77 0.92 0.54 0.24 0.13 0.35 0.22 0.07 0.00 0.00 0.00 0.00 0.00 0.00 0.00 0.00 0.00 0.00 0.00 0.00 0.00 0.00
1.06 1.11 1.13 1.28 1.43 1.53 1.34 1.08 1.06 0.87 0.69 0.52 0.51 0.44 0.41 0.53 0.49 0.51 0.35 0.47 0.42 0.39 0.65 0.72 0.53 0.22 0.12 0.43 0.18 0.39 0.85 1.01 0.87 0.87 0.50 0.27 0.20 0.58 0.48 0.07 0.00 0.00 0.00 0.00 0.00 0.00 0.00 0.00 0.00 0.00 0.01 0.01 0.01 0.01
1.49 1.67 1.64 1.42 1.47 1.64 1.55 1.17 1.13 0.91 0.89 0.66 0.60 0.55 0.54 0.62 0.53 0.41 0.16 0.26 0.38 0.58 0.56 0.59 0.54 0.49 0.38 0.69 0.46 0.52 0.99 1.21 1.13 0.80 0.44 0.24 0.25 0.40 0.28 0.01 0.00 0.00 0.01 0.00 0.00 0.00 0.00 0.00 0.00 0.00 0.01 0.02 0.03 0.04
1.53 1.66 1.86 2.07 2.08 1.88 1.72 1.45 1.23 1.03 1.01 0.87 0.78 0.76 0.71 0.52 0.33 0.29 0.54 0.53 0.38 0.85 0.88 0.44 0.36 0.62 0.42 0.72 0.60 0.56 0.82 1.15 0.94 0.78 0.43 0.57 0.46 0.36 0.06 0.01 0.01 0.02 0.03 0.01 0.00 0.00 0.00 0.01 0.00 0.00 0.01 0.04 0.07 0.03
1.45 1.55 1.60 1.87 2.31 2.49 2.34 1.85 1.55 1.21 1.14 1.21 1.01 0.94 0.76 0.49 0.54 0.80 1.18 0.99 0.97 0.75 0.60 0.39 0.28 0.35 0.40 0.47 0.65 0.50 0.66 0.82 0.72 0.52 0.59 0.54 0.28 0.13 0.05 0.06 0.03 0.00 0.01 0.00 0.00 0.01 0.01 0.01 0.00 0.00 0.00 0.03 0.06 0.11
1.41 1.54 1.68 1.92 2.25 2.46 2.68 2.44 2.21 1.82 1.69 1.56 1.43 0.93 0.91 1.07 1.09 1.02 1.05 0.66 0.72 0.37 0.15 0.09 0.18 0.29 0.34 0.53 0.67 0.50 0.84 0.52 0.84 0.47 0.53 0.60 0.44 0.28 0.08 0.04 0.00 0.00 0.01 0.01 0.00 0.00 0.00 0.00 0.01 0.01 0.01 0.02 0.02 0.02
1.42 1.34 1.63 2.11 2.30 2.55 2.48 2.78 3.30 3.22 2.44 1.41 0.90 1.18 1.42 1.26 1.17 0.92 0.68 0.30 0.16 0.05 0.02 0.10 0.20 0.33 0.37 0.52 0.42 0.28 0.51 0.51 0.43 0.26 0.41 0.47 0.50 0.34 0.14 0.03 0.01 0.00 0.01 0.01 0.01 0.03 0.02 0.03 0.07 0.09 0.09 0.08 0.08 0.08
1.47 1.28 1.47 1.87 2.12 2.19 2.36 2.56 3.10 2.97 1.91 1.49 1.63 2.27 1.43 1.15 0.89 0.34 0.23 0.10 0.03 0.01 0.09 0.27 0.34 0.39 0.43 0.60 0.42 0.25 0.19 0.24 0.26 0.26 0.23 0.27 0.12 0.11 0.19 0.12 0.03 0.02 0.16 0.23 0.19 0.15 0.10 0.12 0.19 0.23 0.23 0.26 0.25 0.25
1.46 1.44 1.54 1.70 1.73 1.84 2.40 3.11 3.43 3.19 2.66 2.25 1.99 1.83 0.81 0.65 0.12 0.09 0.05 0.01 0.01 0.04 0.09 0.14 0.39 0.41 0.29 0.37 0.38 0.26 0.14 0.19 0.18 0.08 0.03 0.03 0.01 0.02 0.03 0.13 0.18 0.15 0.10 0.13 0.23 0.26 0.27 0.29 0.40 0.34 0.28 0.22 0.14 0.09
1.46 1.76 1.70 1.51 1.50 2.01 2.71 3.50 3.56 2.64 2.28 1.83 1.10 0.71 0.35 0.10 0.06 0.04 0.05 0.03 0.01 0.01 0.01 0.07 0.32 0.26 0.28 0.33 0.24 0.17 0.16 0.13 0.07 0.05 0.01 0.00 0.02 0.01 0.03 0.13 0.38 0.32 0.21 0.11 0.08 0.10 0.14 0.18 0.21 0.19 0.11 0.11 0.11 0.11
1.94 2.28 1.96 1.57 1.38 1.77 2.50 2.50 2.56 2.03 2.30 1.70 0.86 0.40 0.12 0.04 0.07 0.07 0.04 0.05 0.04 0.06 0.13 0.21 0.25 0.19 0.19 0.18 0.16 0.12 0.12 0.07 0.09 0.04 0.00 0.00 0.02 0.03 0.08 0.22 0.33 0.21 0.15 0.16 0.12 0.05 0.02 0.01 0.00 0.02 0.07 0.09 0.11 0.15
2.07 2.31 2.08 1.46 1.42 1.74 1.97 2.24 2.06 2.16 2.31 1.63 0.50 0.07 0.06 0.10 0.09 0.06 0.05 0.06 0.08 0.13 0.24 0.41 0.39 0.19 0.16 0.14 0.04 0.03 0.06 0.06 0.04 0.02 0.00 0.00 0.00 0.02 0.08 0.19 0.30 0.18 0.19 0.25 0.21 0.09 0.03 0.01 0.00 0.00 0.00 0.00 0.00 0.02
1.74 1.72 1.47 1.26 1.17 1.33 1.72 1.93 2.27 2.17 1.70 0.79 0.17 0.17 0.16 0.12 0.07 0.05 0.06 0.14 0.23 0.31 0.32 0.58 0.26 0.16 0.08 0.07 0.03 0.03 0.02 0.01 0.01 0.00 0.00 0.00 0.00 0.00 0.02 0.11 0.20 0.22 0.21 0.17 0.12 0.06 0.03 0.02 0.02 0.02 0.02 0.02 0.02 0.01
1.20 1.08 0.99 0.82 0.62 0.88 1.49 1.75 1.57 1.26 0.76 0.36 0.27 0.28 0.16 0.10 0.02 0.03 0.04 0.10 0.23 0.35 0.53 0.57 0.38 0.14 0.01 0.02 0.04 0.03 0.01 0.01 0.01 0.00 0.00 0.00 0.00 0.00 0.00 0.00 0.01 0.03 0.06 0.08 0.09 0.08 0.06 0.05 0.04 0.03 0.04 0.06 0.06 0.07
1.36 1.51 1.27 0.81 0.58 0.75 0.86 1.18 0.95 0.74 0.56 0.49 0.42 0.30 0.15 0.10 0.07 0.05 0.04 0.07 0.13 0.29 0.46 0.36 0.11 0.03 0.02 0.03 0.02 0.02 0.00 0.00 0.00 0.00 0.00 0.00 0.00 0.00 0.00 0.00 0.00 0.00 0.00 0.00 0.00 0.01 0.01 0.01 0.01 0.01 0.00 0.00 0.01 0.01
1.57 1.77 1.46 0.91 0.86 0.61 0.63 0.58 0.74 0.69 0.61 0.63 0.75 0.48 0.37 0.27 0.23 0.25 0.38 0.35 0.52 0.58 0.28 0.11 0.04 0.02 0.03 0.05 0.06 0.03 0.01 0.01 0.00 0.00 0.00 0.00 0.00 0.00 0.00 0.00 0.00 0.00 0.00 0.00 0.00 0.00 0.00 0.00 0.00 0.00 0.00 0.00 0.00 0.00
1.35 1.14 0.96 0.96 0.92 0.65 0.51 0.51 0.57 0.61 0.50 0.68 0.80 0.70 0.64 0.58 0.59 0.61 0.65 0.87 0.85 0.38 0.13 0.06 0.09 0.07 0.04 0.04 0.06 0.06 0.05 0.03 0.01 0.00 0.00 0.00 0.00 0.00 0.00 0.00 0.00 0.00 0.00 0.00 0.00 0.00 0.00 0.00 0.00 0.00 0.00 0.00 0.00 0.00
0.83 0.71 0.86 0.93 0.78 0.51 0.58 0.44 0.44 0.51 0.49 0.61 0.64 0.61 0.70 0.68 0.77 0.90 1.03 0.79 0.45 0.26 0.18 0.16 0.14 0.14 0.12 0.08 0.06 0.04 0.05 0.06 0.04 0.02 0.01 0.00 0.00 0.00 0.00 0.00 0.00 0.00 0.00 0.00 0.00 0.00 0.00 0.00 0.00 0.00 0.00 0.00 0.00 0.00
0.63 0.86 0.80 0.64 0.43 0.40 0.32 0.32 0.26 0.30 0.34 0.36 0.41 0.42 0.43 0.59 0.71 0.71 0.56 0.28 0.25 0.27 0.25 0.25 0.20 0.13 0.12 0.14 0.16 0.13 0.09 0.07 0.05 0.06 0.08 0.07 0.04 0.02 0.01 0.01 0.00 0.00 0.00 0.00 0.00 0.00 0.00 0.00 0.00 0.00 0.00 0.00 0.00 0.00
0.76 0.74 0.45 0.30 0.14 0.08 0.10 0.18 0.20 0.16 0.22 0.29 0.34 0.36 0.38 0.47 0.56 0.44 0.26 0.20 0.33 0.40 0.34 0.26 0.19 0.16 0.14 0.12 0.12 0.15 0.16 0.16 0.13 0.09 0.10 0.13 0.11 0.10 0.10 0.06 0.03 0.01 0.00 0.00 0.00 0.00 0.00 0.00 0.00 0.00 0.00 0.00 0.01 0.03
0.39 0.18 0.08 0.04 0.03 0.01 0.02 0.07 0.13 0.17 0.20 0.25 0.28 0.29 0.34 0.36 0.32 0.31 0.18 0.21 0.34 0.45 0.47 0.37 0.27 0.20 0.17 0.17 0.18 0.22 0.21 0.20 0.18 0.15 0.21 0.27 0.20 0.15 0.11 0.10 0.09 0.07 0.04 0.03 0.04 0.03 0.04 0.04 0.03 0.04 0.03 0.03 0.07 0.17
0.12 0.04 0.02 0.00 0.00 0.00 0.00 0.00 0.01 0.04 0.10 0.14 0.16 0.18 0.20 0.22 0.25 0.14 0.13 0.22 0.33 0.40 0.45 0.47 0.38 0.26 0.22 0.22 0.23 0.25 0.28 0.32 0.28 0.21 0.24 0.33 0.34 0.29 0.20 0.14 0.08 0.06 0.10 0.15 0.13 0.11 0.10 0.11 0.11 0.12 0.15 0.17 0.17 0.18
0.02 0.00 0.00 0.01 0.01 0.01 0.01 0.01 0.00 0.00 0.00 0.03 0.10 0.09 0.10 0.11 0.08 0.08 0.13 0.22 0.33 0.38 0.44 0.48 0.46 0.34 0.29 0.27 0.28 0.30 0.34 0.38 0.39 0.33 0.31 0.35 0.39 0.40 0.38 0.31 0.29 0.29 0.27 0.24 0.26 0.27 0.25 0.23 0.23 0.23 0.25 0.24 0.20 0.21
0.02 0.00 0.00 0.03 0.03 0.02 0.01 0.00 0.00 0.00 0.00 0.00 0.01 0.03 0.03 0.03 0.06 0.09 0.14 0.21 0.30 0.36 0.39 0.42 0.45 0.43 0.39 0.37 0.36 0.37 0.38 0.37 0.32 0.27 0.20 0.20 0.25 0.34 0.42 0.44 0.46 0.48 0.43 0.36 0.35 0.32 0.27 0.27 0.28 0.30 0.31 0.30 0.27 0.27
0.02 0.00 0.01 0.02 0.01 0.00 0.01 0.01 0.01 0.01 0.00 0.00 0.00 0.00 0.01 0.03 0.06 0.09 0.14 0.19 0.26 0.32 0.37 0.42 0.44 0.44 0.42 0.40 0.41 0.42 0.43 0.43 0.41 0.31 0.24 0.21 0.23 0.31 0.40 0.44 0.46 0.47 0.47 0.43 0.41 0.45 0.44 0.44 0.43 0.42 0.38 0.36 0.33 0.31
0.03 0.01 0.00 0.00 0.00 0.01 0.02 0.03 0.02 0.01 0.00 0.00 0.00 0.00 0.01 0.02 0.04 0.07 0.11 0.16 0.22 0.28 0.33 0.36 0.39 0.43 0.42 0.44 0.43 0.42 0.40 0.41 0.42 0.43 0.39 0.38 0.40 0.40 0.43 0.46 0.46 0.46 0.48 0.47 0.43 0.37 0.33 0.30 0.24 0.21 0.24 0.26 0.26 0.25
0.06 0.03 0.01 0.01 0.01 0.03 0.03 0.02 0.02 0.01 0.02 0.01 0.01 0.01 0.01 0.02 0.03 0.04 0.07 0.10 0.15 0.20 0.26 0.29 0.29 0.31 0.33 0.34 0.36 0.39 0.40 0.39 0.38 0.39 0.39 0.37 0.37 0.39 0.41 0.43 0.45 0.45 0.48 0.50 0.46 0.42 0.39 0.38 0.40 0.38 0.36 0.37 0.36 0.32
0.09 0.09 0.07 0.04 0.03 0.02 0.02 0.02 0.02 0.01 0.01 0.01 0.01 0.02 0.02 0.02 0.03 0.03 0.03 0.07 0.10 0.15 0.19 0.23 0.26 0.28 0.30 0.31 0.34 0.36 0.39 0.44 0.47 0.51 0.54 0.52 0.47 0.44 0.43 0.44 0.43 0.44 0.44 0.45 0.47 0.49 0.52 0.51 0.47 0.44 0.43 0.42 0.40 0.40

GFSWCAN_prec_precacc_099.txt.gz
Total_Precipitation_Accumulation
1.09 1.25 1.46 1.46 1.22 1.13 1.22 1.23 1.10 0.66 0.60 0.84 0.95 0.80 0.60 0.49 0.54 0.40 0.35 0.38 0.33 0.20 0.08 0.02 0.02 0.04 0.18 0.42 0.61 0.56 0.71 0.50 0.53 0.80 0.74 0.42 0.14 0.06 0.04 0.08 0.04 0.10 0.22 0.24 0.22 0.27 0.04 0.00 0.00 0.01 0.01 0.00 0.00 0.05
1.23 1.23 1.34 1.38 1.36 1.50 1.29 0.91 0.90 0.83 0.57 0.52 0.76 0.79 0.66 0.40 0.45 0.51 0.34 0.33 0.34 0.27 0.11 0.03 0.01 0.01 0.05 0.27 0.60 0.60 0.59 0.42 0.52 0.54 0.47 0.38 0.30 0.24 0.10 0.08 0.02 0.03 0.03 0.09 0.08 0.05 0.01 0.01 0.00 0.00 0.00 0.00 0.00 0.01
1.22 1.35 1.32 1.26 1.18 1.23 1.66 1.17 0.90 0.77 0.63 0.54 0.51 0.55 0.56 0.41 0.34 0.50 0.32 0.27 0.33 0.31 0.11 0.03 0.02 0.03 0.00 0.08 0.45 0.77 0.49 0.50 0.50 0.47 0.47 0.27 0.25 0.20 0.13 0.12 0.06 0.07 0.03 0.01 0.00 0.01 0.04 0.16 0.17 0.08 0.04 0.01 0.00 0.00
1.09 1.28 1.29 1.18 1.20 1.04 1.33 1.68 1.12 0.80 0.55 0.51 0.52 0.40 0.37 0.39 0.34 0.42 0.29 0.20 0.36 0.45 0.31 0.11 0.03 0.06 0.05 0.06 0.35 0.69 0.69 0.56 0.58 0.52 0.58 0.43 0.21 0.15 0.09 0.04 0.04 0.03 0.02 0.02 0.00 0.00 0.00 0.00 0.02 0.05 0.07 0.07 0.05 0.02
1.09 1.14 1.26 1.25 1.17 1.25 1.13 1.41 1.35 0.89 0.60 0.53 0.51 0.41 0.39 0.41 0.47 0.32 0.17 0.19 0.28 0.65 0.55 0.31 0.11 0.01 0.04 0.05 0.28 0.67 0.88 0.85 0.79 0.84 0.58 0.37 0.19 0.15 0.05 0.03 0.01 0.00 0.00 0.01 0.01 0.01 0.00 0.00 0.00 0.00 0.00 0.01 0.03 0.03
1.17 1.14 1.28 1.32 1.35 1.35 1.28 1.10 1.13 0.89 0.63 0.51 0.51 0.55 0.44 0.51 0.69 0.46 0.40 0.29 0.34 0.48 0.79 0.59 0.29 0.08 0.06 0.12 0.15 0.50 0.72 0.69 0.77 0.92 0.54 0.24 0.13 0.35 0.22 0.07 0.00 0.00 0.00 0.00 0.00 0.00 0.00 0.00 0.00 0.00 0.00 0.00 0.00 0.01
1.10 1.14 1.15 1.30 1.45 1.54 1.34 1.08 1.10 0.91 0.77 0.63 0.61 0.52 0.45 0.54 0.49 0.51 0.35 0.47 0.42 0.39 0.65 0.72 0.53 0.22 0.12 0.43 0.18 0.39 0.85 1.01 0.87 0.87 0.50 0.27 0.20 0.58 0.48 0.07 0.00 0.00 0.00 0.00 0.00 0.00 0.01 0.00 0.00 0.00 0.01 0.01 0.01 0.02
1.52 1.70 1.66 1.43 1.47 1.64 1.55 1.20 1.30 1.01 1.02 0.75 0.67 0.63 0.59 0.63 0.53 0.41 0.16 0.26 0.38 0.58 0.56 0.59 0.54 0.49 0.38 0.69 0.46 0.52 0.99 1.21 1.13 0.80 0.44 0.24 0.25 0.40 0.28 0.01 0.00 0.00 0.01 0.00 0.00 0.00 0.00 0.00 0.00 0.00 0.01 0.02 0.03 0.04
1.56 1.70 1.89 2.08 2.08 1.88 1.72 1.55 1.49 1.16 1.11 0.95 0.87 0.86 0.80 0.59 0.34 0.29 0.54 0.53 0.38 0.85 0.88 0.44 0.36 0.62 0.42 0.72 0.60 0.56 0.82 1.15 0.94 0.78 0.43 0.57 0.46 0.36 0.06 0.01 0.01 0.02 0.03 0.01 0.00 0.00 0.00 0.01 0.00 0.00 0.01 0.04 0.07 0.09
1.50 1.58 1.62 1.88 2.31 2.50 2.38 2.10 1.71 1.29 1.20 1.28 1.11 1.10 0.94 0.60 0.56 0.81 1.19 0.99 0.97 0.75 0.60 0.39 0.28 0.35 0.40 0.47 0.65 0.50 0.66 0.82 0.72 0.52 0.59 0.54 0.28 0.13 0.05 0.06 0.03 0.00 0.01 0.00 0.00 0.01 0.01 0.01 0.00 0.00 0.00 0.03 0.06 0.15
1.44 1.56 1.69 1.92 2.25 2.50 2.88 2.67 2.26 1.85 1.75 1.65 1.54 0.99 0.96 1.10 1.12 1.03 1.05 0.66 0.72 0.37 0.15 0.09 0.18 0.29 0.34 0.53 0.67 0.50 0.84 0.52 0.84 0.47 0.53 0.60 0.44 0.28 0.08 0.04 0.00 0.00 0.01 0.01 0.00 0.00 0.00 0.00 0.01 0.01 0.02 0.02 0.03 0.07
1.44 1.35 1.63 2.11 2.31 2.75 2.74 2.83 3.31 3.26 2.50 1.45 0.91 1.19 1.45 1.30 1.19 0.93 0.68 0.30 0.16 0.05 0.02 0.10 0.20 0.33 0.37 0.52 0.42 0.28 0.51 0.51 0.43 0.26 0.42 0.47 0.50 0.34 0.14 0.03 0.01 0.00 0.01 0.01 0.01 0.03 0.02 0.03 0.07 0.10 0.10 0.09 0.09 0.10
1.48 1.28 1.47 1.88 2.26 2.51 2.44 2.57 3.10 2.97 1.92 1.51 1.67 2.31 1.46 1.16 0.90 0.34 0.23 0.10 0.03 0.01 0.09 0.27 0.34 0.39 0.43 0.60 0.42 0.25 0.19 0.24 0.26 0.27 0.23 0.27 0.12 0.11 0.19 0.12 0.03 0.02 0.16 0.23 0.19 0.16 0.10 0.12 0.19 0.24 0.24 0.27 0.27 0.27
1.47 1.44 1.55 1.76 2.06 1.97 2.43 3.16 3.47 3.21 2.68 2.29 2.04 1.86 0.81 0.65 0.12 0.09 0.05 0.01 0.01 0.04 0.09 0.14 0.39 0.41 0.29 0.37 0.38 0.26 0.14 0.19 0.18 0.08 0.03 0.03 0.01 0.02 0.03 0.13 0.18 0.15 0.10 0.13 0.23 0.27 0.27 0.29 0.40 0.34 0.28 0.23 0.15 0.10
1.47 1.78 1.80 1.69 1.75 2.11 2.81 3.59 3.60 2.71 2.36 1.85 1.10 0.71 0.35 0.10 0.06 0.04 0.05 0.03 0.01 0.01 0.01 0.07 0.32 0.26 0.28 0.33 0.24 0.17 0.16 0.13 0.07 0.05 0.01 0.00 0.02 0.01 0.03 0.13 0.38 0.32 0.21 0.11 0.08 0.10 0.14 0.18 0.22 0.19 0.11 0.11 0.11 0.11
1.96 2.38 2.26 1.79 1.63 1.95 2.71 2.67 2.74 2.20 2.35 1.71 0.86 0.40 0.12 0.04 0.07 0.07 0.04 0.05 0.04 0.06 0.13 0.21 0.25 0.19 0.19 0.18 0.16 0.12 0.12 0.07 0.09 0.04 0.00 0.00 0.02 0.03 0.08 0.22 0.33 0.21 0.15 0.16 0.12 0.05 0.02 0.01 0.00 0.02 0.07 0.09 0.11 0.15
2.19 2.60 2.49 1.72 1.70 2.01 2.22 2.44 2.22 2.27 2.39 1.64 0.50 0.07 0.06 0.10 0.09 0.06 0.05 0.06 0.08 0.13 0.24 0.41 0.39 0.19 0.16 0.14 0.04 0.03 0.06 0.06 0.04 0.02 0.00 0.00 0.00 0.02 0.08 0.19 0.30 0.18 0.19 0.25 0.21 0.09 0.03 0.01 0.00 0.00 0.00 0.00 0.00 0.02
1.94 2.04 1.80 1.55 1.44 1.59 1.97 2.14 2.45 2.31 1.76 0.80 0.17 0.17 0.17 0.13 0.08 0.05 0.06 0.14 0.23 0.31 0.32 0.58 0.26 0.16 0.08 0.07 0.03 0.03 0.02 0.01 0.01 0.00 0.00 0.00 0.00 0.00 0.02 0.11 0.20 0.22 0.21 0.17 0.12 0.06 0.04 0.02 0.02 0.02 0.03 0.03 0.02 0.03
1.56 1.30 1.20 0.97 0.72 1.06 1.76 2.01 1.66 1.27 0.78 0.37 0.30 0.33 0.22 0.13 0.03 0.03 0.04 0.10 0.23 0.35 0.53 0.57 0.38 0.14 0.01 0.02 0.04 0.03 0.01 0.01 0.01 0.00 0.00 0.00 0.00 0.00 0.00 0.00 0.01 0.03 0.06 0.08 0.09 0.08 0.06 0.05 0.04 0.03 0.04 0.06 0.06 0.10
1.73 1.71 1.43 0.98 0.75 0.90 0.94 1.30 0.98 0.74 0.57 0.53 0.49 0.39 0.22 0.14 0.08 0.05 0.04 0.07 0.13 0.29 0.46 0.36 0.11 0.03 0.02 0.03 0.02 0.02 0.00 0.00 0.00 0.00 0.00 0.00 0.00 0.00 0.00 0.00 0.00 0.00 0.00 0.00 0.00 0.01 0.01 0.01 0.01 0.01 0.00 0.00 0.01 0.01
1.96 2.11 1.77 1.16 1.04 0.67 0.66 0.62 0.75 0.71 0.65 0.71 0.86 0.57 0.44 0.32 0.24 0.25 0.38 0.35 0.52 0.58 0.28 0.11 0.04 0.02 0.03 0.05 0.06 0.03 0.01 0.01 0.00 0.00 0.00 0.00 0.00 0.00 0.00 0.00 0.00 0.00 0.00 0.00 0.00 0.00 0.00 0.00 0.00 0.00 0.00 0.00 0.00 0.00
1.64 1.39 1.15 1.09 1.00 0.72 0.55 0.55 0.60 0.64 0.55 0.77 0.90 0.77 0.69 0.62 0.62 0.62 0.66 0.87 0.85 0.38 0.13 0.06 0.09 0.07 0.04 0.04 0.06 0.06 0.05 0.03 0.01 0.00 0.00 0.00 0.00 0.00 0.00 0.00 0.00 0.00 0.00 0.00 0.00 0.00 0.00 0.00 0.00 0.00 0.00 0.00 0.00 0.00
0.95 0.85 1.05 1.14 0.95 0.60 0.65 0.53 0.54 0.60 0.60 0.74 0.77 0.69 0.75 0.71 0.79 0.91 1.03 0.79 0.45 0.26 0.18 0.16 0.14 0.14 0.12 0.08 0.06 0.04 0.05 0.06 0.04 0.02 0.01 0.00 0.00 0.00 0.00 0.00 0.00 0.00 0.00 0.00 0.00 0.00 0.00 0.00 0.00 0.00 0.00 0.00 0.00 0.00
0.82 1.16 1.10 0.86 0.54 0.46 0.37 0.38 0.32 0.36 0.45 0.46 0.50 0.46 0.45 0.61 0.72 0.71 0.56 0.28 0.25 0.27 0.25 0.25 0.20 0.13 0.12 0.14 0.16 0.13 0.09 0.07 0.05 0.06 0.08 0.07 0.04 0.02 0.01 0.01 0.00 0.00 0.00 0.00 0.00 0.00 0.00 0.00 0.00 0.00 0.00 0.00 0.00 0.00
1.06 1.00 0.61 0.41 0.18 0.11 0.12 0.21 0.25 0.24 0.29 0.35 0.38 0.39 0.39 0.47 0.56 0.44 0.26 0.20 0.33 0.40 0.34 0.26 0.19 0.16 0.14 0.12 0.12 0.15 0.16 0.16 0.13 0.09 0.10 0.13 0.11 0.10 0.10 0.06 0.03 0.01 0.00 0.00 0.00 0.00 0.00 0.00 0.00 0.00 0.00 0.00 0.01 0.03
0.54 0.27 0.14 0.08 0.05 0.03 0.05 0.12 0.19 0.23 0.27 0.31 0.31 0.30 0.34 0.36 0.32 0.31 0.18 0.21 0.34 0.45 0.47 0.37 0.27 0.20 0.17 0.17 0.18 0.22 0.21 0.20 0.18 0.15 0.21 0.27 0.20 0.15 0.11 0.10 0.09 0.07 0.04 0.03 0.04 0.03 0.04 0.04 0.03 0.04 0.03 0.03 0.07 0.17
0.17 0.06 0.02 0.00 0.00 0.01 0.02 0.02 0.04 0.08 0.13 0.15 0.16 0.18 0.20 0.22 0.25 0.14 0.13 0.22 0.33 0.40 0.45 0.47 0.38 0.26 0.22 0.22 0.23 0.25 0.28 0.32 0.28 0.21 0.24 0.33 0.34 0.29 0.20 0.14 0.08 0.06 0.10 0.15 0.13 0.11 0.10 0.11 0.11 0.12 0.15 0.17 0.17 0.18
0.03 0.00 0.00 0.01 0.01 0.01 0.02 0.02 0.02 0.01 0.00 0.03 0.10 0.09 0.10 0.11 0.08 0.08 0.13 0.22 0.33 0.38 0.44 0.48 0.46 0.34 0.29 0.27 0.28 0.30 0.34 0.38 0.39 0.33 0.31 0.35 0.39 0.40 0.38 0.31 0.29 0.29 0.27 0.24 0.26 0.27 0.25 0.23 0.23 0.23 0.25 0.24 0.20 0.21
0.02 0.00 0.01 0.04 0.05 0.04 0.03 0.02 0.00 0.00 0.00 0.00 0.01 0.03 0.03 0.03 0.06 0.09 0.14 0.21 0.30 0.36 0.39 0.42 0.45 0.43 0.39 0.37 0.36 0.37 0.38 0.37 0.32 0.27 0.20 0.20 0.25 0.34 0.42 0.44 0.46 0.48 0.43 0.36 0.35 0.32 0.27 0.27 0.28 0.30 0.32 0.31 0.27 0.27
0.03 0.02 0.03 0.05 0.03 0.01 0.02 0.01 0.01 0.01 0.00 0.00 0.00 0.00 0.01 0.03 0.06 0.09 0.14 0.19 0.26 0.32 0.37 0.42 0.44 0.44 0.42 0.40 0.41 0.42 0.43 0.43 0.41 0.31 0.24 0.21 0.23 0.31 0.40 0.44 0.46 0.47 0.47 0.43 0.41 0.45 0.44 0.44 0.43 0.42 0.38 0.36 0.33 0.31
0.05 0.03 0.02 0.01 0.01 0.01 0.02 0.03 0.02 0.01 0.00 0.00 0.00 0.00 0.01 0.02 0.04 0.07 0.11 0.16 0.22 0.28 0.33 0.36 0.39 0.43 0.42 0.44 0.43 0.42 0.40 0.41 0.42 0.43 0.39 0.38 0.40 0.40 0.43 0.46 0.46 0.46 0.48 0.47 0.43 0.37 0.34 0.30 0.24 0.21 0.24 0.26 0.26 0.25
0.08 0.05 0.01 0.01 0.02 0.03 0.03 0.02 0.02 0.01 0.02 0.01 0.01 0.01 0.01 0.02 0.03 0.04 0.07 0.10 0.15 0.20 0.26 0.29 0.29 0.31 0.33 0.34 0.36 0.39 0.40 0.39 0.38 0.39 0.39 0.37 0.37 0.39 0.41 0.43 0.45 0.45 0.48 0.50 0.46 0.42 0.39 0.38 0.40 0.38 0.36 0.37 0.36 0.32
0.11 0.10 0.07 0.04 0.03 0.02 0.02 0.02 0.02 0.01 0.01 0.01 0.01 0.02 0.02 0.02 0.03 0.03 0.03 0.07 0.10 0.15 0.19 0.23 0.26 0.28 0.30 0.31 0.34 0.36 0.39 0.44 0.47 0.51 0.54 0.52 0.47 0.44 0.43 0.44 0.43 0.45 0.45 0.45 0.47 0.49 0.52 0.51 0.47 0.44 0.43 0.42 0.40 0.40

GFSWCAN_prec_precacc_102.txt.gz
Total_Precipitation_Accumulation
1.09 1.25 1.46 1.48 1.24 1.15 1.24 1.24 1.11 0.66 0.60 0.84 0.98 1.00 0.85 0.60 0.64 0.41 0.35 0.38 0.33 0.20 0.08 0.02 0.02 0.04 0.18 0.42 0.61 0.56 0.71 0.50 0.53 0.80 0.74 0.42 0.14 0.06 0.04 0.08 0.04 0.10 0.22 0.24 0.22 0.27 0.04 0.00 0.00 0.01 0.01 0.00 0.00 0.05
1.23 1.23 1.35 1.40 1.38 1.51 1.31 0.92 0.90 0.83 0.57 0.53 0.78 0.87 0.93 0.55 0.54 0.51 0.34 0.33 0.34 0.27 0.11 0.03 0.01 0.01 0.05 0.27 0.60 0.60 0.59 0.42 0.52 0.54 0.47 0.38 0.30 0.24 0.10 0.08 0.02 0.03 0.03 0.09 0.08 0.05 0.01 0.01 0.00 0.00 0.00 0.00 0.00 0.01
1.22 1.35 1.32 1.27 1.20 1.25 1.68 1.18 0.90 0.77 0.63 0.54 0.53 0.61 0.71 0.59 0.39 0.50 0.32 0.27 0.33 0.31 0.11 0.03 0.02 0.03 0.00 0.08 0.45 0.77 0.49 0.50 0.50 0.47 0.47 0.27 0.25 0.20 0.13 0.12 0.06 0.07 0.03 0.01 0.00 0.01 0.04 0.16 0.17 0.08 0.04 0.01 0.00 0.00
1.10 1.29 1.30 1.19 1.22 1.06 1.35 1.69 1.12 0.80 0.55 0.51 0.53 0.48 0.49 0.54 0.39 0.42 0.29 0.20 0.36 0.45 0.31 0.11 0.03 0.06 0.05 0.06 0.35 0.69 0.69 0.56 0.58 0.52 0.58 0.43 0.21 0.15 0.09 0.04 0.04 0.03 0.02 0.02 0.00 0.00 0.00 0.00 0.02 0.05 0.07 0.07 0.05 0.03
1.11 1.16 1.27 1.27 1.19 1.27 1.14 1.42 1.36 0.89 0.60 0.53 0.52 0.50 0.52 0.54 0.51 0.32 0.17 0.19 0.28 0.65 0.55 0.31 0.11 0.01 0.04 0.05 0.28 0.67 0.88 0.85 0.79 0.84 0.58 0.37 0.19 0.15 0.05 0.03 0.01 0.00 0.00 0.01 0.01 0.01 0.00 0.00 0.00 0.00 0.00 0.01 0.03 0.03
1.19 1.15 1.29 1.34 1.39 1.38 1.29 1.10 1.13 0.89 0.63 0.51 0.56 0.66 0.59 0.62 0.71 0.46 0.40 0.29 0.34 0.48 0.79 0.59 0.29 0.08 0.06 0.12 0.15 0.50 0.72 0.69 0.77 0.92 0.54 0.24 0.13 0.35 0.22 0.07 0.00 0.00 0.00 0.00 0.00 0.00 0.00 0.00 0.00 0.00 0.00 0.00 0.00 0.01
1.11 1.16 1.17 1.32 1.48 1.56 1.35 1.08 1.11 0.91 0.77 0.65 0.69 0.61 0.53 0.59 0.52 0.51 0.35 0.47 0.42 0.39 0.65 0.72 0.53 0.22 0.12 0.43 0.18 0.39 0.85 1.01 0.87 0.87 0.50 0.27 0.20 0.58 0.48 0.07 0.00 0.00 0.00 0.00 0.00 0.00 0.01 0.00 0.00 0.00 0.01 0.01 0.01 0.02
1.55 1.73 1.70 1.47 1.51 1.65 1.56 1.20 1.30 1.02 1.05 0.82 0.80 0.73 0.71 0.71 0.58 0.42 0.16 0.26 0.38 0.58 0.56 0.59 0.54 0.49 0.38 0.69 0.46 0.52 0.99 1.21 1.13 0.80 0.44 0.24 0.25 0.40 0.28 0.01 0.00 0.00 0.01 0.00 0.00 0.00 0.00 0.00 0.00 0.00 0.01 0.02 0.03 0.04
1.59 1.73 1.93 2.13 2.11 1.89 1.73 1.55 1.52 1.25 1.25 1.10 0.98 0.95 0.89 0.64 0.39 0.30 0.54 0.53 0.38 0.85 0.88 0.44 0.36 0.62 0.42 0.72 0.60 0.56 0.82 1.15 0.94 0.78 0.43 0.57 0.46 0.36 0.06 0.01 0.01 0.02 0.03 0.01 0.00 0.00 0.00 0.01 0.00 0.00 0.01 0.04 0.07 0.09
1.54 1.62 1.67 1.92 2.33 2.50 2.38 2.18 1.87 1.46 1.34 1.35 1.15 1.17 1.07 0.68 0.59 0.81 1.19 0.99 0.97 0.75 0.60 0.39 0.28 0.35 0.40 0.47 0.65 0.50 0.66 0.82 0.72 0.52 0.59 0.54 0.28 0.13 0.05 0.06 0.03 0.00 0.01 0.00 0.00 0.01 0.01 0.01 0.00 0.00 0.00 0.03 0.07 0.16
1.50 1.60 1.73 1.95 2.26 2.51 2.92 2.99 2.44 1.98 1.82 1.69 1.59 1.06 1.04 1.14 1.19 1.06 1.06 0.66 0.72 0.37 0.15 0.09 0.18 0.29 0.34 0.53 0.67 0.50 0.84 0.52 0.84 0.47 0.53 0.60 0.44 0.28 0.08 0.04 0.00 0.00 0.01 0.01 0.00 0.00 0.00 0.00 0.01 0.01 0.02 0.03 0.03 0.07
1.47 1.38 1.65 2.13 2.34 2.78 2.97 3.18 3.43 3.32 2.55 1.47 0.92 1.22 1.49 1.41 1.30 0.96 0.69 0.30 0.16 0.05 0.02 0.10 0.20 0.33 0.37 0.52 0.42 0.28 0.51 0.51 0.43 0.26 0.42 0.47 0.50 0.34 0.14 0.03 0.01 0.00 0.01 0.01 0.01 0.03 0.02 0.03 0.07 0.10 0.10 0.09 0.09 0.10
1.51 1.31 1.49 1.90 2.28 2.60 2.78 2.73 3.17 3.01 1.92 1.51 1.68 2.34 1.53 1.21 0.90 0.34 0.23 0.10 0.03 0.01 0.09 0.27 0.34 0.39 0.43 0.60 0.42 0.25 0.19 0.24 0.26 0.27 0.24 0.27 0.12 0.11 0.19 0.12 0.03 0.02 0.16 0.23 0.19 0.16 0.10 0.12 0.19 0.24 0.24 0.27 0.27 0.27
1.49 1.47 1.57 1.77 2.08 2.12 2.66 3.33 3.52 3.22 2.68 2.29 2.05 1.88 0.81 0.65 0.12 0.09 0.05 0.01 0.01 0.04 0.09 0.14 0.39 0.41 0.29 0.37 0.38 0.26 0.14 0.19 0.18 0.08 0.03 0.03 0.01 0.02 0.03 0.13 0.18 0.15 0.10 0.13 0.23 0.27 0.27 0.29 0.40 0.34 0.28 0.23 0.15 0.10
1.49 1.79 1.81 1.72 1.84 2.28 2.95 3.69 3.65 2.73 2.37 1.85 1.10 0.71 0.35 0.10 0.06 0.04 0.05 0.03 0.01 0.01 0.01 0.07 0.32 0.26 0.28 0.33 0.24 0.17 0.17 0.14 0.07 0.05 0.01 0.00 0.02 0.01 0.03 0.13 0.38 0.32 0.21 0.11 0.08 0.10 0.14 0.18 0.22 0.19 0.11 0.11 0.11 0.11
1.97 2.38 2.28 1.98 1.82 2.13 2.90 2.82 2.82 2.27 2.38 1.71 0.86 0.40 0.12 0.04 0.07 0.07 0.05 0.05 0.04 0.06 0.13 0.21 0.25 0.19 0.19 0.18 0.16 0.12 0.12 0.07 0.09 0.04 0.00 0.00 0.02 0.03 0.08 0.22 0.33 0.21 0.15 0.16 0.12 0.05 0.02 0.01 0.00 0.02 0.07 0.09 0.11 0.15
2.19 2.60 2.63 2.06 2.01 2.29 2.42 2.58 2.34 2.36 2.45 1.65 0.50 0.07 0.06 0.10 0.09 0.06 0.05 0.06 0.08 0.13 0.24 0.41 0.39 0.19 0.16 0.14 0.04 0.03 0.06 0.06 0.04 0.02 0.00 0.00 0.00 0.02 0.08 0.19 0.30 0.18 0.19 0.25 0.21 0.09 0.03 0.01 0.00 0.00 0.00 0.00 0.00 0.02
1.96 2.08 1.93 1.91 1.79 1.85 2.17 2.32 2.60 2.42 1.81 0.82 0.18 0.18 0.18 0.13 0.08 0.05 0.06 0.14 0.23 0.31 0.32 0.58 0.26 0.16 0.08 0.07 0.03 0.03 0.02 0.01 0.01 0.00 0.00 0.00 0.00 0.00 0.02 0.11 0.20 0.22 0.21 0.17 0.12 0.06 0.04 0.02 0.02 0.02 0.03 0.03 0.02 0.03
1.64 1.44 1.33 1.12 0.81 1.21 2.01 2.23 1.77 1.29 0.79 0.39 0.34 0.38 0.25 0.15 0.04 0.03 0.04 0.10 0.23 0.35 0.53 0.57 0.38 0.14 0.01 0.02 0.04 0.03 0.01 0.01 0.01 0.00 0.00 0.00 0.00 0.00 0.00 0.00 0.01 0.03 0.06 0.08 0.09 0.08 0.06 0.05 0.04 0.03 0.04 0.06 0.06 0.10
1.96 1.87 1.57 1.11 0.85 1.02 1.03 1.41 1.02 0.74 0.58 0.55 0.55 0.48 0.30 0.19 0.10 0.05 0.04 0.07 0.13 0.29 0.46 0.36 0.11 0.03 0.02 0.03 0.02 0.02 0.00 0.00 0.00 0.00 0.00 0.00 0.00 0.00 0.00 0.00 0.00 0.00 0.00 0.00 0.00 0.01 0.01 0.01 0.01 0.01 0.00 0.00 0.01 0.01
2.32 2.41 2.03 1.38 1.20 0.75 0.69 0.65 0.76 0.72 0.67 0.76 0.93 0.66 0.55 0.40 0.28 0.25 0.38 0.35 0.52 0.58 0.28 0.11 0.04 0.02 0.03 0.05 0.06 0.03 0.01 0.01 0.00 0.00 0.00 0.00 0.00 0.00 0.00 0.00 0.00 0.00 0.00 0.00 0.00 0.00 0.00 0.00 0.00 0.00 0.00 0.00 0.00 0.00
1.85 1.61 1.33 1.25 1.15 0.81 0.59 0.56 0.60 0.65 0.58 0.83 0.97 0.83 0.76 0.67 0.66 0.63 0.66 0.87 0.85 0.38 0.13 0.06 0.09 0.07 0.04 0.04 0.06 0.06 0.05 0.03 0.01 0.00 0.00 0.00 0.00 0.00 0.00 0.00 0.00 0.00 0.00 0.00 0.00 0.00 0.00 0.00 0.00 0.00 0.00 0.00 0.00 0.00
1.03 0.95 1.20 1.32 1.11 0.68 0.71 0.56 0.56 0.65 0.66 0.83 0.86 0.76 0.81 0.74 0.81 0.92 1.03 0.79 0.45 0.26 0.18 0.16 0.14 0.14 0.12 0.08 0.06 0.04 0.05 0.06 0.04 0.02 0.01 0.00 0.00 0.00 0.00 0.00 0.00 0.00 0.00 0.00 0.00 0.00 0.00 0.00 0.00 0.00 0.00 0.00 0.00 0.00
0.91 1.36 1.34 1.02 0.62 0.49 0.40 0.43 0.37 0.41 0.52 0.56 0.58 0.51 0.48 0.63 0.75 0.73 0.56 0.28 0.25 0.27 0.25 0.25 0.20 0.13 0.12 0.14 0.16 0.13 0.09 0.07 0.05 0.06 0.08 0.07 0.04 0.02 0.01 0.01 0.00 0.00 0.00 0.00 0.00 0.00 0.00 0.00 0.00 0.00 0.00 0.00 0.00 0.00
1.26 1.19 0.71 0.48 0.22 0.12 0.13 0.24 0.30 0.27 0.33 0.41 0.44 0.43 0.43 0.50 0.58 0.44 0.26 0.20 0.33 0.40 0.34 0.26 0.19 0.16 0.14 0.12 0.12 0.15 0.16 0.16 0.13 0.09 0.10 0.13 0.11 0.10 0.10 0.06 0.03 0.01 0.00 0.00 0.00 0.00 0.00 0.00 0.00 0.00 0.00 0.00 0.01 0.03
0.64 0.33 0.18 0.10 0.05 0.03 0.06 0.13 0.22 0.26 0.32 0.38 0.36 0.34 0.37 0.38 0.33 0.31 0.18 0.21 0.34 0.45 0.47 0.37 0.27 0.20 0.17 0.17 0.18 0.22 0.21 0.20 0.18 0.15 0.21 0.27 0.20 0.15 0.11 0.10 0.09 0.07 0.04 0.03 0.04 0.03 0.04 0.04 0.03 0.04 0.03 0.03 0.07 0.17
0.21 0.07 0.02 0.00 0.01 0.02 0.03 0.05 0.09 0.15 0.21 0.20 0.19 0.20 0.21 0.23 0.25 0.14 0.13 0.22 0.33 0.40 0.45 0.47 0.38 0.26 0.22 0.22 0.23 0.25 0.28 0.32 0.28 0.21 0.24 0.33 0.34 0.29 0.20 0.14 0.08 0.06 0.10 0.15 0.13 0.11 0.10 0.11 0.11 0.12 0.15 0.17 0.17 0.18
0.04 0.00 0.00 0.01 0.02 0.03 0.04 0.05 0.07 0.07 0.05 0.05 0.12 0.12 0.11 0.11 0.08 0.08 0.13 0.22 0.33 0.38 0.44 0.48 0.46 0.34 0.29 0.27 0.28 0.30 0.34 0.38 0.39 0.33 0.31 0.35 0.39 0.40 0.38 0.31 0.29 0.29 0.27 0.24 0.26 0.27 0.26 0.23 0.23 0.23 0.25 0.24 0.20 0.21
0.02 0.00 0.01 0.05 0.08 0.08 0.08 0.05 0.02 0.01 0.00 0.00 0.02 0.03 0.03 0.03 0.06 0.09 0.14 0.21 0.30 0.36 0.39 0.42 0.45 0.43 0.39 0.37 0.36 0.37 0.38 0.37 0.32 0.27 0.20 0.20 0.25 0.34 0.42 0.44 0.46 0.48 0.43 0.36 0.35 0.32 0.27 0.27 0.29 0.31 0.33 0.31 0.27 0.27
0.04 0.04 0.05 0.08 0.06 0.05 0.05 0.03 0.03 0.01 0.00 0.00 0.00 0.00 0.01 0.03 0.06 0.09 0.14 0.19 0.26 0.32 0.37 0.42 0.44 0.44 0.42 0.40 0.41 0.42 0.43 0.43 0.41 0.31 0.24 0.21 0.23 0.31 0.40 0.44 0.46 0.47 0.47 0.43 0.41 0.45 0.44 0.44 0.43 0.42 0.38 0.36 0.33 0.31
0.09 0.07 0.05 0.04 0.04 0.03 0.05 0.06 0.04 0.02 0.00 0.00 0.00 0.00 0.01 0.02 0.04 0.07 0.11 0.16 0.22 0.28 0.33 0.36 0.39 0.43 0.42 0.44 0.43 0.42 0.40 0.41 0.42 0.43 0.39 0.38 0.40 0.40 0.43 0.46 0.46 0.46 0.48 0.47 0.43 0.38 0.34 0.30 0.24 0.22 0.25 0.26 0.26 0.26
0.12 0.07 0.02 0.03 0.04 0.06 0.05 0.03 0.02 0.01 0.02 0.01 0.01 0.01 0.01 0.02 0.03 0.04 0.07 0.10 0.15 0.20 0.26 0.29 0.29 0.31 0.33 0.34 0.36 0.39 0.40 0.39 0.38 0.39 0.39 0.37 0.37 0.39 0.41 0.43 0.45 0.45 0.49 0.50 0.46 0.42 0.39 0.39 0.40 0.38 0.36 0.38 0.36 0.32
0.13 0.11 0.07 0.05 0.04 0.03 0.03 0.02 0.02 0.01 0.01 0.01 0.01 0.02 0.02 0.02 0.03 0.03 0.03 0.07 0.10 0.15 0.19 0.23 0.26 0.28 0.30 0.31 0.34 0.36 0.39 0.44 0.47 0.51 0.54 0.53 0.47 0.44 0.43 0.44 0.44 0.45 0.45 0.45 0.47 0.49 0.52 0.51 0.47 0.45 0.43 0.42 0.41 0.40

GFSWCAN_prec_precacc_108.txt.gz
Total_Precipitation_Accumulation
1.09 1.25 1.46 1.48 1.25 1.16 1.25 1.25 1.12 0.66 0.61 0.84 0.99 1.06 1.06 0.80 0.67 0.42 0.36 0.38 0.33 0.20 0.08 0.02 0.02 0.04 0.18 0.42 0.61 0.56 0.71 0.50 0.53 0.80 0.74 0.42 0.14 0.06 0.04 0.08 0.04 0.10 0.22 0.24 0.22 0.27 0.04 0.00 0.00 0.01 0.01 0.00 0.00 0.05
1.24 1.24 1.35 1.40 1.39 1.53 1.31 0.93 0.91 0.83 0.58 0.53 0.78 0.88 1.03 0.79 0.62 0.53 0.34 0.33 0.34 0.27 0.11 0.03 0.01 0.01 0.05 0.27 0.60 0.60 0.59 0.42 0.52 0.54 0.47 0.38 0.30 0.24 0.10 0.08 0.02 0.03 0.03 0.09 0.08 0.05 0.01 0.01 0.00 0.00 0.00 0.00 0.00 0.01
1.22 1.35 1.33 1.28 1.20 1.26 1.69 1.19 0.91 0.77 0.63 0.54 0.53 0.62 0.74 0.77 0.55 0.52 0.32 0.27 0.33 0.31 0.11 0.03 0.02 0.03 0.00 0.08 0.45 0.77 0.49 0.50 0.50 0.47 0.47 0.27 0.25 0.20 0.13 0.12 0.06 0.07 0.03 0.01 0.00 0.01 0.04 0.16 0.17 0.08 0.04 0.01 0.00 0.00
1.10 1.29 1.30 1.19 1.23 1.08 1.37 1.69 1.12 0.80 0.56 0.51 0.53 0.49 0.51 0.62 0.53 0.46 0.29 0.20 0.36 0.45 0.31 0.11 0.03 0.06 0.05 0.06 0.35 0.69 0.69 0.56 0.58 0.52 0.58 0.43 0.21 0.15 0.09 0.04 0.04 0.03 0.02 0.02 0.00 0.00 0.00 0.00 0.02 0.05 0.07 0.07 0.05 0.03
1.11 1.16 1.28 1.28 1.21 1.30 1.17 1.43 1.36 0.89 0.61 0.53 0.52 0.51 0.57 0.62 0.57 0.34 0.17 0.19 0.28 0.65 0.55 0.31 0.11 0.01 0.04 0.05 0.28 0.67 0.88 0.85 0.79 0.84 0.58 0.37 0.19 0.15 0.05 0.03 0.01 0.00 0.00 0.01 0.01 0.01 0.00 0.00 0.00 0.00 0.00 0.01 0.03 0.03
1.20 1.16 1.30 1.35 1.40 1.40 1.33 1.12 1.13 0.89 0.64 0.51 0.56 0.67 0.70 0.80 0.78 0.49 0.43 0.29 0.34 0.48 0.79 0.59 0.29 0.08 0.06 0.12 0.15 0.50 0.72 0.69 0.77 0.92 0.54 0.24 0.13 0.35 0.22 0.07 0.00 0.00 0.00 0.00 0.00 0.00 0.00 0.00 0.00 0.00 0.00 0.00 0.00 0.01
1.11 1.16 1.18 1.33 1.49 1.57 1.36 1.09 1.11 0.91 0.78 0.65 0.69 0.64 0.66 0.82 0.61 0.56 0.37 0.47 0.42 0.39 0.65 0.72 0.53 0.22 0.12 0.43 0.18 0.39 0.85 1.01 0.87 0.87 0.50 0.27 0.20 0.58 0.48 0.07 0.00 0.00 0.00 0.00 0.00 0.00 0.01 0.00 0.00 0.00 0.01 0.01 0.01 0.02
1.56 1.74 1.71 1.49 1.53 1.68 1.57 1.21 1.31 1.02 1.06 0.83 0.82 0.81 0.88 1.08 0.78 0.48 0.16 0.26 0.38 0.58 0.56 0.59 0.54 0.49 0.38 0.69 0.46 0.52 0.99 1.21 1.13 0.80 0.44 0.24 0.25 0.40 0.28 0.01 0.00 0.00 0.01 0.00 0.00 0.00 0.00 0.00 0.00 0.00 0.01 0.02 0.03 0.04
1.60 1.74 1.95 2.16 2.15 1.93 1.76 1.57 1.53 1.26 1.26 1.14 1.16 1.18 1.31 1.12 0.64 0.38 0.54 0.53 0.38 0.85 0.88 0.44 0.36 0.62 0.42 0.72 0.60 0.56 0.82 1.15 0.94 0.78 0.43 0.57 0.46 0.36 0.06 0.01 0.01 0.02 0.03 0.01 0.00 0.00 0.00 0.01 0.00 0.00 0.01 0.04 0.07 0.09
1.55 1.64 1.69 1.95 2.38 2.55 2.42 2.21 1.90 1.49 1.41 1.53 1.41 1.57 1.53 1.01 0.67 0.83 1.22 1.00 0.97 0.75 0.60 0.39 0.28 0.35 0.40 0.47 0.65 0.50 0.66 0.82 0.72 0.52 0.59 0.54 0.28 0.13 0.05 0.06 0.03 0.00 0.01 0.00 0.00 0.01 0.01 0.01 0.00 0.00 0.00 0.03 0.07 0.16
1.50 1.62 1.76 2.00 2.32 2.56 2.96 3.04 2.50 2.09 2.00 1.90 1.99 1.47 1.27 1.25 1.27 1.27 1.25 0.75 0.73 0.37 0.15 0.09 0.18 0.29 0.34 0.53 0.67 0.50 0.84 0.52 0.84 0.47 0.53 0.60 0.44 0.28 0.08 0.04 0.00 0.00 0.01 0.01 0.00 0.00 0.00 0.00 0.01 0.01 0.02 0.03 0.03 0.07
1.49 1.40 1.68 2.17 2.39 2.83 3.04 3.26 3.54 3.53 2.80 1.65 1.12 1.51 1.72 1.60 1.60 1.25 0.84 0.34 0.18 0.05 0.02 0.10 0.20 0.33 0.37 0.52 0.42 0.28 0.51 0.51 0.43 0.26 0.42 0.47 0.50 0.34 0.14 0.03 0.01 0.00 0.01 0.01 0.01 0.03 0.02 0.03 0.07 0.10 0.10 0.09 0.09 0.10
1.52 1.32 1.51 1.94 2.34 2.67 2.87 2.85 3.33 3.21 2.11 1.65 1.87 2.57 1.74 1.48 1.05 0.41 0.27 0.11 0.03 0.01 0.09 0.27 0.34 0.39 0.43 0.60 0.42 0.25 0.19 0.24 0.26 0.27 0.24 0.27 0.12 0.11 0.19 0.12 0.03 0.02 0.16 0.23 0.19 0.16 0.11 0.13 0.19 0.24 0.24 0.27 0.27 0.27
1.52 1.50 1.61 1.81 2.13 2.24 2.85 3.57 3.76 3.42 2.83 2.55 2.34 2.09 0.92 0.69 0.13 0.09 0.05 0.01 0.01 0.04 0.09 0.14 0.39 0.41 0.29 0.37 0.38 0.26 0.14 0.19 0.19 0.08 0.03 0.03 0.01 0.02 0.03 0.13 0.18 0.15 0.10 0.13 0.23 0.27 0.27 0.29 0.40 0.34 0.28 0.23 0.15 0.10
1.54 1.84 1.85 1.75 1.92 2.48 3.20 4.00 3.93 2.96 2.62 2.06 1.21 0.75 0.36 0.10 0.06 0.04 0.05 0.03 0.01 0.01 0.01 0.07 0.32 0.26 0.28 0.33 0.24 0.17 0.17 0.14 0.07 0.05 0.01 0.00 0.02 0.01 0.03 0.13 0.38 0.32 0.21 0.11 0.08 0.10 0.14 0.18 0.22 0.19 0.11 0.11 0.11 0.11
2.03 2.42 2.32 2.06 2.02 2.35 3.28 3.24 3.20 2.52 2.60 1.87 0.89 0.40 0.12 0.04 0.07 0.07 0.05 0.05 0.04 0.06 0.13 0.21 0.25 0.19 0.19 0.18 0.16 0.12 0.12 0.07 0.09 0.04 0.00 0.00 0.02 0.03 0.08 0.22 0.33 0.21 0.15 0.16 0.12 0.05 0.02 0.01 0.00 0.02 0.07 0.09 0.11 0.15
2.20 2.64 2.74 2.32 2.34 2.64 2.81 2.96 2.69 2.64 2.78 1.78 0.51 0.07 0.06 0.10 0.09 0.06 0.05 0.06 0.08 0.13 0.24 0.41 0.39 0.19 0.16 0.14 0.04 0.03 0.06 0.06 0.04 0.02 0.00 0.00 0.00 0.02 0.08 0.19 0.30 0.18 0.19 0.25 0.21 0.09 0.03 0.01 0.00 0.00 0.00 0.00 0.00 0.02
1.96 2.14 2.24 2.31 2.15 2.14 2.49 2.69 3.00 2.76 2.11 0.91 0.19 0.18 0.18 0.13 0.08 0.05 0.06 0.14 0.23 0.31 0.32 0.58 0.26 0.16 0.08 0.07 0.03 0.03 0.02 0.01 0.01 0.00 0.00 0.00 0.00 0.00 0.02 0.11 0.20 0.22 0.21 0.17 0.12 0.06 0.04 0.02 0.02 0.02 0.03 0.03 0.02 0.03
1.68 1.72 1.65 1.29 0.90 1.39 2.45 2.68 2.12 1.45 0.92 0.43 0.35 0.39 0.26 0.15 0.04 0.03 0.04 0.10 0.23 0.35 0.53 0.57 0.38 0.14 0.01 0.02 0.04 0.03 0.01 0.01 0.01 0.00 0.00 0.00 0.00 0.00 0.00 0.00 0.01 0.03 0.06 0.08 0.09 0.08 0.06 0.05 0.04 0.03 0.04 0.06 0.06 0.10
2.12 2.13 1.68 1.19 0.97 1.21 1.25 1.72 1.25 0.81 0.62 0.58 0.58 0.52 0.33 0.22 0.12 0.05 0.04 0.07 0.13 0.29 0.46 0.36 0.11 0.03 0.02 0.03 0.02 0.02 0.00 0.00 0.00 0.00 0.00 0.00 0.00 0.00 0.00 0.00 0.00 0.00 0.00 0.00 0.01 0.01 0.01 0.01 0.01 0.01 0.00 0.00 0.01 0.01
2.65 2.71 2.25 1.61 1.52 1.01 0.81 0.74 0.85 0.79 0.70 0.81 1.01 0.75 0.68 0.53 0.37 0.28 0.38 0.35 0.52 0.58 0.28 0.11 0.04 0.02 0.03 0.05 0.06 0.03 0.01 0.01 0.00 0.00 0.00 0.00 0.00 0.00 0.00 0.00 0.00 0.00 0.00 0.00 0.00 0.00 0.00 0.00 0.00 0.00 0.00 0.00 0.00 0.00
2.19 1.92 1.62 1.54 1.41 0.98 0.65 0.57 0.61 0.71 0.60 0.90 1.07 0.91 0.88 0.81 0.80 0.75 0.69 0.88 0.85 0.38 0.13 0.06 0.09 0.07 0.04 0.04 0.06 0.06 0.05 0.03 0.01 0.00 0.00 0.00 0.00 0.00 0.00 0.00 0.00 0.00 0.00 0.00 0.00 0.00 0.00 0.00 0.00 0.00 0.00 0.00 0.00 0.00
1.17 1.13 1.48 1.64 1.38 0.80 0.79 0.60 0.58 0.71 0.74 0.92 0.99 0.86 0.92 0.85 0.90 1.01 1.09 0.80 0.45 0.26 0.18 0.16 0.14 0.14 0.12 0.08 0.06 0.04 0.05 0.06 0.04 0.02 0.01 0.00 0.00 0.00 0.00 0.00 0.00 0.00 0.00 0.00 0.00 0.00 0.00 0.00 0.00 0.00 0.00 0.00 0.00 0.00
1.08 1.67 1.68 1.26 0.78 0.55 0.46 0.48 0.41 0.44 0.60 0.66 0.69 0.61 0.56 0.72 0.85 0.79 0.57 0.28 0.25 0.27 0.25 0.25 0.20 0.13 0.12 0.14 0.16 0.13 0.09 0.07 0.05 0.06 0.08 0.07 0.04 0.02 0.01 0.01 0.00 0.00 0.00 0.00 0.00 0.00 0.00 0.00 0.00 0.00 0.00 0.00 0.00 0.00
1.63 1.54 0.91 0.62 0.26 0.14 0.14 0.26 0.32 0.30 0.37 0.48 0.51 0.49 0.48 0.57 0.63 0.46 0.26 0.20 0.33 0.40 0.34 0.26 0.19 0.16 0.14 0.12 0.12 0.15 0.16 0.16 0.13 0.09 0.10 0.13 0.11 0.10 0.10 0.06 0.03 0.01 0.00 0.00 0.00 0.00 0.00 0.00 0.00 0.00 0.00 0.00 0.01 0.03
0.81 0.45 0.27 0.12 0.06 0.04 0.06 0.14 0.25 0.29 0.34 0.44 0.43 0.39 0.43 0.43 0.36 0.31 0.18 0.21 0.34 0.45 0.47 0.37 0.27 0.20 0.17 0.17 0.18 0.22 0.21 0.20 0.18 0.15 0.21 0.27 0.20 0.15 0.11 0.10 0.09 0.07 0.04 0.03 0.04 0.03 0.04 0.04 0.03 0.04 0.03 0.03 0.07 0.17
0.25 0.08 0.03 0.00 0.01 0.02 0.03 0.05 0.10 0.18 0.29 0.26 0.22 0.24 0.28 0.29 0.26 0.14 0.13 0.22 0.33 0.40 0.45 0.47 0.38 0.26 0.22 0.22 0.23 0.25 0.28 0.32 0.28 0.21 0.24 0.33 0.34 0.29 0.20 0.14 0.08 0.06 0.10 0.15 0.13 0.11 0.10 0.11 0.11 0.12 0.15 0.17 0.17 0.19
0.04 0.00 0.01 0.01 0.02 0.03 0.04 0.06 0.09 0.10 0.10 0.08 0.16 0.17 0.16 0.12 0.08 0.08 0.13 0.22 0.34 0.38 0.44 0.48 0.46 0.34 0.29 0.27 0.28 0.31 0.34 0.38 0.39 0.33 0.31 0.35 0.39 0.40 0.38 0.31 0.29 0.29 0.27 0.24 0.26 0.27 0.26 0.23 0.23 0.24 0.25 0.24 0.20 0.21
0.02 0.01 0.02 0.09 0.12 0.13 0.13 0.09 0.05 0.03 0.02 0.02 0.05 0.06 0.04 0.03 0.06 0.09 0.14 0.22 0.30 0.36 0.39 0.42 0.45 0.43 0.39 0.37 0.36 0.37 0.38 0.37 0.32 0.27 0.20 0.20 0.25 0.34 0.42 0.44 0.46 0.48 0.43 0.36 0.35 0.32 0.28 0.28 0.30 0.32 0.33 0.31 0.27 0.27
0.07 0.07 0.10 0.16 0.13 0.10 0.08 0.06 0.06 0.03 0.01 0.02 0.03 0.02 0.01 0.03 0.06 0.09 0.14 0.19 0.26 0.32 0.37 0.42 0.44 0.44 0.42 0.40 0.41 0.42 0.43 0.43 0.41 0.31 0.24 0.21 0.23 0.31 0.40 0.44 0.46 0.47 0.47 0.43 0.41 0.45 0.44 0.44 0.43 0.42 0.38 0.36 0.33 0.31
0.14 0.12 0.10 0.09 0.08 0.07 0.09 0.11 0.11 0.09 0.05 0.02 0.01 0.00 0.01 0.02 0.04 0.07 0.11 0.16 0.22 0.28 0.33 0.36 0.39 0.43 0.42 0.44 0.43 0.42 0.40 0.41 0.42 0.43 0.39 0.38 0.40 0.40 0.43 0.46 0.46 0.47 0.48 0.47 0.43 0.38 0.34 0.30 0.24 0.22 0.25 0.26 0.26 0.26
0.17 0.12 0.05 0.05 0.08 0.12 0.11 0.09 0.07 0.05 0.05 0.03 0.01 0.01 0.01 0.02 0.03 0.04 0.07 0.10 0.15 0.20 0.26 0.29 0.29 0.31 0.33 0.34 0.36 0.39 0.40 0.39 0.38 0.39 0.39 0.37 0.37 0.39 0.41 0.43 0.45 0.45 0.49 0.51 0.47 0.42 0.39 0.39 0.40 0.38 0.36 0.38 0.36 0.32
0.17 0.16 0.10 0.07 0.09 0.07 0.07 0.05 0.04 0.04 0.04 0.03 0.02 0.02 0.02 0.02 0.03 0.03 0.03 0.07 0.10 0.15 0.19 0.23 0.26 0.28 0.30 0.31 0.34 0.36 0.39 0.44 0.47 0.51 0.54 0.53 0.47 0.44 0.43 0.45 0.44 0.45 0.45 0.46 0.47 0.49 0.52 0.51 0.47 0.45 0.43 0.42 0.41 0.40

GFSWCAN_prec_precacc_111.txt.gz
Total_Precipitation_Accumulation
1.09 1.25 1.47 1.49 1.25 1.16 1.25 1.25 1.12 0.67 0.61 0.84 0.99 1.06 1.06 0.81 0.67 0.42 0.36 0.38 0.33 0.20 0.08 0.02 0.02 0.04 0.18 0.42 0.61 0.56 0.71 0.50 0.53 0.80 0.74 0.42 0.14 0.06 0.04 0.08 0.04 0.10 0.22 0.24 0.22 0.27 0.04 0.00 0.00 0.01 0.01 0.00 0.00 0.05
1.24 1.24 1.35 1.41 1.39 1.53 1.31 0.93 0.91 0.83 0.58 0.53 0.78 0.88 1.03 0.82 0.65 0.54 0.34 0.33 0.34 0.27 0.11 0.03 0.01 0.01 0.05 0.27 0.60 0.60 0.59 0.42 0.52 0.54 0.47 0.38 0.30 0.24 0.10 0.08 0.02 0.03 0.03 0.09 0.08 0.05 0.01 0.01 0.00 0.00 0.00 0.00 0.00 0.01
1.22 1.35 1.33 1.28 1.20 1.26 1.69 1.19 0.91 0.78 0.63 0.54 0.53 0.62 0.75 0.78 0.56 0.53 0.32 0.27 0.33 0.31 0.11 0.03 0.02 0.03 0.00 0.08 0.45 0.77 0.49 0.50 0.50 0.47 0.47 0.27 0.25 0.20 0.13 0.12 0.06 0.07 0.03 0.01 0.00 0.01 0.04 0.16 0.17 0.08 0.04 0.01 0.00 0.00
1.10 1.29 1.30 1.19 1.23 1.08 1.37 1.69 1.12 0.80 0.56 0.51 0.53 0.49 0.51 0.63 0.54 0.46 0.29 0.20 0.36 0.45 0.31 0.11 0.03 0.06 0.05 0.06 0.35 0.69 0.69 0.56 0.58 0.52 0.58 0.43 0.21 0.15 0.09 0.04 0.04 0.03 0.02 0.02 0.00 0.00 0.00 0.00 0.02 0.05 0.07 0.07 0.05 0.03
1.11 1.16 1.28 1.28 1.21 1.30 1.17 1.43 1.36 0.89 0.61 0.53 0.52 0.51 0.57 0.63 0.58 0.34 0.17 0.19 0.28 0.65 0.55 0.31 0.11 0.01 0.04 0.05 0.28 0.67 0.88 0.85 0.79 0.84 0.58 0.37 0.19 0.15 0.05 0.03 0.01 0.00 0.00 0.01 0.01 0.01 0.00 0.00 0.00 0.00 0.00 0.01 0.03 0.03
1.20 1.16 1.30 1.35 1.40 1.40 1.33 1.12 1.14 0.90 0.64 0.52 0.56 0.67 0.71 0.80 0.79 0.49 0.43 0.29 0.34 0.48 0.79 0.59 0.29 0.08 0.06 0.12 0.15 0.50 0.72 0.69 0.77 0.92 0.54 0.24 0.13 0.35 0.22 0.07 0.00 0.00 0.00 0.00 0.00 0.00 0.00 0.00 0.00 0.00 0.00 0.00 0.00 0.01
1.13 1.16 1.18 1.33 1.49 1.57 1.36 1.09 1.11 0.92 0.78 0.66 0.69 0.64 0.67 0.83 0.65 0.59 0.39 0.47 0.42 0.39 0.65 0.72 0.53 0.22 0.12 0.43 0.18 0.39 0.85 1.01 0.87 0.87 0.50 0.27 0.20 0.58 0.48 0.07 0.00 0.00 0.00 0.00 0.00 0.00 0.01 0.00 0.00 0.00 0.01 0.01 0.01 0.02
1.57 1.74 1.71 1.49 1.53 1.68 1.58 1.21 1.31 1.02 1.06 0.83 0.83 0.82 0.89 1.11 0.87 0.58 0.17 0.26 0.38 0.58 0.56 0.59 0.54 0.49 0.38 0.69 0.46 0.52 0.99 1.21 1.13 0.80 0.44 0.24 0.25 0.40 0.28 0.01 0.00 0.00 0.01 0.00 0.00 0.00 0.00 0.00 0.00 0.00 0.01 0.02 0.03 0.04
1.60 1.75 1.96 2.16 2.15 1.93 1.76 1.57 1.53 1.26 1.26 1.15 1.18 1.22 1.34 1.17 0.72 0.43 0.58 0.54 0.38 0.85 0.88 0.44 0.36 0.62 0.42 0.72 0.60 0.56 0.82 1.15 0.94 0.78 0.43 0.57 0.46 0.36 0.06 0.01 0.01 0.02 0.03 0.01 0.00 0.00 0.00 0.01 0.00 0.00 0.01 0.04 0.07 0.09
1.55 1.64 1.70 1.96 2.39 2.56 2.42 2.21 1.91 1.49 1.42 1.56 1.46 1.60 1.55 1.05 0.70 0.86 1.29 1.03 0.98 0.76 0.60 0.39 0.28 0.35 0.40 0.47 0.65 0.50 0.66 0.82 0.72 0.52 0.59 0.54 0.28 0.13 0.05 0.06 0.03 0.00 0.01 0.00 0.00 0.01 0.01 0.01 0.00 0.00 0.00 0.03 0.07 0.16
1.51 1.62 1.76 2.00 2.33 2.56 2.96 3.05 2.51 2.13 2.05 1.96 2.06 1.51 1.28 1.28 1.32 1.34 1.40 0.87 0.78 0.40 0.16 0.09 0.18 0.29 0.34 0.53 0.67 0.50 0.84 0.52 0.84 0.47 0.53 0.60 0.44 0.28 0.08 0.04 0.00 0.00 0.01 0.01 0.00 0.00 0.00 0.00 0.01 0.01 0.02 0.03 0.04 0.07
1.49 1.40 1.68 2.17 2.39 2.84 3.05 3.28 3.57 3.57 2.85 1.72 1.18 1.54 1.85 1.76 1.77 1.41 1.03 0.41 0.19 0.05 0.02 0.10 0.20 0.33 0.37 0.52 0.42 0.28 0.51 0.51 0.43 0.26 0.42 0.47 0.50 0.34 0.14 0.03 0.01 0.00 0.01 0.01 0.01 0.03 0.02 0.03 0.07 0.10 0.10 0.09 0.10 0.10
1.52 1.32 1.51 1.94 2.34 2.68 2.88 2.87 3.37 3.32 2.22 1.70 1.91 2.65 1.90 1.64 1.23 0.53 0.34 0.13 0.03 0.01 0.09 0.27 0.34 0.39 0.43 0.60 0.42 0.25 0.19 0.24 0.26 0.27 0.24 0.27 0.12 0.11 0.19 0.12 0.03 0.02 0.16 0.23 0.19 0.16 0.11 0.13 0.19 0.24 0.24 0.27 0.27 0.27
1.52 1.50 1.61 1.81 2.13 2.25 2.88 3.60 3.86 3.65 2.97 2.65 2.48 2.23 1.04 0.81 0.19 0.11 0.05 0.01 0.01 0.04 0.09 0.14 0.39 0.41 0.29 0.37 0.38 0.26 0.14 0.19 0.19 0.08 0.03 0.03 0.01 0.02 0.03 0.13 0.18 0.15 0.10 0.13 0.23 0.27 0.27 0.29 0.40 0.34 0.28 0.23 0.15 0.10
1.54 1.84 1.85 1.76 1.92 2.50 3.23 4.07 4.16 3.21 2.77 2.20 1.34 0.85 0.45 0.14 0.07 0.04 0.05 0.03 0.01 0.01 0.01 0.07 0.32 0.26 0.28 0.33 0.24 0.17 0.17 0.14 0.07 0.05 0.01 0.00 0.02 0.01 0.03 0.13 0.38 0.32 0.21 0.11 0.08 0.10 0.14 0.18 0.22 0.19 0.11 0.11 0.11 0.11
2.03 2.44 2.32 2.07 2.03 2.38 3.37 3.45 3.53 2.80 2.73 1.95 0.98 0.49 0.14 0.04 0.07 0.07 0.05 0.05 0.04 0.06 0.13 0.21 0.25 0.19 0.19 0.18 0.16 0.12 0.12 0.07 0.09 0.04 0.00 0.00 0.02 0.03 0.08 0.22 0.33 0.21 0.15 0.16 0.12 0.05 0.02 0.01 0.00 0.02 0.07 0.09 0.11 0.15
2.21 2.65 2.75 2.34 2.37 2.73 3.04 3.38 3.17 2.92 2.96 1.93 0.58 0.09 0.08 0.10 0.09 0.07 0.05 0.06 0.08 0.13 0.24 0.41 0.39 0.19 0.16 0.14 0.04 0.03 0.06 0.06 0.04 0.02 0.00 0.00 0.00 0.02 0.08 0.19 0.30 0.18 0.19 0.25 0.21 0.09 0.03 0.01 0.00 0.00 0.00 0.00 0.00 0.02
1.96 2.15 2.28 2.38 2.29 2.41 2.81 2.92 3.18 2.91 2.22 0.99 0.26 0.19 0.19 0.14 0.08 0.05 0.06 0.14 0.23 0.31 0.32 0.58 0.26 0.16 0.08 0.07 0.03 0.03 0.02 0.01 0.01 0.00 0.00 0.00 0.00 0.00 0.02 0.11 0.20 0.22 0.21 0.17 0.12 0.06 0.04 0.02 0.02 0.02 0.03 0.03 0.02 0.03
1.68 1.76 1.76 1.47 1.06 1.57 2.64 2.83 2.16 1.49 0.98 0.50 0.40 0.43 0.26 0.15 0.04 0.03 0.04 0.10 0.23 0.35 0.53 0.57 0.38 0.14 0.01 0.02 0.04 0.03 0.01 0.01 0.01 0.00 0.00 0.00 0.00 0.00 0.00 0.00 0.01 0.03 0.06 0.08 0.09 0.08 0.06 0.05 0.04 0.03 0.04 0.06 0.06 0.10
2.16 2.23 1.85 1.25 0.98 1.23 1.32 1.83 1.30 0.86 0.68 0.71 0.64 0.58 0.38 0.23 0.12 0.06 0.05 0.07 0.13 0.29 0.47 0.36 0.11 0.03 0.02 0.03 0.02 0.02 0.00 0.00 0.00 0.00 0.00 0.00 0.00 0.00 0.00 0.00 0.00 0.00 0.00 0.00 0.01 0.01 0.01 0.01 0.01 0.01 0.00 0.00 0.01 0.01
2.90 2.94 2.39 1.69 1.57 1.06 0.88 0.79 0.97 0.88 0.74 0.90 1.11 0.81 0.76 0.54 0.38 0.29 0.40 0.35 0.52 0.59 0.28 0.11 0.04 0.02 0.03 0.05 0.06 0.03 0.01 0.01 0.00 0.00 0.00 0.00 0.00 0.00 0.00 0.00 0.00 0.00 0.00 0.00 0.00 0.00 0.00 0.00 0.00 0.00 0.00 0.00 0.00 0.00
2.54 2.18 1.73 1.59 1.47 1.06 0.76 0.62 0.73 0.84 0.65 0.95 1.18 1.00 0.95 0.90 0.83 0.75 0.71 0.91 0.86 0.38 0.13 0.06 0.09 0.07 0.04 0.04 0.06 0.06 0.05 0.03 0.01 0.00 0.00 0.00 0.00 0.00 0.00 0.00 0.00 0.00 0.00 0.00 0.00 0.00 0.00 0.00 0.00 0.00 0.00 0.00 0.00 0.00
1.31 1.27 1.56 1.72 1.48 0.90 0.86 0.66 0.66 0.88 0.84 0.98 1.03 0.92 0.97 0.92 1.00 1.09 1.14 0.82 0.46 0.26 0.18 0.16 0.14 0.14 0.12 0.08 0.06 0.04 0.05 0.06 0.04 0.02 0.01 0.00 0.00 0.00 0.00 0.00 0.00 0.00 0.00 0.00 0.00 0.00 0.00 0.00 0.00 0.00 0.00 0.00 0.00 0.00
1.18 1.87 1.85 1.36 0.89 0.66 0.50 0.52 0.46 0.49 0.66 0.75 0.73 0.64 0.59 0.77 0.94 0.92 0.66 0.29 0.25 0.27 0.25 0.25 0.20 0.13 0.12 0.14 0.16 0.13 0.09 0.07 0.05 0.06 0.08 0.07 0.04 0.02 0.01 0.01 0.00 0.00 0.00 0.00 0.00 0.00 0.00 0.00 0.00 0.00 0.00 0.00 0.00 0.00
1.85 1.77 1.10 0.74 0.31 0.19 0.16 0.27 0.32 0.30 0.37 0.49 0.53 0.52 0.51 0.61 0.67 0.49 0.27 0.20 0.33 0.41 0.35 0.26 0.19 0.16 0.14 0.12 0.12 0.15 0.16 0.16 0.13 0.09 0.10 0.13 0.11 0.10 0.10 0.06 0.03 0.01 0.00 0.00 0.00 0.00 0.00 0.00 0.00 0.00 0.00 0.00 0.01 0.03
1.00 0.58 0.40 0.17 0.06 0.04 0.06 0.14 0.25 0.29 0.34 0.44 0.44 0.41 0.46 0.48 0.39 0.32 0.18 0.21 0.34 0.45 0.47 0.37 0.27 0.20 0.17 0.17 0.18 0.22 0.21 0.20 0.18 0.15 0.21 0.27 0.20 0.15 0.11 0.10 0.09 0.07 0.04 0.03 0.04 0.03 0.04 0.04 0.03 0.04 0.03 0.03 0.07 0.17
0.38 0.13 0.04 0.01 0.01 0.02 0.03 0.05 0.10 0.18 0.29 0.26 0.23 0.26 0.32 0.34 0.29 0.15 0.13 0.22 0.33 0.40 0.45 0.47 0.38 0.26 0.22 0.22 0.23 0.25 0.28 0.32 0.28 0.21 0.24 0.33 0.34 0.29 0.20 0.14 0.08 0.06 0.10 0.15 0.13 0.11 0.10 0.11 0.11 0.12 0.15 0.17 0.17 0.19
0.07 0.01 0.01 0.01 0.02 0.03 0.04 0.06 0.09 0.10 0.11 0.09 0.16 0.20 0.20 0.14 0.08 0.08 0.13 0.22 0.34 0.38 0.44 0.48 0.46 0.34 0.29 0.27 0.28 0.31 0.34 0.38 0.39 0.33 0.31 0.35 0.39 0.40 0.38 0.31 0.29 0.29 0.27 0.24 0.26 0.27 0.26 0.23 0.23 0.24 0.25 0.24 0.20 0.21
0.02 0.01 0.02 0.09 0.12 0.13 0.13 0.09 0.05 0.03 0.02 0.02 0.05 0.06 0.05 0.03 0.06 0.09 0.14 0.22 0.30 0.36 0.39 0.42 0.46 0.43 0.39 0.37 0.36 0.37 0.38 0.37 0.32 0.27 0.20 0.20 0.25 0.34 0.42 0.44 0.46 0.48 0.43 0.36 0.35 0.32 0.28 0.28 0.30 0.32 0.33 0.31 0.27 0.27
0.07 0.07 0.11 0.16 0.13 0.10 0.09 0.06 0.06 0.04 0.02 0.04 0.06 0.05 0.02 0.03 0.06 0.09 0.14 0.20 0.26 0.33 0.37 0.42 0.44 0.44 0.42 0.40 0.41 0.42 0.43 0.43 0.41 0.31 0.24 0.21 0.23 0.31 0.40 0.44 0.46 0.47 0.47 0.43 0.41 0.45 0.44 0.44 0.43 0.42 0.38 0.36 0.33 0.31
0.15 0.12 0.10 0.11 0.09 0.07 0.09 0.13 0.14 0.12 0.08 0.06 0.06 0.06 0.05 0.03 0.04 0.07 0.11 0.16 0.22 0.29 0.33 0.37 0.40 0.44 0.42 0.44 0.43 0.42 0.40 0.41 0.42 0.43 0.39 0.38 0.40 0.40 0.43 0.46 0.46 0.47 0.48 0.47 0.43 0.38 0.34 0.30 0.24 0.22 0.25 0.26 0.26 0.26
0.19 0.13 0.07 0.07 0.12 0.16 0.15 0.13 0.12 0.09 0.09 0.08 0.06 0.05 0.04 0.04 0.03 0.04 0.07 0.10 0.15 0.20 0.26 0.29 0.29 0.31 0.33 0.34 0.36 0.39 0.40 0.39 0.38 0.39 0.39 0.37 0.37 0.39 0.41 0.43 0.45 0.45 0.49 0.51 0.47 0.42 0.39 0.39 0.40 0.38 0.36 0.38 0.36 0.32
0.22 0.20 0.15 0.12 0.14 0.14 0.13 0.11 0.09 0.09 0.09 0.07 0.06 0.05 0.03 0.02 0.03 0.03 0.03 0.07 0.10 0.15 0.19 0.23 0.26 0.28 0.30 0.31 0.34 0.36 0.39 0.44 0.47 0.51 0.54 0.53 0.47 0.44 0.43 0.45 0.44 0.45 0.45 0.46 0.47 0.49 0.52 0.51 0.47 0.45 0.43 0.42 0.41 0.40

GFSWCAN_prec_precacc_114.txt.gz
Total_Precipitation_Accumulation
1.09 1.25 1.47 1.49 1.26 1.17 1.25 1.25 1.12 0.67 0.61 0.84 0.99 1.06 1.06 0.81 0.68 0.44 0.36 0.38 0.33 0.20 0.08 0.02 0.02 0.04 0.18 0.42 0.61 0.56 0.71 0.50 0.53 0.80 0.74 0.42 0.14 0.06 0.04 0.08 0.04 0.10 0.22 0.24 0.22 0.27 0.04 0.00 0.00 0.01 0.01 0.00 0.00 0.05
1.24 1.24 1.35 1.41 1.39 1.54 1.32 0.93 0.91 0.83 0.58 0.53 0.78 0.88 1.03 0.82 0.66 0.56 0.36 0.34 0.34 0.27 0.11 0.03 0.01 0.01 0.05 0.27 0.60 0.60 0.59 0.42 0.52 0.54 0.47 0.38 0.30 0.24 0.10 0.08 0.02 0.03 0.03 0.09 0.08 0.05 0.01 0.01 0.00 0.00 0.00 0.00 0.00 0.01
1.22 1.35 1.33 1.28 1.21 1.27 1.70 1.19 0.91 0.78 0.63 0.54 0.53 0.62 0.75 0.78 0.57 0.53 0.32 0.28 0.34 0.31 0.11 0.03 0.02 0.03 0.00 0.08 0.45 0.77 0.49 0.50 0.50 0.47 0.47 0.27 0.25 0.20 0.13 0.12 0.06 0.07 0.03 0.01 0.00 0.01 0.04 0.16 0.17 0.08 0.04 0.01 0.00 0.00
1.10 1.29 1.31 1.20 1.24 1.09 1.38 1.70 1.12 0.80 0.56 0.51 0.54 0.49 0.51 0.63 0.56 0.46 0.29 0.20 0.36 0.45 0.31 0.11 0.03 0.06 0.05 0.06 0.35 0.69 0.69 0.56 0.58 0.52 0.58 0.43 0.21 0.15 0.09 0.04 0.04 0.03 0.02 0.02 0.00 0.00 0.00 0.00 0.02 0.05 0.07 0.07 0.05 0.03
1.11 1.16 1.28 1.28 1.21 1.30 1.18 1.43 1.36 0.89 0.61 0.53 0.52 0.51 0.57 0.63 0.59 0.35 0.17 0.19 0.28 0.65 0.55 0.31 0.11 0.01 0.04 0.05 0.28 0.67 0.88 0.85 0.79 0.84 0.58 0.37 0.19 0.15 0.05 0.03 0.01 0.00 0.00 0.01 0.01 0.01 0.00 0.00 0.00 0.00 0.00 0.01 0.03 0.03
1.21 1.17 1.31 1.36 1.40 1.41 1.33 1.12 1.14 0.90 0.64 0.52 0.56 0.68 0.71 0.80 0.80 0.49 0.43 0.29 0.34 0.48 0.79 0.59 0.29 0.08 0.06 0.12 0.15 0.50 0.72 0.69 0.77 0.92 0.54 0.24 0.13 0.35 0.22 0.07 0.00 0.00 0.00 0.00 0.00 0.00 0.00 0.00 0.00 0.00 0.00 0.00 0.00 0.01
1.14 1.18 1.20 1.34 1.49 1.58 1.37 1.09 1.11 0.92 0.78 0.66 0.69 0.64 0.67 0.83 0.65 0.61 0.41 0.47 0.42 0.39 0.65 0.72 0.53 0.22 0.12 0.43 0.18 0.39 0.85 1.01 0.87 0.87 0.50 0.27 0.20 0.58 0.48 0.07 0.00 0.00 0.00 0.00 0.00 0.00 0.01 0.00 0.00 0.00 0.01 0.01 0.01 0.02
1.59 1.77 1.74 1.51 1.54 1.69 1.58 1.22 1.31 1.02 1.07 0.83 0.83 0.82 0.91 1.12 0.88 0.61 0.19 0.26 0.38 0.58 0.56 0.59 0.54 0.49 0.38 0.69 0.46 0.52 0.99 1.21 1.13 0.80 0.44 0.24 0.25 0.40 0.28 0.01 0.00 0.00 0.01 0.00 0.00 0.00 0.00 0.00 0.00 0.00 0.01 0.02 0.03 0.04
1.64 1.78 2.00 2.21 2.19 1.96 1.79 1.59 1.54 1.26 1.27 1.15 1.20 1.25 1.38 1.19 0.72 0.44 0.59 0.54 0.38 0.86 0.89 0.45 0.36 0.62 0.42 0.72 0.60 0.56 0.82 1.15 0.94 0.78 0.43 0.57 0.46 0.36 0.06 0.01 0.01 0.02 0.03 0.01 0.00 0.00 0.00 0.01 0.00 0.00 0.01 0.04 0.07 0.09
1.59 1.69 1.76 2.03 2.46 2.62 2.49 2.25 1.92 1.50 1.43 1.58 1.50 1.64 1.57 1.06 0.70 0.86 1.31 1.09 1.04 0.82 0.62 0.39 0.28 0.35 0.40 0.47 0.65 0.50 0.66 0.82 0.72 0.52 0.59 0.54 0.28 0.13 0.05 0.06 0.03 0.00 0.01 0.00 0.00 0.01 0.01 0.01 0.00 0.00 0.00 0.03 0.07 0.16
1.55 1.67 1.82 2.07 2.41 2.65 3.03 3.09 2.53 2.14 2.09 2.00 2.10 1.56 1.30 1.29 1.32 1.35 1.47 1.00 0.88 0.49 0.18 0.09 0.18 0.29 0.34 0.53 0.67 0.50 0.84 0.52 0.84 0.47 0.53 0.60 0.44 0.28 0.08 0.04 0.00 0.00 0.01 0.01 0.00 0.00 0.00 0.00 0.01 0.01 0.02 0.03 0.04 0.07
1.53 1.43 1.72 2.22 2.46 2.91 3.10 3.31 3.59 3.59 2.87 1.73 1.19 1.59 1.89 1.80 1.78 1.43 1.09 0.46 0.23 0.06 0.02 0.10 0.20 0.33 0.37 0.52 0.42 0.28 0.51 0.51 0.43 0.26 0.42 0.47 0.50 0.34 0.14 0.03 0.01 0.00 0.01 0.01 0.01 0.03 0.02 0.03 0.07 0.10 0.10 0.09 0.10 0.10
1.56 1.36 1.56 2.00 2.41 2.76 2.95 2.91 3.40 3.35 2.26 1.73 1.95 2.72 1.94 1.69 1.25 0.57 0.36 0.14 0.03 0.01 0.09 0.27 0.34 0.39 0.43 0.60 0.42 0.25 0.19 0.24 0.26 0.27 0.24 0.27 0.12 0.11 0.19 0.12 0.03 0.02 0.16 0.23 0.19 0.16 0.11 0.13 0.19 0.24 0.24 0.27 0.27 0.27
1.57 1.55 1.67 1.88 2.20 2.31 2.92 3.62 3.89 3.72 3.10 2.79 2.60 2.35 1.08 0.84 0.19 0.12 0.05 0.01 0.01 0.04 0.09 0.14 0.39 0.41 0.29 0.37 0.38 0.26 0.14 0.19 0.19 0.08 0.03 0.03 0.01 0.02 0.03 0.13 0.18 0.15 0.10 0.13 0.23 0.27 0.27 0.29 0.40 0.34 0.28 0.23 0.15 0.10
1.63 1.91 1.91 1.81 1.97 2.53 3.26 4.09 4.20 3.35 2.95 2.38 1.44 0.89 0.47 0.14 0.07 0.04 0.05 0.03 0.01 0.01 0.01 0.07 0.32 0.26 0.28 0.34 0.25 0.17 0.17 0.14 0.07 0.05 0.01 0.00 0.02 0.01 0.03 0.13 0.38 0.32 0.21 0.11 0.08 0.10 0.14 0.18 0.22 0.19 0.11 0.11 0.11 0.11
2.14 2.54 2.40 2.11 2.06 2.40 3.40 3.50 3.60 3.03 2.95 2.07 1.07 0.51 0.15 0.04 0.07 0.07 0.05 0.05 0.04 0.06 0.13 0.21 0.26 0.20 0.19 0.18 0.16 0.12 0.12 0.07 0.09 0.04 0.00 0.00 0.02 0.03 0.08 0.22 0.33 0.21 0.15 0.16 0.12 0.05 0.02 0.01 0.00 0.02 0.07 0.09 0.11 0.15
2.33 2.73 2.78 2.34 2.38 2.76 3.09 3.46 3.45 3.39 3.28 2.15 0.66 0.10 0.08 0.10 0.09 0.07 0.06 0.06 0.08 0.13 0.24 0.41 0.39 0.21 0.16 0.14 0.04 0.03 0.06 0.06 0.04 0.02 0.00 0.00 0.00 0.02 0.08 0.19 0.30 0.18 0.19 0.25 0.21 0.09 0.03 0.01 0.00 0.00 0.00 0.00 0.00 0.02
2.03 2.17 2.28 2.39 2.32 2.48 2.96 3.13 3.47 3.20 2.45 1.12 0.30 0.19 0.19 0.16 0.09 0.05 0.06 0.15 0.24 0.32 0.32 0.58 0.26 0.16 0.08 0.07 0.03 0.03 0.02 0.01 0.01 0.00 0.00 0.00 0.00 0.00 0.02 0.11 0.20 0.22 0.21 0.17 0.12 0.06 0.04 0.02 0.02 0.02 0.03 0.03 0.02 0.03
1.69 1.76 1.78 1.51 1.08 1.61 2.84 3.10 2.34 1.63 1.07 0.53 0.41 0.44 0.26 0.16 0.06 0.03 0.04 0.11 0.27 0.37 0.53 0.58 0.40 0.14 0.01 0.02 0.04 0.03 0.01 0.01 0.01 0.00 0.00 0.00 0.00 0.00 0.00 0.00 0.01 0.03 0.06 0.08 0.09 0.08 0.06 0.05 0.04 0.03 0.04 0.06 0.06 0.10
2.18 2.28 1.89 1.26 0.98 1.26 1.41 2.01 1.43 0.93 0.72 0.73 0.64 0.58 0.39 0.24 0.12 0.06 0.05 0.12 0.23 0.43 0.58 0.38 0.12 0.03 0.02 0.03 0.02 0.02 0.00 0.00 0.00 0.00 0.00 0.00 0.00 0.00 0.00 0.00 0.00 0.00 0.00 0.00 0.01 0.01 0.01 0.01 0.01 0.01 0.00 0.00 0.01 0.01
2.96 3.02 2.49 1.74 1.65 1.13 0.92 0.85 1.03 0.91 0.75 0.90 1.11 0.82 0.79 0.58 0.39 0.30 0.44 0.43 0.70 0.75 0.37 0.13 0.04 0.02 0.03 0.05 0.06 0.03 0.01 0.01 0.00 0.00 0.00 0.00 0.00 0.00 0.00 0.00 0.00 0.00 0.00 0.00 0.00 0.00 0.00 0.00 0.00 0.00 0.00 0.00 0.00 0.00
2.78 2.29 1.88 1.67 1.51 1.10 0.78 0.63 0.73 0.84 0.65 0.96 1.19 1.02 0.99 0.96 0.87 0.78 0.76 1.04 1.01 0.44 0.14 0.07 0.09 0.08 0.04 0.04 0.06 0.06 0.05 0.03 0.01 0.00 0.00 0.00 0.00 0.00 0.00 0.00 0.00 0.00 0.00 0.00 0.00 0.00 0.00 0.00 0.00 0.00 0.00 0.00 0.00 0.00
1.45 1.32 1.65 1.82 1.55 0.92 0.89 0.70 0.68 0.90 0.85 0.98 1.05 0.98 1.06 0.99 1.05 1.10 1.18 0.87 0.50 0.28 0.20 0.19 0.16 0.15 0.13 0.08 0.06 0.04 0.05 0.06 0.04 0.02 0.01 0.00 0.00 0.00 0.00 0.00 0.00 0.00 0.00 0.00 0.00 0.00 0.00 0.00 0.00 0.00 0.00 0.00 0.00 0.00
1.23 1.95 1.99 1.44 0.92 0.68 0.52 0.58 0.53 0.56 0.75 0.81 0.77 0.68 0.67 0.84 1.01 0.99 0.71 0.30 0.25 0.28 0.28 0.32 0.27 0.18 0.14 0.14 0.16 0.13 0.09 0.07 0.05 0.06 0.08 0.07 0.04 0.02 0.01 0.01 0.00 0.00 0.00 0.00 0.00 0.00 0.00 0.00 0.00 0.00 0.00 0.00 0.00 0.00
2.03 1.94 1.21 0.79 0.33 0.24 0.19 0.30 0.39 0.38 0.44 0.58 0.60 0.58 0.56 0.68 0.77 0.55 0.29 0.20 0.34 0.42 0.36 0.29 0.24 0.21 0.18 0.14 0.13 0.15 0.16 0.16 0.13 0.10 0.10 0.13 0.11 0.10 0.10 0.06 0.03 0.01 0.00 0.00 0.00 0.00 0.00 0.00 0.00 0.00 0.00 0.00 0.01 0.03
1.16 0.72 0.48 0.20 0.07 0.06 0.11 0.16 0.26 0.33 0.40 0.50 0.48 0.44 0.54 0.58 0.47 0.36 0.18 0.21 0.35 0.46 0.48 0.39 0.29 0.22 0.18 0.18 0.19 0.22 0.21 0.20 0.18 0.15 0.21 0.27 0.20 0.15 0.11 0.10 0.09 0.07 0.04 0.03 0.04 0.03 0.04 0.04 0.03 0.04 0.03 0.03 0.07 0.17
0.48 0.19 0.06 0.03 0.01 0.02 0.04 0.07 0.10 0.18 0.31 0.27 0.24 0.26 0.32 0.37 0.31 0.15 0.13 0.22 0.33 0.40 0.46 0.49 0.41 0.27 0.23 0.22 0.23 0.25 0.28 0.32 0.28 0.22 0.25 0.33 0.34 0.29 0.20 0.14 0.08 0.06 0.10 0.15 0.13 0.11 0.10 0.11 0.11 0.12 0.15 0.17 0.17 0.19
0.11 0.03 0.01 0.02 0.02 0.03 0.04 0.06 0.09 0.10 0.11 0.09 0.16 0.20 0.20 0.14 0.08 0.08 0.13 0.22 0.35 0.42 0.50 0.55 0.50 0.36 0.29 0.27 0.28 0.31 0.35 0.39 0.40 0.34 0.31 0.36 0.39 0.40 0.38 0.31 0.29 0.29 0.27 0.24 0.26 0.27 0.26 0.23 0.23 0.24 0.25 0.24 0.20 0.21
0.02 0.01 0.02 0.09 0.12 0.13 0.13 0.09 0.05 0.04 0.02 0.02 0.05 0.06 0.05 0.03 0.06 0.09 0.14 0.22 0.35 0.44 0.48 0.52 0.52 0.44 0.39 0.37 0.36 0.37 0.38 0.37 0.32 0.27 0.20 0.20 0.25 0.34 0.42 0.44 0.46 0.48 0.43 0.36 0.35 0.32 0.28 0.28 0.30 0.32 0.33 0.31 0.27 0.27
0.08 0.07 0.11 0.17 0.13 0.10 0.09 0.07 0.06 0.04 0.02 0.04 0.06 0.05 0.02 0.03 0.06 0.09 0.14 0.20 0.28 0.38 0.45 0.50 0.50 0.47 0.43 0.40 0.42 0.43 0.43 0.43 0.41 0.31 0.24 0.21 0.23 0.31 0.40 0.44 0.46 0.47 0.47 0.43 0.41 0.45 0.45 0.44 0.43 0.42 0.38 0.36 0.33 0.31
0.15 0.12 0.10 0.11 0.09 0.07 0.10 0.13 0.14 0.12 0.08 0.06 0.06 0.07 0.06 0.03 0.04 0.07 0.11 0.16 0.22 0.30 0.37 0.45 0.50 0.51 0.46 0.46 0.44 0.42 0.40 0.41 0.42 0.43 0.39 0.38 0.40 0.40 0.43 0.46 0.46 0.47 0.48 0.47 0.43 0.38 0.34 0.30 0.24 0.22 0.25 0.26 0.26 0.26
0.19 0.14 0.07 0.08 0.12 0.17 0.16 0.14 0.13 0.10 0.10 0.09 0.07 0.06 0.06 0.06 0.05 0.04 0.07 0.11 0.16 0.24 0.31 0.36 0.36 0.38 0.39 0.36 0.36 0.39 0.40 0.39 0.38 0.39 0.39 0.37 0.37 0.39 0.41 0.43 0.45 0.45 0.49 0.51 0.47 0.42 0.39 0.39 0.40 0.38 0.36 0.38 0.36 0.32
0.22 0.21 0.15 0.13 0.16 0.17 0.16 0.13 0.11 0.10 0.10 0.09 0.08 0.06 0.05 0.04 0.05 0.04 0.04 0.08 0.13 0.19 0.23 0.28 0.32 0.33 0.33 0.32 0.34 0.36 0.39 0.44 0.47 0.51 0.54 0.53 0.47 0.44 0.43 0.45 0.44 0.45 0.45 0.46 0.47 0.49 0.52 0.51 0.47 0.45 0.43 0.42 0.41 0.40

GFSWCAN_prec_precacc_120.txt.gz
Total_Precipitation_Accumulation
1.18 1.33 1.51 1.51 1.27 1.18 1.25 1.25 1.12 0.67 0.61 0.84 0.99 1.06 1.06 0.81 0.68 0.44 0.36 0.38 0.33 0.20 0.08 0.02 0.02 0.04 0.18 0.42 0.61 0.56 0.71 0.50 0.53 0.80 0.74 0.42 0.14 0.06 0.04 0.08 0.04 0.10 0.22 0.24 0.22 0.27 0.04 0.00 0.00 0.01 0.01 0.00 0.00 0.05
1.31 1.31 1.41 1.44 1.40 1.55 1.32 0.93 0.91 0.84 0.58 0.53 0.78 0.88 1.03 0.82 0.66 0.57 0.36 0.34 0.34 0.27 0.11 0.03 0.01 0.01 0.05 0.27 0.60 0.60 0.59 0.42 0.52 0.54 0.47 0.38 0.30 0.24 0.10 0.08 0.02 0.03 0.03 0.09 0.08 0.05 0.01 0.01 0.00 0.00 0.00 0.00 0.00 0.01
1.27 1.41 1.39 1.33 1.23 1.28 1.71 1.19 0.91 0.78 0.63 0.54 0.53 0.62 0.75 0.78 0.57 0.54 0.32 0.28 0.34 0.31 0.11 0.03 0.02 0.03 0.00 0.08 0.45 0.77 0.49 0.50 0.50 0.47 0.47 0.27 0.25 0.20 0.13 0.12 0.06 0.07 0.03 0.01 0.00 0.01 0.04 0.16 0.17 0.08 0.04 0.01 0.00 0.00
1.15 1.34 1.36 1.25 1.28 1.10 1.39 1.70 1.13 0.81 0.56 0.51 0.54 0.49 0.51 0.63 0.56 0.47 0.29 0.20 0.36 0.45 0.31 0.11 0.03 0.06 0.05 0.06 0.35 0.69 0.69 0.56 0.58 0.52 0.58 0.43 0.21 0.15 0.09 0.04 0.04 0.03 0.02 0.02 0.00 0.00 0.00 0.00 0.02 0.05 0.07 0.07 0.05 0.03
1.16 1.22 1.35 1.37 1.29 1.34 1.20 1.45 1.38 0.90 0.61 0.53 0.52 0.51 0.57 0.63 0.60 0.37 0.18 0.19 0.28 0.65 0.55 0.31 0.11 0.01 0.04 0.05 0.28 0.67 0.88 0.85 0.79 0.84 0.58 0.37 0.19 0.15 0.05 0.03 0.01 0.00 0.00 0.01 0.01 0.01 0.00 0.00 0.00 0.00 0.00 0.01 0.03 0.03
1.27 1.24 1.40 1.47 1.51 1.48 1.39 1.18 1.20 0.94 0.66 0.52 0.56 0.68 0.71 0.81 0.81 0.50 0.44 0.29 0.34 0.48 0.79 0.59 0.29 0.08 0.06 0.12 0.15 0.50 0.72 0.69 0.77 0.92 0.54 0.24 0.13 0.35 0.22 0.07 0.00 0.00 0.00 0.00 0.00 0.00 0.00 0.00 0.00 0.00 0.00 0.00 0.00 0.01
1.21 1.26 1.31 1.51 1.69 1.76 1.52 1.23 1.26 1.04 0.86 0.70 0.70 0.65 0.68 0.85 0.66 0.61 0.41 0.47 0.42 0.39 0.65 0.72 0.53 0.22 0.12 0.43 0.18 0.39 0.85 1.01 0.87 0.87 0.50 0.27 0.20 0.58 0.48 0.07 0.00 0.00 0.00 0.00 0.00 0.00 0.01 0.00 0.00 0.00 0.01 0.01 0.01 0.02
1.68 1.88 1.88 1.70 1.79 1.96 1.85 1.46 1.56 1.26 1.25 0.97 0.90 0.84 0.93 1.16 0.88 0.61 0.19 0.27 0.38 0.58 0.56 0.60 0.54 0.49 0.38 0.69 0.46 0.52 0.99 1.21 1.13 0.80 0.44 0.24 0.25 0.40 0.28 0.01 0.00 0.00 0.01 0.00 0.00 0.00 0.00 0.00 0.00 0.00 0.01 0.02 0.03 0.04
1.70 1.86 2.10 2.37 2.46 2.31 2.17 1.98 1.96 1.68 1.63 1.40 1.32 1.32 1.45 1.23 0.73 0.44 0.59 0.55 0.40 0.87 0.90 0.47 0.36 0.62 0.42 0.72 0.60 0.56 0.82 1.15 0.94 0.78 0.43 0.57 0.46 0.36 0.06 0.01 0.01 0.02 0.03 0.01 0.00 0.00 0.00 0.01 0.00 0.00 0.01 0.04 0.07 0.09
1.66 1.78 1.88 2.20 2.74 3.03 2.95 2.77 2.52 2.09 1.88 1.86 1.69 1.77 1.64 1.08 0.70 0.86 1.31 1.09 1.12 0.95 0.73 0.44 0.28 0.35 0.40 0.47 0.65 0.50 0.66 0.82 0.72 0.52 0.59 0.54 0.28 0.13 0.05 0.06 0.03 0.00 0.01 0.00 0.00 0.01 0.01 0.01 0.00 0.00 0.00 0.03 0.07 0.16
1.63 1.77 1.95 2.25 2.68 3.07 3.58 3.71 3.24 2.81 2.63 2.38 2.35 1.68 1.32 1.29 1.35 1.37 1.48 1.01 0.91 0.58 0.24 0.11 0.18 0.29 0.34 0.53 0.67 0.50 0.84 0.52 0.84 0.47 0.53 0.60 0.44 0.28 0.08 0.04 0.00 0.00 0.01 0.01 0.00 0.00 0.00 0.00 0.01 0.01 0.02 0.03 0.04 0.07
1.72 1.66 1.96 2.48 2.79 3.39 3.75 4.08 4.38 4.26 3.38 1.98 1.29 1.68 2.03 1.97 1.90 1.52 1.12 0.47 0.24 0.06 0.02 0.10 0.20 0.33 0.37 0.52 0.42 0.28 0.51 0.51 0.43 0.26 0.42 0.47 0.50 0.34 0.14 0.03 0.01 0.00 0.01 0.01 0.01 0.03 0.02 0.03 0.07 0.10 0.10 0.09 0.10 0.10
1.77 1.62 1.86 2.37 2.91 3.45 3.81 3.81 4.18 3.90 2.60 2.00 2.26 3.07 2.15 1.86 1.34 0.62 0.38 0.15 0.03 0.01 0.09 0.27 0.34 0.39 0.43 0.60 0.42 0.25 0.19 0.24 0.26 0.27 0.24 0.27 0.12 0.11 0.19 0.12 0.03 0.02 0.16 0.23 0.19 0.16 0.11 0.13 0.19 0.24 0.24 0.27 0.27 0.27
1.89 1.91 2.08 2.39 2.88 3.21 3.95 4.63 4.87 4.49 3.62 3.36 3.05 2.71 1.22 0.92 0.20 0.12 0.05 0.01 0.01 0.04 0.09 0.14 0.39 0.41 0.29 0.37 0.38 0.26 0.14 0.19 0.19 0.08 0.03 0.03 0.01 0.02 0.03 0.13 0.18 0.15 0.10 0.13 0.23 0.27 0.27 0.29 0.40 0.34 0.28 0.23 0.15 0.10
2.06 2.42 2.50 2.55 2.84 3.53 4.31 5.15 5.18 3.93 3.51 2.99 1.81 1.06 0.51 0.14 0.07 0.04 0.05 0.03 0.01 0.01 0.01 0.07 0.32 0.26 0.28 0.34 0.25 0.17 0.17 0.14 0.07 0.05 0.01 0.00 0.02 0.01 0.03 0.13 0.38 0.32 0.21 0.11 0.08 0.10 0.14 0.18 0.22 0.19 0.11 0.11 0.11 0.11
2.72 3.37 3.44 3.06 3.01 3.38 4.42 4.54 4.51 3.75 3.64 2.56 1.29 0.56 0.15 0.04 0.07 0.07 0.05 0.05 0.04 0.06 0.13 0.21 0.26 0.20 0.20 0.18 0.16 0.12 0.12 0.07 0.09 0.04 0.00 0.00 0.02 0.03 0.08 0.22 0.33 0.21 0.15 0.16 0.12 0.05 0.02 0.01 0.00 0.02 0.07 0.09 0.11 0.15
3.31 3.92 3.69 3.11 3.26 3.69 4.15 4.69 4.67 4.44 3.99 2.60 0.79 0.11 0.08 0.10 0.09 0.07 0.06 0.06 0.08 0.13 0.24 0.41 0.39 0.21 0.16 0.14 0.04 0.03 0.06 0.06 0.04 0.02 0.00 0.00 0.00 0.02 0.08 0.19 0.30 0.18 0.19 0.25 0.21 0.09 0.03 0.01 0.00 0.00 0.00 0.00 0.00 0.02
3.14 2.95 2.69 2.94 3.20 3.66 4.21 4.13 4.24 3.78 2.80 1.24 0.32 0.19 0.19 0.16 0.09 0.05 0.06 0.15 0.24 0.32 0.33 0.59 0.27 0.16 0.08 0.07 0.03 0.03 0.02 0.01 0.01 0.00 0.00 0.00 0.00 0.00 0.02 0.11 0.20 0.22 0.21 0.17 0.12 0.06 0.04 0.02 0.02 0.02 0.03 0.03 0.02 0.03
2.32 2.13 2.30 2.30 2.12 2.81 3.94 4.01 2.89 1.92 1.15 0.54 0.41 0.44 0.26 0.16 0.06 0.03 0.04 0.11 0.27 0.37 0.54 0.59 0.44 0.18 0.01 0.02 0.04 0.03 0.01 0.01 0.01 0.00 0.00 0.00 0.00 0.00 0.00 0.00 0.01 0.03 0.06 0.08 0.09 0.08 0.06 0.05 0.04 0.03 0.04 0.06 0.06 0.10
2.71 2.81 2.56 2.06 1.67 1.90 1.94 2.47 1.72 1.06 0.77 0.74 0.64 0.58 0.39 0.24 0.12 0.06 0.05 0.12 0.23 0.44 0.64 0.46 0.15 0.04 0.02 0.03 0.02 0.02 0.00 0.00 0.00 0.00 0.00 0.00 0.00 0.00 0.00 0.00 0.00 0.00 0.00 0.00 0.01 0.01 0.01 0.01 0.01 0.01 0.00 0.00 0.01 0.01
3.73 3.83 3.33 2.60 2.48 1.78 1.29 1.06 1.15 1.00 0.80 0.92 1.12 0.82 0.79 0.59 0.39 0.30 0.44 0.43 0.71 0.77 0.40 0.17 0.05 0.02 0.03 0.05 0.06 0.03 0.01 0.01 0.00 0.00 0.00 0.00 0.00 0.00 0.00 0.00 0.00 0.01 0.01 0.00 0.00 0.00 0.00 0.00 0.00 0.00 0.00 0.00 0.00 0.00
3.52 3.08 2.88 2.49 2.16 1.54 0.99 0.74 0.74 0.87 0.67 0.97 1.19 1.03 1.01 0.98 0.88 0.78 0.76 1.06 1.04 0.44 0.14 0.07 0.09 0.08 0.04 0.04 0.06 0.06 0.05 0.03 0.01 0.00 0.00 0.00 0.00 0.00 0.00 0.00 0.00 0.00 0.01 0.00 0.00 0.00 0.00 0.00 0.00 0.00 0.00 0.00 0.00 0.00
1.88 1.75 2.10 2.34 1.96 1.17 1.10 0.78 0.70 0.92 0.87 1.02 1.08 1.01 1.09 1.00 1.05 1.11 1.21 0.89 0.51 0.28 0.20 0.19 0.17 0.16 0.13 0.08 0.06 0.04 0.05 0.06 0.05 0.02 0.02 0.01 0.00 0.00 0.01 0.01 0.00 0.00 0.01 0.00 0.00 0.00 0.00 0.00 0.00 0.00 0.00 0.00 0.00 0.00
1.48 2.34 2.43 1.78 1.09 0.79 0.65 0.70 0.57 0.57 0.78 0.85 0.80 0.71 0.69 0.85 1.03 1.02 0.73 0.30 0.25 0.28 0.28 0.34 0.31 0.22 0.18 0.16 0.16 0.13 0.09 0.07 0.06 0.07 0.08 0.08 0.05 0.03 0.01 0.01 0.01 0.01 0.00 0.00 0.00 0.00 0.00 0.00 0.00 0.00 0.00 0.00 0.00 0.00
2.43 2.32 1.48 1.05 0.44 0.27 0.22 0.33 0.42 0.38 0.45 0.59 0.60 0.59 0.57 0.70 0.78 0.57 0.29 0.20 0.34 0.42 0.36 0.30 0.29 0.30 0.29 0.25 0.21 0.19 0.18 0.16 0.13 0.10 0.11 0.15 0.15 0.14 0.11 0.07 0.04 0.02 0.00 0.00 0.00 0.00 0.00 0.00 0.00 0.00 0.00 0.00 0.01 0.03
1.37 0.89 0.60 0.25 0.10 0.06 0.11 0.16 0.27 0.33 0.40 0.51 0.49 0.46 0.55 0.59 0.48 0.36 0.18 0.21 0.35 0.47 0.49 0.40 0.32 0.28 0.27 0.28 0.33 0.35 0.29 0.24 0.20 0.16 0.22 0.27 0.22 0.19 0.13 0.11 0.11 0.08 0.04 0.03 0.04 0.03 0.04 0.04 0.03 0.04 0.03 0.03 0.07 0.17
0.63 0.25 0.08 0.03 0.01 0.02 0.04 0.07 0.10 0.18 0.32 0.29 0.25 0.28 0.35 0.41 0.33 0.15 0.13 0.22 0.33 0.40 0.46 0.50 0.43 0.34 0.34 0.35 0.38 0.41 0.44 0.46 0.35 0.24 0.26 0.34 0.35 0.29 0.21 0.14 0.09 0.06 0.10 0.15 0.13 0.11 0.11 0.11 0.11 0.12 0.15 0.17 0.17 0.19
0.17 0.04 0.01 0.02 0.02 0.03 0.04 0.06 0.09 0.10 0.11 0.09 0.16 0.20 0.20 0.14 0.08 0.08 0.13 0.22 0.35 0.42 0.50 0.57 0.54 0.46 0.48 0.47 0.48 0.53 0.55 0.57 0.54 0.42 0.35 0.38 0.42 0.42 0.38 0.32 0.29 0.30 0.28 0.24 0.26 0.27 0.26 0.23 0.23 0.24 0.25 0.24 0.20 0.21
0.03 0.01 0.02 0.09 0.12 0.13 0.13 0.09 0.05 0.04 0.02 0.02 0.05 0.06 0.05 0.03 0.06 0.09 0.14 0.22 0.35 0.47 0.55 0.62 0.68 0.63 0.64 0.63 0.57 0.52 0.49 0.47 0.41 0.33 0.22 0.22 0.29 0.38 0.44 0.45 0.47 0.49 0.43 0.36 0.36 0.32 0.28 0.28 0.30 0.32 0.33 0.31 0.27 0.27
0.08 0.08 0.11 0.17 0.13 0.10 0.09 0.07 0.06 0.04 0.02 0.04 0.06 0.05 0.02 0.03 0.06 0.09 0.14 0.20 0.29 0.44 0.60 0.72 0.74 0.70 0.64 0.56 0.56 0.58 0.59 0.57 0.47 0.31 0.24 0.22 0.23 0.33 0.42 0.45 0.47 0.48 0.47 0.43 0.41 0.45 0.45 0.44 0.43 0.42 0.38 0.36 0.33 0.31
0.15 0.12 0.10 0.11 0.09 0.08 0.10 0.14 0.15 0.12 0.09 0.07 0.06 0.07 0.06 0.03 0.04 0.07 0.11 0.16 0.23 0.37 0.54 0.67 0.77 0.78 0.67 0.63 0.57 0.52 0.52 0.53 0.50 0.45 0.39 0.38 0.40 0.41 0.43 0.46 0.47 0.47 0.48 0.47 0.43 0.38 0.34 0.30 0.24 0.22 0.25 0.26 0.26 0.26
0.20 0.14 0.07 0.08 0.13 0.18 0.17 0.15 0.13 0.11 0.11 0.09 0.07 0.06 0.06 0.06 0.05 0.04 0.07 0.11 0.17 0.30 0.47 0.56 0.58 0.65 0.65 0.57 0.51 0.48 0.45 0.45 0.43 0.41 0.41 0.38 0.37 0.39 0.41 0.43 0.45 0.45 0.49 0.51 0.47 0.42 0.39 0.39 0.40 0.38 0.36 0.38 0.36 0.32
0.23 0.22 0.16 0.13 0.17 0.18 0.17 0.14 0.12 0.11 0.11 0.10 0.08 0.07 0.06 0.05 0.05 0.04 0.04 0.08 0.14 0.23 0.36 0.46 0.54 0.59 0.59 0.54 0.49 0.47 0.48 0.52 0.52 0.53 0.56 0.53 0.47 0.44 0.43 0.45 0.44 0.45 0.45 0.46 0.47 0.49 0.52 0.51 0.47 0.45 0.43 0.42 0.41 0.40

GFSWCAN_prec_precacc_123.txt.gz
Total_Precipitation_Accumulation
1.20 1.34 1.52 1.51 1.27 1.18 1.25 1.25 1.12 0.67 0.61 0.84 0.99 1.06 1.06 0.81 0.68 0.44 0.36 0.38 0.33 0.20 0.08 0.02 0.02 0.04 0.18 0.42 0.61 0.56 0.71 0.50 0.53 0.80 0.74 0.42 0.14 0.06 0.04 0.08 0.04 0.10 0.22 0.24 0.22 0.27 0.04 0.00 0.00 0.01 0.01 0.00 0.00 0.05
1.32 1.32 1.42 1.44 1.40 1.55 1.32 0.93 0.91 0.84 0.59 0.53 0.78 0.88 1.03 0.82 0.66 0.57 0.36 0.34 0.34 0.27 0.11 0.03 0.01 0.01 0.05 0.27 0.60 0.60 0.59 0.42 0.52 0.54 0.47 0.38 0.30 0.24 0.10 0.08 0.02 0.03 0.03 0.09 0.08 0.05 0.01 0.01 0.00 0.00 0.00 0.00 0.00 0.01
1.27 1.41 1.40 1.34 1.24 1.29 1.71 1.19 0.91 0.78 0.63 0.54 0.53 0.62 0.75 0.78 0.57 0.54 0.32 0.28 0.34 0.31 0.11 0.03 0.02 0.03 0.00 0.08 0.45 0.77 0.49 0.50 0.50 0.47 0.47 0.27 0.25 0.20 0.13 0.12 0.06 0.07 0.03 0.01 0.00 0.01 0.04 0.16 0.17 0.08 0.04 0.01 0.00 0.00
1.15 1.35 1.37 1.26 1.30 1.12 1.41 1.71 1.14 0.82 0.57 0.52 0.54 0.49 0.51 0.63 0.56 0.48 0.29 0.20 0.36 0.45 0.31 0.11 0.03 0.06 0.05 0.06 0.35 0.69 0.69 0.56 0.58 0.52 0.58 0.43 0.21 0.15 0.09 0.04 0.04 0.03 0.02 0.02 0.00 0.00 0.00 0.00 0.02 0.05 0.07 0.07 0.05 0.03
1.16 1.22 1.35 1.38 1.31 1.37 1.23 1.48 1.40 0.92 0.63 0.55 0.54 0.53 0.58 0.63 0.60 0.37 0.18 0.19 0.28 0.65 0.55 0.31 0.11 0.01 0.04 0.05 0.28 0.67 0.88 0.85 0.79 0.84 0.58 0.37 0.19 0.15 0.05 0.03 0.01 0.00 0.00 0.01 0.01 0.01 0.00 0.00 0.00 0.00 0.00 0.01 0.03 0.03
1.27 1.24 1.40 1.48 1.52 1.52 1.43 1.23 1.24 0.98 0.71 0.58 0.63 0.76 0.77 0.83 0.81 0.50 0.45 0.29 0.34 0.48 0.80 0.59 0.29 0.08 0.06 0.12 0.15 0.50 0.72 0.69 0.77 0.92 0.54 0.24 0.13 0.35 0.22 0.07 0.00 0.00 0.00 0.00 0.00 0.00 0.00 0.00 0.00 0.00 0.00 0.00 0.00 0.01
1.22 1.27 1.31 1.52 1.71 1.79 1.57 1.31 1.35 1.13 0.96 0.86 0.90 0.88 0.83 0.92 0.67 0.61 0.41 0.47 0.42 0.39 0.66 0.72 0.53 0.22 0.12 0.43 0.18 0.39 0.85 1.01 0.87 0.87 0.50 0.27 0.20 0.58 0.48 0.07 0.00 0.00 0.00 0.00 0.00 0.00 0.01 0.00 0.00 0.00 0.01 0.01 0.01 0.02
1.70 1.89 1.89 1.71 1.81 1.99 1.90 1.54 1.66 1.39 1.45 1.27 1.30 1.24 1.20 1.29 0.94 0.63 0.19 0.27 0.38 0.58 0.56 0.60 0.54 0.49 0.38 0.69 0.46 0.52 0.99 1.21 1.13 0.80 0.44 0.24 0.25 0.40 0.28 0.01 0.00 0.00 0.01 0.00 0.00 0.00 0.00 0.00 0.00 0.00 0.01 0.02 0.03 0.04
1.71 1.87 2.11 2.38 2.47 2.34 2.25 2.09 2.11 1.90 2.00 1.92 1.90 1.85 1.83 1.51 0.86 0.46 0.60 0.57 0.40 0.87 0.91 0.48 0.36 0.62 0.42 0.72 0.60 0.56 0.82 1.15 0.94 0.78 0.43 0.57 0.46 0.36 0.06 0.01 0.01 0.02 0.03 0.01 0.00 0.00 0.00 0.01 0.00 0.00 0.01 0.04 0.07 0.09
1.67 1.79 1.89 2.21 2.76 3.08 3.08 2.95 2.75 2.48 2.58 2.66 2.41 2.34 2.00 1.26 0.74 0.88 1.41 1.22 1.22 1.01 0.78 0.46 0.28 0.35 0.40 0.47 0.65 0.50 0.66 0.82 0.72 0.52 0.59 0.54 0.28 0.13 0.05 0.06 0.03 0.00 0.01 0.00 0.00 0.01 0.01 0.01 0.00 0.00 0.00 0.03 0.07 0.16
1.65 1.79 1.96 2.26 2.70 3.11 3.68 3.92 3.61 3.58 3.62 3.18 2.97 2.05 1.49 1.35 1.44 1.58 1.69 1.13 0.96 0.61 0.26 0.13 0.18 0.29 0.34 0.53 0.67 0.50 0.84 0.52 0.84 0.47 0.53 0.60 0.44 0.28 0.08 0.04 0.00 0.00 0.01 0.01 0.00 0.00 0.00 0.00 0.01 0.01 0.02 0.03 0.04 0.07
1.75 1.69 2.00 2.51 2.83 3.46 3.88 4.34 5.02 5.18 4.14 2.45 1.60 1.92 2.28 2.18 2.11 1.72 1.29 0.52 0.25 0.07 0.02 0.11 0.20 0.33 0.37 0.52 0.42 0.28 0.51 0.51 0.43 0.26 0.42 0.47 0.50 0.34 0.14 0.03 0.01 0.00 0.01 0.01 0.01 0.03 0.02 0.03 0.07 0.10 0.10 0.09 0.10 0.10
1.79 1.65 1.91 2.43 2.99 3.55 3.98 4.21 4.89 4.56 3.18 2.46 2.70 3.54 2.51 2.16 1.54 0.74 0.43 0.16 0.04 0.01 0.10 0.27 0.34 0.39 0.43 0.60 0.43 0.25 0.19 0.24 0.26 0.27 0.24 0.27 0.12 0.11 0.19 0.12 0.03 0.02 0.16 0.23 0.19 0.16 0.11 0.13 0.19 0.24 0.24 0.27 0.27 0.27
1.92 1.93 2.11 2.45 2.99 3.34 4.19 5.18 5.74 5.28 4.21 3.95 3.62 3.23 1.52 1.11 0.26 0.13 0.05 0.01 0.01 0.04 0.09 0.14 0.39 0.41 0.29 0.37 0.38 0.26 0.14 0.19 0.19 0.08 0.03 0.03 0.01 0.02 0.03 0.13 0.18 0.15 0.10 0.13 0.23 0.27 0.27 0.29 0.40 0.34 0.28 0.23 0.15 0.10
2.10 2.48 2.56 2.61 2.95 3.77 4.69 5.86 6.06 4.49 4.06 3.71 2.43 1.47 0.72 0.17 0.07 0.04 0.05 0.03 0.01 0.01 0.01 0.07 0.32 0.26 0.28 0.35 0.25 0.17 0.17 0.14 0.07 0.05 0.01 0.00 0.02 0.01 0.03 0.13 0.38 0.32 0.21 0.11 0.08 0.10 0.14 0.18 0.22 0.19 0.11 0.11 0.11 0.11
2.77 3.46 3.58 3.20 3.16 3.65 4.96 5.39 5.15 4.15 4.25 3.26 1.82 0.82 0.21 0.05 0.07 0.07 0.05 0.05 0.04 0.06 0.14 0.23 0.29 0.24 0.22 0.19 0.16 0.12 0.12 0.07 0.09 0.04 0.00 0.00 0.02 0.03 0.08 0.22 0.33 0.21 0.15 0.16 0.12 0.05 0.02 0.01 0.00 0.02 0.07 0.09 0.11 0.15
3.48 4.16 3.83 3.27 3.53 4.10 4.82 5.60 5.59 5.22 4.71 3.31 1.20 0.23 0.09 0.10 0.09 0.07 0.06 0.06 0.08 0.15 0.27 0.44 0.42 0.23 0.16 0.14 0.04 0.03 0.06 0.06 0.04 0.02 0.00 0.00 0.00 0.02 0.08 0.19 0.30 0.18 0.19 0.25 0.21 0.09 0.03 0.01 0.00 0.00 0.00 0.00 0.00 0.02
3.39 3.19 2.86 3.08 3.57 4.42 5.17 4.99 4.96 4.38 3.34 1.61 0.45 0.21 0.19 0.16 0.09 0.05 0.06 0.15 0.26 0.35 0.34 0.59 0.27 0.16 0.09 0.07 0.03 0.03 0.02 0.01 0.01 0.00 0.00 0.00 0.00 0.00 0.02 0.11 0.20 0.22 0.21 0.17 0.12 0.06 0.04 0.02 0.02 0.02 0.03 0.03 0.02 0.03
2.60 2.29 2.46 2.65 2.90 3.78 4.83 4.81 3.45 2.34 1.39 0.63 0.42 0.44 0.26 0.16 0.06 0.03 0.04 0.12 0.28 0.38 0.55 0.62 0.47 0.19 0.01 0.02 0.04 0.03 0.01 0.01 0.01 0.00 0.00 0.00 0.00 0.00 0.00 0.00 0.01 0.03 0.06 0.08 0.09 0.08 0.06 0.05 0.04 0.03 0.04 0.06 0.06 0.10
3.02 3.05 2.86 2.62 2.20 2.46 2.43 2.86 2.03 1.20 0.81 0.75 0.64 0.58 0.39 0.24 0.12 0.06 0.06 0.15 0.25 0.46 0.70 0.50 0.16 0.04 0.02 0.03 0.02 0.02 0.00 0.00 0.00 0.00 0.00 0.00 0.00 0.00 0.00 0.00 0.00 0.00 0.00 0.00 0.01 0.01 0.01 0.01 0.01 0.01 0.00 0.00 0.01 0.01
4.25 4.41 3.85 3.11 3.10 2.39 1.65 1.26 1.27 1.08 0.84 0.94 1.12 0.82 0.79 0.59 0.39 0.31 0.47 0.47 0.78 0.86 0.44 0.18 0.05 0.02 0.03 0.05 0.06 0.03 0.01 0.01 0.00 0.00 0.00 0.00 0.00 0.00 0.00 0.00 0.00 0.01 0.01 0.00 0.00 0.00 0.00 0.00 0.00 0.00 0.00 0.00 0.00 0.00
4.09 3.59 3.45 3.04 2.80 2.00 1.21 0.83 0.77 0.92 0.71 0.99 1.20 1.03 1.02 0.99 0.89 0.79 0.79 1.15 1.12 0.46 0.14 0.07 0.09 0.08 0.04 0.04 0.06 0.06 0.05 0.03 0.01 0.00 0.00 0.00 0.00 0.00 0.00 0.00 0.00 0.00 0.01 0.02 0.02 0.01 0.00 0.00 0.00 0.00 0.00 0.00 0.00 0.00
2.23 2.01 2.45 2.76 2.30 1.37 1.25 0.84 0.70 0.94 0.90 1.09 1.12 1.07 1.16 1.06 1.12 1.19 1.36 0.99 0.53 0.28 0.20 0.19 0.17 0.16 0.13 0.08 0.06 0.04 0.05 0.06 0.05 0.02 0.02 0.01 0.00 0.00 0.01 0.01 0.00 0.01 0.02 0.04 0.05 0.04 0.02 0.00 0.00 0.00 0.00 0.00 0.00 0.00
1.77 2.70 2.79 2.05 1.21 0.84 0.72 0.76 0.60 0.59 0.82 0.92 0.87 0.76 0.73 0.88 1.09 1.11 0.79 0.31 0.25 0.28 0.28 0.34 0.31 0.22 0.18 0.16 0.16 0.13 0.09 0.07 0.06 0.07 0.08 0.08 0.05 0.03 0.01 0.01 0.01 0.01 0.02 0.04 0.06 0.05 0.01 0.00 0.00 0.00 0.00 0.00 0.00 0.00
2.72 2.58 1.63 1.15 0.49 0.29 0.23 0.35 0.44 0.39 0.47 0.62 0.62 0.62 0.60 0.71 0.81 0.59 0.29 0.20 0.34 0.42 0.36 0.30 0.29 0.30 0.29 0.25 0.21 0.19 0.18 0.16 0.13 0.10 0.11 0.15 0.15 0.14 0.13 0.08 0.05 0.05 0.03 0.04 0.04 0.02 0.01 0.00 0.00 0.00 0.00 0.00 0.01 0.03
1.47 0.98 0.64 0.26 0.10 0.06 0.11 0.17 0.27 0.33 0.40 0.52 0.51 0.49 0.57 0.60 0.49 0.37 0.18 0.21 0.35 0.47 0.49 0.40 0.32 0.28 0.27 0.28 0.33 0.35 0.29 0.24 0.20 0.16 0.22 0.27 0.22 0.19 0.16 0.15 0.17 0.19 0.12 0.06 0.04 0.04 0.04 0.04 0.03 0.04 0.03 0.03 0.07 0.17
0.65 0.26 0.10 0.04 0.01 0.02 0.04 0.07 0.10 0.18 0.32 0.30 0.27 0.29 0.35 0.42 0.33 0.15 0.13 0.22 0.33 0.40 0.46 0.50 0.43 0.34 0.34 0.35 0.38 0.41 0.44 0.46 0.35 0.25 0.26 0.34 0.35 0.29 0.23 0.18 0.14 0.11 0.15 0.18 0.14 0.11 0.11 0.11 0.11 0.12 0.16 0.17 0.17 0.19
0.18 0.04 0.01 0.02 0.02 0.03 0.04 0.06 0.09 0.10 0.11 0.09 0.16 0.21 0.20 0.14 0.08 0.08 0.13 0.22 0.35 0.42 0.50 0.57 0.54 0.46 0.48 0.47 0.48 0.55 0.57 0.58 0.56 0.46 0.42 0.45 0.47 0.45 0.40 0.34 0.34 0.36 0.32 0.25 0.26 0.27 0.26 0.24 0.24 0.25 0.26 0.24 0.20 0.21
0.03 0.01 0.02 0.09 0.12 0.13 0.13 0.09 0.05 0.04 0.02 0.02 0.05 0.06 0.05 0.03 0.06 0.09 0.14 0.22 0.35 0.47 0.55 0.62 0.68 0.64 0.64 0.63 0.58 0.56 0.52 0.49 0.44 0.38 0.27 0.26 0.32 0.43 0.49 0.49 0.53 0.53 0.45 0.37 0.37 0.34 0.30 0.30 0.31 0.32 0.33 0.31 0.27 0.27
0.08 0.08 0.11 0.17 0.13 0.10 0.09 0.07 0.06 0.04 0.02 0.04 0.06 0.05 0.02 0.03 0.06 0.09 0.14 0.20 0.29 0.44 0.60 0.72 0.75 0.71 0.66 0.60 0.61 0.66 0.69 0.65 0.51 0.32 0.25 0.22 0.23 0.34 0.46 0.48 0.50 0.51 0.50 0.46 0.45 0.50 0.48 0.45 0.43 0.42 0.38 0.36 0.33 0.31
0.15 0.12 0.10 0.11 0.09 0.08 0.10 0.14 0.15 0.12 0.09 0.07 0.06 0.07 0.06 0.03 0.04 0.07 0.11 0.16 0.23 0.37 0.55 0.67 0.77 0.78 0.68 0.65 0.60 0.57 0.58 0.60 0.59 0.52 0.43 0.42 0.45 0.47 0.49 0.49 0.49 0.48 0.51 0.50 0.46 0.39 0.34 0.30 0.24 0.22 0.25 0.26 0.26 0.26
0.20 0.14 0.07 0.08 0.13 0.18 0.17 0.15 0.14 0.11 0.11 0.09 0.07 0.06 0.06 0.06 0.05 0.04 0.07 0.11 0.17 0.31 0.47 0.56 0.58 0.66 0.68 0.60 0.56 0.55 0.51 0.50 0.50 0.49 0.48 0.45 0.43 0.43 0.45 0.47 0.49 0.49 0.52 0.53 0.47 0.42 0.39 0.39 0.40 0.38 0.36 0.38 0.36 0.32
0.23 0.22 0.16 0.13 0.17 0.19 0.17 0.14 0.12 0.11 0.11 0.10 0.08 0.07 0.06 0.05 0.05 0.04 0.04 0.08 0.14 0.23 0.36 0.46 0.55 0.62 0.63 0.58 0.53 0.53 0.58 0.62 0.62 0.62 0.63 0.59 0.51 0.47 0.47 0.49 0.48 0.48 0.47 0.46 0.47 0.49 0.52 0.51 0.47 0.45 0.43 0.42 0.41 0.40

GFSWCAN_prec_precacc_126.txt.gz
Total_Precipitation_Accumulation
1.20 1.34 1.52 1.51 1.27 1.18 1.25 1.25 1.13 0.67 0.61 0.84 0.99 1.06 1.06 0.81 0.68 0.44 0.36 0.38 0.33 0.20 0.08 0.02 0.02 0.04 0.18 0.42 0.61 0.56 0.71 0.50 0.53 0.80 0.74 0.42 0.14 0.06 0.04 0.08 0.04 0.10 0.22 0.24 0.22 0.27 0.04 0.00 0.00 0.01 0.01 0.00 0.00 0.05
1.32 1.32 1.42 1.45 1.41 1.55 1.33 0.94 0.92 0.84 0.59 0.53 0.78 0.88 1.03 0.82 0.66 0.57 0.36 0.34 0.34 0.27 0.11 0.03 0.01 0.01 0.05 0.27 0.60 0.60 0.59 0.42 0.52 0.54 0.47 0.38 0.30 0.24 0.10 0.08 0.02 0.03 0.03 0.09 0.08 0.05 0.01 0.01 0.00 0.00 0.00 0.00 0.00 0.01
1.27 1.42 1.41 1.35 1.24 1.29 1.72 1.20 0.93 0.80 0.65 0.55 0.53 0.62 0.75 0.78 0.57 0.54 0.32 0.28 0.34 0.31 0.11 0.03 0.02 0.03 0.00 0.08 0.45 0.77 0.49 0.50 0.50 0.47 0.47 0.27 0.25 0.20 0.13 0.12 0.06 0.07 0.03 0.01 0.00 0.01 0.04 0.16 0.17 0.08 0.04 0.01 0.00 0.00
1.16 1.35 1.37 1.27 1.31 1.13 1.41 1.72 1.16 0.85 0.59 0.53 0.55 0.51 0.53 0.64 0.56 0.48 0.29 0.20 0.36 0.45 0.31 0.11 0.03 0.06 0.05 0.06 0.35 0.69 0.69 0.56 0.58 0.52 0.58 0.43 0.21 0.15 0.09 0.04 0.04 0.03 0.02 0.02 0.00 0.00 0.00 0.00 0.02 0.05 0.07 0.07 0.05 0.03
1.18 1.24 1.36 1.38 1.31 1.37 1.23 1.48 1.41 0.95 0.68 0.60 0.59 0.59 0.66 0.71 0.65 0.40 0.18 0.19 0.28 0.65 0.55 0.31 0.11 0.01 0.04 0.05 0.28 0.67 0.88 0.85 0.79 0.84 0.58 0.37 0.19 0.15 0.05 0.03 0.01 0.00 0.00 0.01 0.01 0.01 0.00 0.00 0.00 0.00 0.00 0.01 0.03 0.03
1.29 1.26 1.42 1.50 1.53 1.52 1.44 1.24 1.26 1.03 0.80 0.69 0.75 0.92 0.96 1.05 1.01 0.60 0.48 0.30 0.34 0.48 0.80 0.59 0.29 0.08 0.06 0.12 0.15 0.50 0.72 0.69 0.77 0.92 0.54 0.24 0.13 0.35 0.22 0.07 0.00 0.00 0.00 0.00 0.00 0.00 0.00 0.00 0.00 0.00 0.00 0.00 0.00 0.01
1.23 1.29 1.33 1.54 1.73 1.80 1.58 1.32 1.38 1.19 1.06 0.99 1.08 1.13 1.16 1.25 0.93 0.71 0.45 0.48 0.42 0.40 0.68 0.72 0.53 0.22 0.12 0.43 0.18 0.39 0.85 1.01 0.87 0.87 0.50 0.27 0.20 0.58 0.48 0.07 0.00 0.00 0.00 0.00 0.00 0.00 0.01 0.00 0.00 0.00 0.01 0.01 0.01 0.02
1.70 1.90 1.90 1.72 1.82 2.00 1.91 1.55 1.69 1.44 1.55 1.46 1.61 1.69 1.73 1.83 1.32 0.82 0.27 0.30 0.40 0.61 0.59 0.61 0.54 0.49 0.38 0.69 0.46 0.52 0.99 1.21 1.13 0.80 0.44 0.24 0.25 0.40 0.28 0.01 0.00 0.00 0.01 0.00 0.00 0.00 0.00 0.00 0.00 0.00 0.01 0.02 0.03 0.04
1.71 1.87 2.11 2.38 2.48 2.36 2.27 2.12 2.14 1.97 2.16 2.28 2.53 2.68 2.76 2.34 1.36 0.66 0.65 0.70 0.53 0.95 0.97 0.50 0.36 0.62 0.42 0.72 0.60 0.56 0.82 1.15 0.94 0.78 0.43 0.57 0.46 0.36 0.06 0.01 0.01 0.02 0.03 0.01 0.00 0.00 0.00 0.01 0.00 0.00 0.01 0.04 0.07 0.09
1.67 1.79 1.89 2.21 2.76 3.08 3.08 2.95 2.78 2.57 2.84 3.38 3.46 3.33 2.73 1.66 0.88 0.91 1.54 1.56 1.47 1.19 0.85 0.48 0.28 0.35 0.40 0.47 0.65 0.50 0.66 0.82 0.72 0.52 0.59 0.54 0.28 0.13 0.05 0.06 0.03 0.00 0.01 0.00 0.00 0.01 0.01 0.01 0.00 0.00 0.00 0.03 0.07 0.16
1.65 1.79 1.96 2.26 2.71 3.12 3.68 3.92 3.63 3.76 4.28 4.08 3.75 2.64 1.89 1.52 1.60 1.83 2.04 1.44 1.11 0.66 0.28 0.14 0.18 0.29 0.34 0.53 0.67 0.51 0.84 0.52 0.84 0.47 0.53 0.60 0.44 0.28 0.08 0.04 0.00 0.00 0.01 0.01 0.00 0.00 0.00 0.00 0.01 0.01 0.02 0.03 0.04 0.07
1.75 1.69 2.00 2.52 2.84 3.47 3.89 4.36 5.09 5.52 4.75 3.00 2.02 2.39 2.88 2.57 2.45 2.07 1.56 0.63 0.30 0.08 0.02 0.11 0.20 0.33 0.37 0.53 0.46 0.33 0.53 0.52 0.43 0.26 0.42 0.47 0.50 0.34 0.14 0.03 0.01 0.00 0.01 0.01 0.01 0.03 0.02 0.03 0.07 0.10 0.10 0.09 0.10 0.10
1.80 1.65 1.91 2.44 3.00 3.57 4.00 4.24 5.00 4.96 3.85 3.06 3.33 4.27 3.18 2.65 1.88 0.97 0.53 0.18 0.04 0.01 0.10 0.27 0.34 0.39 0.44 0.62 0.52 0.31 0.21 0.25 0.26 0.27 0.24 0.27 0.12 0.11 0.19 0.12 0.03 0.02 0.16 0.23 0.19 0.16 0.11 0.13 0.19 0.24 0.24 0.27 0.27 0.27
1.92 1.93 2.11 2.46 3.00 3.36 4.23 5.26 5.97 5.89 4.84 4.52 4.28 3.89 2.00 1.51 0.44 0.16 0.05 0.01 0.01 0.04 0.09 0.14 0.40 0.44 0.34 0.44 0.49 0.32 0.15 0.19 0.19 0.08 0.03 0.03 0.01 0.02 0.03 0.13 0.18 0.15 0.10 0.13 0.23 0.27 0.27 0.29 0.40 0.34 0.28 0.23 0.15 0.10
2.10 2.49 2.57 2.62 2.96 3.79 4.75 5.95 6.45 5.13 4.56 4.24 3.04 1.97 1.06 0.30 0.08 0.04 0.05 0.03 0.01 0.01 0.01 0.07 0.33 0.30 0.33 0.45 0.33 0.20 0.18 0.14 0.07 0.05 0.01 0.00 0.02 0.01 0.03 0.13 0.38 0.32 0.21 0.11 0.08 0.10 0.14 0.18 0.22 0.19 0.11 0.11 0.11 0.11
2.78 3.48 3.59 3.21 3.16 3.67 5.05 5.55 5.61 4.80 4.88 3.78 2.34 1.23 0.37 0.06 0.07 0.07 0.05 0.05 0.04 0.06 0.14 0.23 0.33 0.34 0.31 0.23 0.19 0.13 0.12 0.07 0.09 0.04 0.00 0.00 0.02 0.03 0.08 0.22 0.33 0.21 0.15 0.16 0.12 0.05 0.02 0.01 0.00 0.02 0.07 0.09 0.11 0.15
3.49 4.17 3.83 3.27 3.53 4.11 4.89 6.03 6.42 6.13 5.46 3.98 1.67 0.48 0.14 0.10 0.09 0.07 0.06 0.06 0.08 0.15 0.27 0.45 0.48 0.27 0.21 0.17 0.05 0.03 0.06 0.06 0.04 0.02 0.00 0.00 0.00 0.02 0.08 0.19 0.30 0.18 0.19 0.25 0.21 0.09 0.03 0.01 0.00 0.00 0.00 0.00 0.00 0.02
3.40 3.19 2.86 3.08 3.59 4.48 5.35 5.51 5.82 5.21 3.97 2.03 0.65 0.27 0.20 0.16 0.09 0.05 0.06 0.15 0.26 0.35 0.35 0.60 0.29 0.22 0.11 0.08 0.03 0.03 0.02 0.01 0.01 0.00 0.00 0.00 0.00 0.00 0.02 0.11 0.20 0.22 0.21 0.17 0.12 0.06 0.04 0.02 0.02 0.02 0.03 0.03 0.02 0.03
2.60 2.29 2.47 2.69 3.08 4.32 5.40 5.37 4.01 2.88 1.76 0.79 0.46 0.44 0.26 0.16 0.06 0.03 0.04 0.12 0.28 0.38 0.57 0.70 0.61 0.26 0.02 0.02 0.04 0.03 0.01 0.01 0.01 0.00 0.00 0.00 0.00 0.00 0.00 0.00 0.01 0.03 0.06 0.08 0.09 0.08 0.06 0.05 0.04 0.03 0.04 0.06 0.06 0.10
3.03 3.07 2.89 2.70 2.53 3.30 3.10 3.31 2.41 1.40 0.90 0.79 0.66 0.59 0.39 0.24 0.12 0.06 0.06 0.15 0.26 0.52 0.85 0.64 0.20 0.04 0.02 0.03 0.02 0.02 0.00 0.00 0.00 0.00 0.00 0.00 0.00 0.00 0.00 0.00 0.00 0.00 0.00 0.00 0.01 0.01 0.01 0.01 0.01 0.01 0.00 0.00 0.01 0.01
4.27 4.43 3.91 3.29 3.67 3.07 2.21 1.56 1.45 1.19 0.88 0.94 1.12 0.82 0.79 0.59 0.40 0.32 0.48 0.50 0.89 1.01 0.52 0.19 0.05 0.02 0.03 0.05 0.06 0.03 0.01 0.01 0.00 0.00 0.00 0.00 0.00 0.00 0.00 0.00 0.00 0.01 0.01 0.00 0.00 0.00 0.00 0.00 0.00 0.00 0.00 0.00 0.00 0.00
4.15 3.68 3.71 3.41 3.33 2.46 1.51 0.99 0.82 0.95 0.72 1.01 1.22 1.05 1.05 1.02 0.94 0.85 0.85 1.28 1.23 0.49 0.14 0.07 0.09 0.08 0.04 0.04 0.06 0.06 0.05 0.03 0.01 0.00 0.00 0.00 0.00 0.00 0.00 0.00 0.00 0.00 0.01 0.02 0.02 0.01 0.00 0.00 0.00 0.00 0.00 0.00 0.00 0.00
2.45 2.35 2.85 3.22 2.74 1.63 1.41 0.93 0.73 0.97 0.93 1.16 1.17 1.14 1.25 1.14 1.18 1.25 1.49 1.09 0.56 0.29 0.20 0.19 0.17 0.16 0.13 0.08 0.06 0.04 0.05 0.06 0.05 0.02 0.02 0.01 0.00 0.00 0.01 0.01 0.00 0.01 0.02 0.04 0.05 0.05 0.02 0.01 0.01 0.00 0.00 0.00 0.00 0.00
2.01 3.09 3.24 2.44 1.45 0.93 0.79 0.82 0.63 0.61 0.88 1.01 0.97 0.87 0.81 0.94 1.17 1.19 0.85 0.32 0.26 0.28 0.28 0.34 0.31 0.22 0.18 0.16 0.16 0.13 0.09 0.07 0.06 0.07 0.08 0.08 0.05 0.03 0.01 0.01 0.01 0.01 0.02 0.04 0.06 0.07 0.07 0.05 0.03 0.03 0.02 0.01 0.00 0.00
3.10 2.92 1.91 1.35 0.59 0.32 0.24 0.37 0.47 0.41 0.51 0.68 0.67 0.67 0.64 0.74 0.83 0.62 0.30 0.20 0.34 0.42 0.36 0.30 0.29 0.30 0.29 0.25 0.21 0.19 0.18 0.16 0.13 0.10 0.11 0.15 0.15 0.14 0.13 0.08 0.05 0.05 0.03 0.05 0.07 0.08 0.09 0.07 0.04 0.04 0.03 0.01 0.01 0.03
1.75 1.13 0.72 0.29 0.11 0.07 0.12 0.17 0.27 0.33 0.40 0.52 0.52 0.50 0.58 0.61 0.50 0.37 0.18 0.21 0.35 0.47 0.49 0.40 0.32 0.28 0.27 0.28 0.33 0.35 0.29 0.24 0.20 0.16 0.22 0.27 0.22 0.19 0.16 0.15 0.17 0.19 0.14 0.12 0.14 0.16 0.16 0.13 0.10 0.08 0.05 0.03 0.07 0.17
0.74 0.30 0.11 0.04 0.01 0.02 0.04 0.07 0.10 0.18 0.32 0.31 0.29 0.30 0.36 0.43 0.34 0.15 0.13 0.22 0.33 0.40 0.46 0.50 0.43 0.34 0.34 0.35 0.38 0.41 0.44 0.46 0.35 0.25 0.26 0.34 0.35 0.29 0.23 0.18 0.14 0.12 0.21 0.28 0.25 0.21 0.19 0.19 0.17 0.15 0.16 0.18 0.18 0.19
0.19 0.05 0.02 0.02 0.02 0.03 0.04 0.06 0.09 0.10 0.11 0.09 0.16 0.21 0.21 0.14 0.08 0.08 0.13 0.22 0.35 0.42 0.50 0.57 0.54 0.46 0.48 0.47 0.48 0.55 0.57 0.58 0.56 0.46 0.42 0.45 0.47 0.45 0.41 0.34 0.34 0.39 0.39 0.33 0.34 0.36 0.33 0.28 0.26 0.25 0.27 0.26 0.21 0.22
0.03 0.01 0.02 0.09 0.12 0.13 0.13 0.09 0.05 0.04 0.02 0.02 0.05 0.06 0.05 0.03 0.06 0.09 0.14 0.22 0.35 0.47 0.55 0.62 0.68 0.64 0.64 0.63 0.58 0.56 0.52 0.49 0.44 0.38 0.27 0.26 0.32 0.44 0.50 0.50 0.55 0.57 0.50 0.43 0.42 0.37 0.32 0.31 0.32 0.34 0.35 0.31 0.27 0.27
0.09 0.08 0.11 0.17 0.13 0.10 0.09 0.07 0.07 0.05 0.02 0.04 0.06 0.05 0.02 0.03 0.06 0.09 0.14 0.20 0.29 0.44 0.60 0.73 0.75 0.71 0.66 0.60 0.61 0.67 0.69 0.66 0.53 0.33 0.25 0.22 0.23 0.34 0.46 0.49 0.53 0.55 0.53 0.48 0.48 0.55 0.54 0.50 0.48 0.45 0.39 0.36 0.33 0.31
0.15 0.12 0.10 0.11 0.09 0.08 0.10 0.14 0.15 0.13 0.09 0.07 0.06 0.07 0.06 0.03 0.04 0.07 0.11 0.16 0.23 0.38 0.55 0.67 0.77 0.78 0.68 0.65 0.60 0.58 0.59 0.62 0.61 0.55 0.44 0.44 0.46 0.47 0.51 0.53 0.53 0.52 0.53 0.51 0.47 0.41 0.37 0.32 0.25 0.22 0.25 0.26 0.26 0.26
0.20 0.14 0.07 0.08 0.13 0.18 0.17 0.15 0.14 0.11 0.11 0.09 0.07 0.06 0.06 0.06 0.05 0.04 0.07 0.11 0.17 0.31 0.47 0.56 0.58 0.66 0.68 0.60 0.56 0.55 0.51 0.50 0.51 0.50 0.50 0.49 0.46 0.47 0.48 0.51 0.54 0.53 0.55 0.56 0.51 0.45 0.40 0.39 0.40 0.38 0.36 0.38 0.36 0.32
0.23 0.22 0.16 0.13 0.17 0.19 0.17 0.14 0.12 0.11 0.11 0.10 0.08 0.07 0.06 0.05 0.05 0.04 0.04 0.08 0.14 0.23 0.36 0.46 0.55 0.62 0.63 0.58 0.53 0.53 0.58 0.63 0.63 0.64 0.67 0.62 0.53 0.49 0.50 0.52 0.53 0.54 0.53 0.51 0.50 0.50 0.52 0.51 0.47 0.45 0.43 0.42 0.41 0.40

GFSWCAN_prec_precacc_129.txt.gz
Total_Precipitation_Accumulation
1.21 1.35 1.53 1.52 1.28 1.19 1.26 1.26 1.15 0.70 0.63 0.87 1.00 1.07 1.06 0.81 0.68 0.44 0.36 0.38 0.33 0.20 0.08 0.02 0.02 0.04 0.18 0.42 0.61 0.56 0.71 0.50 0.53 0.80 0.74 0.42 0.14 0.06 0.04 0.08 0.04 0.10 0.22 0.24 0.22 0.27 0.04 0.00 0.00 0.01 0.01 0.00 0.00 0.05
1.32 1.33 1.43 1.45 1.41 1.55 1.33 0.94 0.94 0.89 0.62 0.56 0.80 0.90 1.05 0.84 0.67 0.57 0.36 0.34 0.34 0.27 0.11 0.03 0.01 0.01 0.05 0.27 0.60 0.60 0.59 0.42 0.52 0.54 0.47 0.38 0.30 0.24 0.10 0.08 0.02 0.03 0.03 0.09 0.08 0.05 0.01 0.01 0.00 0.00 0.00 0.00 0.00 0.01
1.27 1.42 1.41 1.35 1.24 1.30 1.72 1.21 0.94 0.84 0.70 0.58 0.58 0.65 0.78 0.82 0.60 0.55 0.32 0.28 0.34 0.31 0.11 0.03 0.02 0.03 0.00 0.08 0.45 0.77 0.49 0.50 0.50 0.47 0.47 0.27 0.25 0.20 0.13 0.12 0.06 0.07 0.03 0.01 0.00 0.01 0.04 0.16 0.17 0.08 0.04 0.01 0.00 0.00
1.16 1.36 1.37 1.27 1.31 1.13 1.41 1.72 1.17 0.87 0.64 0.59 0.62 0.59 0.61 0.70 0.64 0.53 0.30 0.20 0.36 0.45 0.31 0.11 0.03 0.06 0.05 0.06 0.35 0.69 0.69 0.56 0.58 0.52 0.58 0.43 0.21 0.15 0.09 0.04 0.04 0.03 0.02 0.02 0.00 0.00 0.00 0.00 0.02 0.05 0.07 0.07 0.05 0.03
1.18 1.24 1.37 1.40 1.33 1.40 1.25 1.49 1.41 0.97 0.72 0.65 0.67 0.71 0.80 0.85 0.82 0.57 0.25 0.21 0.29 0.65 0.55 0.31 0.11 0.01 0.04 0.05 0.28 0.67 0.88 0.85 0.79 0.84 0.58 0.37 0.19 0.15 0.05 0.03 0.01 0.00 0.00 0.01 0.01 0.01 0.00 0.00 0.00 0.00 0.00 0.01 0.03 0.03
1.29 1.26 1.43 1.51 1.56 1.56 1.48 1.26 1.27 1.03 0.82 0.73 0.83 1.07 1.19 1.33 1.39 0.99 0.71 0.35 0.34 0.49 0.82 0.60 0.29 0.08 0.06 0.12 0.15 0.50 0.72 0.69 0.77 0.92 0.54 0.24 0.13 0.35 0.22 0.07 0.00 0.00 0.00 0.00 0.00 0.00 0.00 0.00 0.00 0.00 0.00 0.00 0.00 0.01
1.23 1.29 1.33 1.54 1.73 1.82 1.62 1.37 1.43 1.23 1.07 1.02 1.17 1.31 1.49 1.71 1.44 1.07 0.60 0.50 0.42 0.44 0.81 0.77 0.53 0.22 0.12 0.43 0.18 0.39 0.85 1.01 0.87 0.87 0.50 0.27 0.20 0.58 0.48 0.07 0.00 0.00 0.00 0.00 0.00 0.00 0.01 0.00 0.00 0.00 0.01 0.01 0.01 0.02
1.70 1.90 1.90 1.72 1.82 2.00 1.91 1.56 1.71 1.48 1.59 1.51 1.73 1.94 2.19 2.46 2.00 1.27 0.48 0.40 0.43 0.68 0.71 0.65 0.55 0.49 0.38 0.69 0.46 0.52 0.99 1.21 1.13 0.80 0.44 0.24 0.25 0.40 0.28 0.01 0.00 0.00 0.01 0.00 0.00 0.00 0.00 0.00 0.00 0.00 0.01 0.02 0.03 0.04
1.71 1.87 2.11 2.38 2.48 2.36 2.27 2.13 2.18 2.03 2.25 2.40 2.70 3.09 3.65 3.32 1.95 0.94 0.77 0.79 0.62 1.08 1.09 0.53 0.37 0.62 0.42 0.72 0.60 0.56 0.82 1.16 0.94 0.78 0.43 0.57 0.46 0.36 0.06 0.01 0.01 0.02 0.03 0.01 0.00 0.00 0.00 0.01 0.00 0.00 0.01 0.04 0.07 0.09
1.67 1.79 1.89 2.21 2.76 3.08 3.08 2.95 2.79 2.58 2.88 3.51 3.89 4.04 3.47 2.16 1.06 0.97 1.76 2.02 1.89 1.42 0.95 0.51 0.28 0.35 0.40 0.47 0.65 0.50 0.67 0.83 0.72 0.52 0.59 0.54 0.28 0.13 0.05 0.06 0.03 0.00 0.01 0.00 0.00 0.01 0.01 0.01 0.00 0.00 0.00 0.03 0.07 0.16
1.65 1.79 1.96 2.26 2.71 3.12 3.68 3.92 3.63 3.77 4.32 4.28 4.12 3.05 2.27 1.83 1.88 2.18 2.53 1.89 1.37 0.76 0.31 0.14 0.18 0.29 0.34 0.53 0.68 0.52 0.88 0.54 0.85 0.47 0.53 0.60 0.44 0.28 0.08 0.04 0.00 0.00 0.01 0.01 0.00 0.00 0.00 0.00 0.01 0.01 0.02 0.03 0.04 0.07
1.75 1.70 2.00 2.52 2.84 3.47 3.89 4.36 5.09 5.56 4.84 3.16 2.25 2.71 3.48 3.17 2.91 2.56 1.97 0.85 0.39 0.09 0.02 0.11 0.20 0.33 0.37 0.53 0.47 0.39 0.62 0.61 0.46 0.26 0.42 0.47 0.50 0.34 0.14 0.03 0.01 0.00 0.01 0.01 0.01 0.03 0.02 0.03 0.07 0.10 0.10 0.09 0.10 0.10
1.80 1.66 1.92 2.44 3.00 3.57 4.00 4.24 5.01 5.00 3.91 3.24 3.63 4.69 3.67 3.11 2.28 1.33 0.74 0.23 0.04 0.01 0.10 0.27 0.34 0.39 0.44 0.63 0.60 0.47 0.36 0.32 0.27 0.27 0.24 0.27 0.12 0.11 0.19 0.12 0.03 0.02 0.16 0.23 0.19 0.16 0.11 0.13 0.19 0.24 0.24 0.27 0.27 0.27
1.94 1.95 2.13 2.48 3.01 3.36 4.23 5.26 5.97 5.95 5.01 4.80 4.61 4.24 2.33 1.82 0.62 0.26 0.06 0.01 0.01 0.04 0.09 0.14 0.40 0.45 0.37 0.49 0.63 0.46 0.23 0.21 0.19 0.08 0.03 0.03 0.01 0.02 0.03 0.13 0.18 0.15 0.10 0.13 0.23 0.27 0.27 0.29 0.40 0.34 0.28 0.23 0.15 0.10
2.12 2.51 2.60 2.64 2.97 3.79 4.75 5.96 6.48 5.24 4.80 4.59 3.44 2.24 1.24 0.37 0.09 0.04 0.05 0.03 0.01 0.01 0.01 0.07 0.34 0.33 0.38 0.56 0.45 0.26 0.24 0.16 0.07 0.05 0.01 0.00 0.02 0.01 0.03 0.13 0.38 0.32 0.21 0.11 0.08 0.10 0.14 0.18 0.22 0.19 0.11 0.11 0.11 0.11
2.80 3.52 3.61 3.21 3.16 3.67 5.05 5.57 5.66 4.96 5.22 4.15 2.66 1.53 0.53 0.10 0.08 0.07 0.05 0.05 0.04 0.06 0.14 0.23 0.35 0.43 0.41 0.30 0.25 0.14 0.12 0.07 0.09 0.04 0.00 0.00 0.02 0.03 0.08 0.22 0.33 0.21 0.15 0.16 0.12 0.05 0.02 0.01 0.00 0.02 0.07 0.09 0.11 0.15
3.54 4.20 3.83 3.27 3.53 4.12 4.92 6.11 6.53 6.33 5.78 4.38 1.95 0.56 0.17 0.12 0.09 0.07 0.06 0.06 0.08 0.15 0.27 0.45 0.51 0.31 0.25 0.20 0.06 0.03 0.06 0.06 0.04 0.02 0.00 0.00 0.00 0.02 0.08 0.19 0.30 0.18 0.19 0.25 0.21 0.09 0.03 0.01 0.00 0.00 0.00 0.00 0.00 0.02
3.44 3.19 2.86 3.08 3.61 4.53 5.39 5.59 5.97 5.43 4.17 2.18 0.76 0.33 0.22 0.16 0.09 0.05 0.06 0.15 0.26 0.35 0.35 0.60 0.30 0.29 0.16 0.09 0.03 0.03 0.02 0.01 0.01 0.00 0.00 0.00 0.00 0.00 0.02 0.11 0.20 0.22 0.21 0.17 0.12 0.06 0.04 0.02 0.02 0.02 0.03 0.03 0.02 0.03
2.61 2.29 2.48 2.70 3.14 4.45 5.51 5.45 4.11 3.04 1.84 0.81 0.47 0.44 0.27 0.16 0.06 0.03 0.04 0.12 0.28 0.38 0.57 0.71 0.69 0.38 0.04 0.02 0.04 0.03 0.01 0.01 0.01 0.00 0.00 0.00 0.00 0.00 0.00 0.00 0.01 0.03 0.06 0.08 0.09 0.08 0.06 0.05 0.04 0.03 0.04 0.06 0.06 0.10
3.07 3.10 2.92 2.74 2.64 3.48 3.34 3.47 2.55 1.54 0.97 0.81 0.66 0.59 0.39 0.24 0.12 0.06 0.06 0.15 0.26 0.54 0.92 0.78 0.29 0.05 0.02 0.03 0.02 0.02 0.00 0.00 0.00 0.00 0.00 0.00 0.00 0.00 0.00 0.00 0.00 0.00 0.00 0.00 0.01 0.01 0.01 0.01 0.01 0.01 0.00 0.00 0.01 0.01
4.32 4.45 3.93 3.37 3.76 3.19 2.38 1.66 1.52 1.23 0.91 0.97 1.13 0.82 0.81 0.60 0.41 0.33 0.49 0.50 0.96 1.19 0.66 0.23 0.05 0.02 0.03 0.05 0.06 0.03 0.01 0.01 0.00 0.00 0.00 0.00 0.00 0.00 0.00 0.00 0.00 0.01 0.01 0.00 0.00 0.00 0.00 0.00 0.00 0.00 0.00 0.00 0.00 0.00
4.17 3.71 3.76 3.48 3.44 2.60 1.65 1.05 0.86 0.99 0.76 1.04 1.24 1.07 1.09 1.06 0.98 0.89 0.89 1.41 1.38 0.55 0.15 0.07 0.09 0.08 0.04 0.04 0.06 0.06 0.05 0.03 0.01 0.00 0.00 0.00 0.00 0.00 0.00 0.00 0.00 0.00 0.01 0.02 0.02 0.01 0.00 0.00 0.00 0.00 0.00 0.00 0.00 0.00
2.51 2.43 2.96 3.36 2.94 1.84 1.52 0.99 0.79 1.04 1.00 1.24 1.23 1.21 1.33 1.19 1.21 1.26 1.56 1.17 0.59 0.29 0.20 0.19 0.17 0.16 0.13 0.08 0.06 0.04 0.05 0.06 0.05 0.02 0.02 0.01 0.00 0.00 0.01 0.01 0.00 0.01 0.02 0.04 0.05 0.05 0.02 0.01 0.01 0.00 0.00 0.00 0.00 0.01
2.09 3.20 3.38 2.58 1.61 1.06 0.88 0.91 0.71 0.68 0.95 1.07 1.04 0.95 0.86 0.98 1.23 1.23 0.87 0.32 0.26 0.28 0.28 0.34 0.31 0.22 0.18 0.17 0.17 0.13 0.09 0.07 0.06 0.07 0.08 0.08 0.05 0.03 0.01 0.01 0.01 0.01 0.02 0.04 0.06 0.07 0.07 0.05 0.03 0.03 0.04 0.05 0.04 0.03
3.27 3.04 2.03 1.46 0.67 0.40 0.30 0.40 0.50 0.47 0.55 0.71 0.70 0.70 0.67 0.78 0.87 0.64 0.31 0.20 0.34 0.42 0.36 0.30 0.29 0.30 0.29 0.25 0.21 0.19 0.18 0.16 0.13 0.10 0.11 0.15 0.15 0.14 0.13 0.08 0.05 0.05 0.03 0.05 0.07 0.08 0.10 0.08 0.06 0.06 0.07 0.07 0.07 0.11
2.00 1.20 0.80 0.31 0.13 0.08 0.13 0.18 0.28 0.35 0.41 0.53 0.54 0.51 0.59 0.62 0.51 0.37 0.18 0.21 0.35 0.47 0.49 0.40 0.32 0.28 0.27 0.28 0.33 0.35 0.29 0.24 0.20 0.16 0.22 0.27 0.22 0.19 0.16 0.15 0.17 0.19 0.14 0.12 0.14 0.17 0.19 0.18 0.16 0.17 0.16 0.15 0.17 0.25
0.88 0.36 0.16 0.05 0.02 0.03 0.05 0.08 0.12 0.20 0.35 0.33 0.31 0.32 0.40 0.49 0.37 0.16 0.13 0.22 0.33 0.40 0.46 0.50 0.43 0.34 0.34 0.35 0.38 0.41 0.44 0.46 0.35 0.25 0.26 0.34 0.35 0.29 0.23 0.18 0.14 0.12 0.21 0.28 0.25 0.22 0.22 0.23 0.23 0.23 0.26 0.26 0.22 0.21
0.26 0.08 0.05 0.03 0.03 0.04 0.06 0.09 0.13 0.14 0.14 0.11 0.17 0.23 0.24 0.17 0.09 0.08 0.13 0.22 0.35 0.42 0.50 0.57 0.54 0.46 0.48 0.47 0.48 0.55 0.57 0.58 0.56 0.46 0.42 0.45 0.47 0.45 0.41 0.34 0.34 0.39 0.39 0.33 0.34 0.37 0.36 0.31 0.30 0.30 0.31 0.28 0.23 0.23
0.06 0.02 0.04 0.13 0.17 0.19 0.18 0.12 0.07 0.04 0.02 0.03 0.07 0.07 0.05 0.03 0.06 0.09 0.14 0.22 0.35 0.47 0.55 0.62 0.68 0.64 0.64 0.63 0.58 0.56 0.52 0.49 0.44 0.38 0.27 0.26 0.32 0.44 0.50 0.50 0.55 0.57 0.50 0.44 0.44 0.38 0.34 0.34 0.35 0.36 0.37 0.33 0.29 0.28
0.10 0.11 0.16 0.21 0.16 0.12 0.11 0.08 0.07 0.05 0.03 0.04 0.06 0.05 0.02 0.03 0.06 0.09 0.14 0.20 0.29 0.44 0.60 0.73 0.75 0.71 0.66 0.60 0.61 0.67 0.69 0.66 0.53 0.33 0.25 0.22 0.23 0.35 0.46 0.50 0.53 0.56 0.54 0.49 0.50 0.61 0.60 0.55 0.51 0.46 0.41 0.39 0.35 0.33
0.17 0.15 0.14 0.13 0.11 0.08 0.11 0.15 0.16 0.13 0.09 0.07 0.06 0.07 0.06 0.03 0.04 0.07 0.11 0.16 0.23 0.38 0.55 0.67 0.77 0.78 0.68 0.65 0.60 0.58 0.59 0.62 0.62 0.56 0.45 0.44 0.48 0.50 0.53 0.55 0.55 0.54 0.55 0.52 0.47 0.41 0.37 0.33 0.27 0.24 0.27 0.28 0.27 0.26
0.21 0.15 0.07 0.08 0.13 0.18 0.18 0.15 0.14 0.11 0.11 0.09 0.07 0.06 0.06 0.06 0.05 0.04 0.07 0.11 0.17 0.31 0.47 0.56 0.58 0.66 0.68 0.60 0.56 0.55 0.51 0.50 0.52 0.51 0.51 0.51 0.48 0.49 0.51 0.54 0.57 0.55 0.57 0.57 0.52 0.46 0.41 0.40 0.42 0.40 0.38 0.38 0.36 0.32
0.23 0.22 0.16 0.13 0.17 0.19 0.17 0.14 0.12 0.11 0.11 0.10 0.08 0.07 0.06 0.05 0.05 0.04 0.04 0.08 0.14 0.23 0.36 0.46 0.55 0.62 0.63 0.58 0.53 0.53 0.58 0.63 0.64 0.65 0.68 0.64 0.55 0.52 0.53 0.55 0.54 0.56 0.55 0.52 0.51 0.51 0.54 0.52 0.48 0.45 0.43 0.42 0.41 0.40

GFSWCAN_prec_precacc_132.txt.gz
Total_Precipitation_Accumulation
1.21 1.35 1.53 1.52 1.28 1.20 1.27 1.26 1.15 0.70 0.64 0.88 1.03 1.11 1.09 0.84 0.70 0.44 0.36 0.38 0.33 0.20 0.08 0.02 0.02 0.04 0.18 0.42 0.61 0.56 0.71 0.50 0.53 0.80 0.74 0.42 0.14 0.06 0.04 0.08 0.04 0.10 0.22 0.24 0.22 0.27 0.04 0.00 0.00 0.01 0.01 0.00 0.00 0.05
1.32 1.33 1.43 1.46 1.41 1.56 1.34 0.95 0.94 0.89 0.63 0.57 0.82 0.94 1.10 0.90 0.72 0.60 0.36 0.34 0.34 0.27 0.11 0.03 0.01 0.01 0.05 0.27 0.60 0.60 0.59 0.42 0.52 0.54 0.47 0.38 0.30 0.24 0.10 0.08 0.02 0.03 0.03 0.09 0.08 0.05 0.01 0.01 0.00 0.00 0.00 0.00 0.00 0.01
1.28 1.42 1.41 1.35 1.25 1.30 1.72 1.21 0.94 0.84 0.71 0.59 0.59 0.70 0.85 0.89 0.69 0.62 0.34 0.29 0.36 0.32 0.11 0.03 0.02 0.03 0.00 0.08 0.45 0.77 0.49 0.50 0.50 0.47 0.47 0.27 0.25 0.20 0.13 0.12 0.06 0.07 0.03 0.01 0.00 0.01 0.04 0.16 0.17 0.08 0.04 0.01 0.00 0.00
1.17 1.36 1.37 1.27 1.31 1.13 1.42 1.73 1.17 0.88 0.65 0.60 0.62 0.61 0.68 0.81 0.77 0.66 0.35 0.23 0.39 0.48 0.32 0.11 0.03 0.06 0.05 0.06 0.35 0.69 0.69 0.56 0.58 0.52 0.58 0.43 0.21 0.15 0.09 0.04 0.04 0.03 0.02 0.02 0.00 0.00 0.00 0.00 0.02 0.05 0.07 0.07 0.05 0.03
1.18 1.24 1.37 1.40 1.33 1.40 1.26 1.50 1.43 0.98 0.73 0.67 0.69 0.73 0.85 0.96 0.99 0.77 0.36 0.28 0.32 0.70 0.58 0.31 0.11 0.01 0.04 0.05 0.28 0.67 0.88 0.85 0.79 0.84 0.58 0.37 0.19 0.15 0.05 0.03 0.01 0.00 0.00 0.01 0.01 0.01 0.00 0.00 0.00 0.00 0.00 0.01 0.03 0.03
1.30 1.27 1.43 1.51 1.56 1.56 1.48 1.28 1.30 1.06 0.86 0.76 0.85 1.09 1.23 1.46 1.71 1.45 0.97 0.43 0.36 0.50 0.87 0.64 0.29 0.08 0.06 0.12 0.15 0.50 0.72 0.69 0.77 0.92 0.54 0.24 0.13 0.35 0.22 0.07 0.00 0.00 0.00 0.00 0.00 0.00 0.00 0.00 0.00 0.00 0.00 0.00 0.00 0.01
1.23 1.29 1.33 1.54 1.73 1.82 1.62 1.37 1.44 1.25 1.13 1.09 1.25 1.39 1.56 1.91 1.93 1.46 0.77 0.52 0.43 0.47 1.02 0.91 0.54 0.22 0.12 0.43 0.18 0.39 0.85 1.01 0.87 0.87 0.50 0.27 0.20 0.58 0.48 0.07 0.00 0.00 0.00 0.00 0.00 0.00 0.01 0.00 0.00 0.00 0.01 0.01 0.01 0.02
1.70 1.90 1.90 1.72 1.82 2.00 1.91 1.56 1.71 1.48 1.61 1.55 1.79 2.03 2.30 2.73 2.60 1.81 0.76 0.47 0.44 0.77 0.87 0.84 0.58 0.49 0.38 0.69 0.46 0.52 0.99 1.21 1.13 0.80 0.44 0.24 0.25 0.40 0.28 0.01 0.00 0.00 0.01 0.00 0.00 0.00 0.00 0.00 0.00 0.00 0.01 0.02 0.03 0.04
1.71 1.87 2.12 2.39 2.48 2.36 2.27 2.13 2.18 2.03 2.25 2.43 2.79 3.21 3.84 3.78 2.50 1.29 0.90 0.91 0.72 1.23 1.30 0.62 0.37 0.62 0.42 0.72 0.60 0.57 0.82 1.16 0.95 0.78 0.43 0.57 0.46 0.36 0.06 0.01 0.01 0.02 0.03 0.01 0.00 0.00 0.00 0.01 0.00 0.00 0.01 0.04 0.07 0.09
1.67 1.79 1.89 2.22 2.76 3.08 3.08 2.95 2.79 2.58 2.88 3.52 3.95 4.18 3.72 2.40 1.21 1.11 2.19 2.68 2.43 1.77 1.15 0.57 0.28 0.35 0.40 0.48 0.65 0.50 0.67 0.84 0.74 0.52 0.59 0.54 0.28 0.13 0.05 0.06 0.03 0.00 0.01 0.00 0.00 0.01 0.01 0.01 0.00 0.00 0.00 0.03 0.07 0.16
1.66 1.79 1.97 2.27 2.71 3.12 3.69 3.93 3.63 3.77 4.33 4.29 4.14 3.12 2.39 2.08 2.15 2.58 3.12 2.46 1.74 0.93 0.36 0.15 0.18 0.29 0.34 0.53 0.68 0.52 0.89 0.57 0.88 0.47 0.53 0.60 0.44 0.28 0.08 0.04 0.00 0.00 0.01 0.01 0.00 0.00 0.00 0.00 0.01 0.01 0.02 0.03 0.04 0.07
1.76 1.70 2.00 2.53 2.85 3.49 3.91 4.36 5.09 5.56 4.85 3.18 2.27 2.76 3.65 3.45 3.17 2.94 2.42 1.27 0.62 0.13 0.02 0.11 0.20 0.33 0.37 0.53 0.47 0.39 0.66 0.70 0.51 0.26 0.42 0.47 0.50 0.34 0.14 0.03 0.01 0.00 0.01 0.01 0.01 0.03 0.02 0.03 0.07 0.10 0.10 0.09 0.10 0.10
1.81 1.66 1.92 2.45 3.02 3.60 4.03 4.25 5.01 5.01 3.95 3.25 3.66 4.78 3.90 3.32 2.47 1.56 0.97 0.40 0.10 0.02 0.10 0.28 0.34 0.39 0.44 0.63 0.61 0.52 0.47 0.38 0.29 0.28 0.24 0.27 0.12 0.11 0.19 0.12 0.03 0.02 0.16 0.23 0.19 0.16 0.11 0.13 0.19 0.24 0.24 0.27 0.27 0.27
1.94 1.95 2.13 2.48 3.04 3.41 4.27 5.28 5.98 5.98 5.09 4.86 4.70 4.32 2.41 1.96 0.67 0.29 0.08 0.01 0.01 0.04 0.09 0.14 0.40 0.45 0.37 0.49 0.66 0.54 0.31 0.25 0.21 0.08 0.03 0.03 0.01 0.02 0.03 0.13 0.18 0.15 0.10 0.13 0.23 0.27 0.27 0.29 0.40 0.34 0.28 0.23 0.15 0.10
2.12 2.51 2.61 2.65 2.98 3.82 4.77 5.99 6.51 5.31 4.90 4.67 3.52 2.32 1.30 0.38 0.10 0.04 0.05 0.03 0.01 0.01 0.01 0.07 0.34 0.33 0.40 0.60 0.52 0.32 0.33 0.19 0.07 0.05 0.01 0.00 0.02 0.01 0.03 0.13 0.38 0.32 0.21 0.11 0.08 0.10 0.14 0.18 0.22 0.19 0.11 0.11 0.11 0.11
2.81 3.54 3.62 3.21 3.17 3.71 5.11 5.64 5.72 5.06 5.31 4.24 2.74 1.56 0.58 0.13 0.09 0.07 0.05 0.05 0.04 0.06 0.15 0.25 0.39 0.49 0.49 0.36 0.31 0.17 0.13 0.07 0.09 0.04 0.00 0.00 0.02 0.03 0.08 0.22 0.33 0.21 0.15 0.16 0.12 0.05 0.02 0.01 0.00 0.02 0.07 0.09 0.11 0.15
3.58 4.22 3.83 3.27 3.55 4.17 5.00 6.21 6.61 6.43 5.83 4.43 1.98 0.56 0.18 0.15 0.12 0.08 0.07 0.07 0.09 0.16 0.28 0.46 0.58 0.37 0.28 0.26 0.08 0.03 0.06 0.06 0.04 0.02 0.00 0.00 0.00 0.02 0.08 0.19 0.30 0.18 0.19 0.25 0.21 0.09 0.03 0.01 0.00 0.00 0.00 0.00 0.00 0.02
3.47 3.19 2.86 3.10 3.69 4.62 5.45 5.66 6.10 5.52 4.22 2.18 0.76 0.33 0.22 0.16 0.09 0.05 0.06 0.15 0.28 0.44 0.40 0.63 0.32 0.37 0.25 0.14 0.04 0.03 0.02 0.01 0.01 0.00 0.00 0.00 0.00 0.00 0.02 0.11 0.20 0.22 0.21 0.17 0.12 0.06 0.04 0.02 0.02 0.02 0.03 0.03 0.02 0.03
2.62 2.30 2.49 2.76 3.24 4.54 5.58 5.49 4.14 3.08 1.85 0.81 0.47 0.44 0.27 0.16 0.06 0.03 0.04 0.12 0.28 0.38 0.57 0.73 0.81 0.62 0.15 0.04 0.04 0.03 0.01 0.01 0.01 0.00 0.00 0.00 0.00 0.00 0.00 0.00 0.01 0.03 0.06 0.08 0.09 0.08 0.06 0.05 0.04 0.03 0.04 0.06 0.06 0.10
3.12 3.15 2.97 2.79 2.74 3.63 3.48 3.52 2.57 1.57 0.99 0.81 0.66 0.59 0.39 0.24 0.12 0.06 0.06 0.15 0.26 0.55 1.02 0.94 0.39 0.10 0.03 0.03 0.02 0.02 0.00 0.00 0.00 0.00 0.00 0.00 0.00 0.00 0.00 0.00 0.00 0.00 0.00 0.00 0.01 0.01 0.01 0.01 0.01 0.01 0.00 0.00 0.01 0.01
4.38 4.48 3.99 3.46 3.86 3.35 2.56 1.71 1.56 1.26 0.94 0.99 1.13 0.82 0.81 0.61 0.42 0.33 0.49 0.50 0.97 1.23 0.73 0.28 0.06 0.02 0.03 0.05 0.06 0.03 0.01 0.01 0.00 0.00 0.00 0.00 0.00 0.01 0.01 0.00 0.00 0.01 0.01 0.00 0.00 0.00 0.00 0.00 0.00 0.00 0.00 0.00 0.00 0.00
4.19 3.74 3.81 3.54 3.53 2.70 1.73 1.06 0.86 0.99 0.76 1.05 1.24 1.07 1.11 1.09 1.01 0.90 0.89 1.44 1.42 0.58 0.16 0.07 0.09 0.08 0.04 0.04 0.06 0.06 0.05 0.04 0.02 0.01 0.00 0.00 0.00 0.01 0.01 0.00 0.00 0.00 0.01 0.02 0.02 0.01 0.00 0.00 0.00 0.00 0.00 0.00 0.00 0.00
2.57 2.50 3.06 3.41 3.00 1.89 1.54 0.99 0.79 1.04 1.01 1.24 1.24 1.23 1.35 1.21 1.22 1.28 1.62 1.21 0.61 0.29 0.20 0.19 0.17 0.16 0.13 0.08 0.06 0.04 0.05 0.07 0.05 0.03 0.02 0.01 0.00 0.01 0.01 0.01 0.00 0.01 0.02 0.04 0.05 0.05 0.02 0.01 0.01 0.00 0.00 0.00 0.00 0.01
2.18 3.31 3.49 2.66 1.65 1.09 0.91 0.94 0.73 0.70 0.97 1.10 1.07 0.98 0.89 0.99 1.26 1.31 0.92 0.33 0.26 0.28 0.28 0.34 0.31 0.22 0.18 0.17 0.17 0.13 0.09 0.07 0.06 0.07 0.08 0.09 0.05 0.03 0.01 0.01 0.01 0.01 0.02 0.04 0.06 0.07 0.07 0.05 0.03 0.03 0.04 0.05 0.04 0.03
3.40 3.18 2.09 1.49 0.69 0.41 0.31 0.42 0.53 0.51 0.60 0.75 0.74 0.73 0.69 0.81 0.95 0.69 0.32 0.20 0.34 0.42 0.36 0.30 0.29 0.30 0.29 0.25 0.21 0.19 0.18 0.18 0.16 0.12 0.12 0.15 0.16 0.15 0.13 0.09 0.05 0.05 0.03 0.05 0.07 0.08 0.10 0.08 0.06 0.06 0.07 0.07 0.07 0.12
2.07 1.21 0.83 0.32 0.14 0.09 0.14 0.19 0.29 0.35 0.43 0.56 0.55 0.52 0.61 0.67 0.56 0.38 0.18 0.21 0.35 0.47 0.49 0.40 0.32 0.28 0.27 0.28 0.33 0.35 0.29 0.24 0.20 0.17 0.23 0.27 0.23 0.20 0.16 0.15 0.17 0.19 0.14 0.12 0.14 0.17 0.19 0.18 0.17 0.17 0.16 0.16 0.21 0.30
0.92 0.39 0.21 0.09 0.03 0.04 0.06 0.09 0.12 0.22 0.38 0.35 0.32 0.33 0.43 0.55 0.40 0.16 0.13 0.22 0.33 0.41 0.46 0.50 0.43 0.34 0.34 0.35 0.38 0.41 0.44 0.46 0.35 0.25 0.26 0.34 0.35 0.29 0.23 0.18 0.14 0.12 0.21 0.28 0.25 0.22 0.22 0.23 0.23 0.23 0.27 0.28 0.25 0.24
0.30 0.10 0.06 0.04 0.05 0.05 0.08 0.12 0.15 0.16 0.15 0.11 0.17 0.24 0.27 0.18 0.09 0.08 0.13 0.22 0.35 0.42 0.50 0.57 0.54 0.46 0.48 0.47 0.48 0.55 0.57 0.58 0.56 0.46 0.42 0.45 0.47 0.45 0.41 0.34 0.34 0.39 0.39 0.33 0.34 0.37 0.36 0.31 0.30 0.31 0.31 0.29 0.26 0.27
0.06 0.03 0.05 0.16 0.23 0.26 0.25 0.16 0.08 0.05 0.03 0.03 0.07 0.08 0.05 0.03 0.06 0.09 0.15 0.22 0.35 0.47 0.55 0.62 0.68 0.64 0.64 0.63 0.58 0.56 0.52 0.49 0.44 0.38 0.27 0.26 0.32 0.44 0.50 0.50 0.55 0.57 0.50 0.44 0.44 0.39 0.34 0.34 0.36 0.37 0.38 0.34 0.30 0.29
0.10 0.11 0.17 0.23 0.20 0.15 0.12 0.09 0.09 0.08 0.08 0.09 0.10 0.08 0.03 0.03 0.06 0.09 0.14 0.20 0.29 0.44 0.60 0.73 0.75 0.71 0.66 0.60 0.61 0.67 0.69 0.66 0.53 0.33 0.25 0.22 0.23 0.35 0.46 0.50 0.53 0.56 0.54 0.49 0.50 0.62 0.61 0.57 0.53 0.48 0.42 0.40 0.36 0.34
0.17 0.15 0.15 0.17 0.15 0.11 0.14 0.18 0.21 0.20 0.17 0.13 0.11 0.11 0.08 0.04 0.04 0.07 0.11 0.16 0.23 0.38 0.55 0.67 0.78 0.78 0.68 0.66 0.61 0.58 0.59 0.62 0.62 0.56 0.45 0.44 0.48 0.50 0.53 0.55 0.55 0.54 0.55 0.52 0.47 0.42 0.38 0.33 0.27 0.24 0.28 0.29 0.28 0.27
0.21 0.16 0.09 0.11 0.16 0.22 0.24 0.21 0.19 0.15 0.14 0.12 0.09 0.07 0.07 0.06 0.05 0.04 0.07 0.11 0.17 0.31 0.47 0.56 0.58 0.66 0.68 0.60 0.56 0.55 0.51 0.50 0.52 0.51 0.51 0.51 0.49 0.49 0.51 0.54 0.58 0.56 0.58 0.58 0.52 0.47 0.42 0.40 0.42 0.40 0.38 0.39 0.37 0.33
0.25 0.24 0.19 0.17 0.22 0.23 0.21 0.17 0.14 0.12 0.12 0.10 0.08 0.07 0.06 0.05 0.05 0.04 0.04 0.08 0.14 0.23 0.36 0.46 0.55 0.62 0.63 0.58 0.53 0.53 0.58 0.63 0.64 0.65 0.69 0.64 0.55 0.53 0.54 0.56 0.56 0.57 0.55 0.53 0.52 0.52 0.55 0.54 0.49 0.46 0.44 0.43 0.41 0.40

GFSWCAN_prec_precacc_135.txt.gz
Total_Precipitation_Accumulation
1.22 1.36 1.53 1.53 1.28 1.20 1.27 1.27 1.16 0.71 0.64 0.89 1.03 1.12 1.13 0.88 0.74 0.48 0.38 0.39 0.34 0.20 0.08 0.02 0.02 0.04 0.18 0.42 0.61 0.56 0.71 0.50 0.53 0.80 0.74 0.42 0.14 0.06 0.04 0.08 0.04 0.10 0.22 0.24 0.22 0.27 0.04 0.00 0.00 0.01 0.01 0.00 0.00 0.05
1.33 1.33 1.43 1.46 1.41 1.56 1.34 0.95 0.95 0.90 0.63 0.58 0.83 0.95 1.12 0.94 0.77 0.66 0.39 0.35 0.38 0.29 0.11 0.03 0.01 0.01 0.05 0.27 0.60 0.60 0.59 0.42 0.52 0.54 0.47 0.38 0.30 0.24 0.10 0.08 0.02 0.03 0.03 0.09 0.08 0.05 0.01 0.01 0.00 0.00 0.00 0.00 0.00 0.01
1.28 1.42 1.41 1.35 1.25 1.30 1.72 1.21 0.95 0.85 0.71 0.59 0.59 0.71 0.87 0.93 0.76 0.69 0.37 0.32 0.43 0.39 0.13 0.03 0.02 0.03 0.00 0.08 0.45 0.77 0.49 0.50 0.50 0.47 0.47 0.27 0.25 0.20 0.13 0.12 0.06 0.07 0.03 0.01 0.00 0.01 0.04 0.16 0.17 0.08 0.04 0.01 0.00 0.00
1.17 1.36 1.38 1.28 1.31 1.13 1.42 1.73 1.17 0.88 0.65 0.60 0.62 0.61 0.68 0.83 0.83 0.76 0.39 0.24 0.44 0.58 0.39 0.11 0.03 0.06 0.05 0.06 0.35 0.69 0.69 0.56 0.58 0.52 0.58 0.43 0.21 0.15 0.09 0.04 0.04 0.03 0.02 0.02 0.00 0.00 0.00 0.00 0.02 0.05 0.07 0.07 0.05 0.03
1.18 1.24 1.38 1.40 1.33 1.40 1.26 1.50 1.43 0.98 0.73 0.68 0.70 0.74 0.86 0.97 1.04 0.94 0.48 0.33 0.35 0.79 0.71 0.34 0.11 0.01 0.04 0.05 0.28 0.67 0.88 0.85 0.79 0.84 0.58 0.37 0.19 0.15 0.05 0.03 0.01 0.00 0.00 0.01 0.01 0.01 0.00 0.00 0.00 0.00 0.00 0.01 0.03 0.03
1.30 1.27 1.43 1.52 1.57 1.56 1.48 1.28 1.30 1.06 0.86 0.78 0.89 1.13 1.26 1.49 1.78 1.88 1.49 0.60 0.41 0.55 1.00 0.75 0.31 0.09 0.06 0.12 0.15 0.50 0.72 0.69 0.77 0.92 0.54 0.24 0.13 0.35 0.22 0.07 0.00 0.00 0.00 0.00 0.00 0.00 0.00 0.00 0.00 0.00 0.00 0.00 0.00 0.01
1.23 1.29 1.33 1.55 1.74 1.83 1.63 1.38 1.44 1.25 1.13 1.09 1.26 1.42 1.63 1.98 2.07 1.83 1.04 0.58 0.43 0.49 1.17 1.17 0.66 0.23 0.12 0.43 0.18 0.39 0.85 1.01 0.88 0.89 0.52 0.27 0.20 0.58 0.48 0.07 0.00 0.00 0.00 0.00 0.00 0.00 0.01 0.00 0.00 0.00 0.01 0.01 0.01 0.02
1.70 1.90 1.90 1.72 1.82 2.01 1.92 1.57 1.71 1.48 1.61 1.55 1.79 2.04 2.35 2.84 2.81 2.19 1.06 0.64 0.55 0.92 1.12 1.20 0.73 0.50 0.38 0.69 0.46 0.52 0.99 1.21 1.15 0.83 0.44 0.24 0.25 0.40 0.28 0.01 0.00 0.00 0.01 0.00 0.00 0.00 0.00 0.00 0.00 0.00 0.01 0.02 0.03 0.04
1.71 1.87 2.12 2.39 2.48 2.36 2.28 2.14 2.18 2.03 2.25 2.43 2.79 3.22 3.86 3.84 2.59 1.39 0.96 1.02 1.04 1.58 1.66 0.89 0.45 0.62 0.42 0.72 0.60 0.57 0.83 1.18 0.97 0.82 0.43 0.57 0.46 0.36 0.06 0.01 0.01 0.02 0.03 0.01 0.00 0.00 0.00 0.01 0.00 0.00 0.01 0.04 0.07 0.09
1.68 1.79 1.89 2.22 2.76 3.08 3.09 2.96 2.79 2.58 2.88 3.52 3.95 4.18 3.73 2.44 1.29 1.19 2.41 3.12 2.97 2.24 1.51 0.79 0.30 0.35 0.40 0.48 0.65 0.51 0.68 0.86 0.78 0.53 0.59 0.55 0.28 0.13 0.05 0.06 0.03 0.00 0.01 0.00 0.00 0.01 0.01 0.01 0.00 0.00 0.00 0.03 0.07 0.16
1.66 1.80 1.97 2.27 2.71 3.13 3.70 3.94 3.64 3.79 4.33 4.30 4.14 3.13 2.39 2.11 2.22 2.76 3.46 2.84 2.05 1.18 0.51 0.20 0.18 0.29 0.34 0.53 0.68 0.52 0.92 0.63 0.93 0.47 0.53 0.60 0.44 0.28 0.08 0.04 0.00 0.00 0.01 0.01 0.00 0.00 0.00 0.00 0.01 0.01 0.02 0.03 0.04 0.07
1.77 1.71 2.01 2.53 2.85 3.50 3.92 4.38 5.13 5.60 4.87 3.20 2.29 2.77 3.67 3.49 3.20 3.02 2.57 1.42 0.77 0.18 0.03 0.11 0.20 0.33 0.37 0.53 0.48 0.41 0.71 0.78 0.57 0.26 0.43 0.47 0.50 0.34 0.14 0.03 0.01 0.00 0.01 0.01 0.01 0.03 0.02 0.03 0.07 0.10 0.10 0.09 0.10 0.10
1.83 1.68 1.93 2.45 3.02 3.60 4.04 4.27 5.06 5.06 4.00 3.26 3.68 4.79 3.92 3.38 2.53 1.59 0.99 0.42 0.12 0.02 0.10 0.28 0.34 0.39 0.44 0.64 0.64 0.60 0.60 0.47 0.32 0.31 0.25 0.27 0.12 0.11 0.19 0.12 0.03 0.02 0.16 0.23 0.19 0.16 0.11 0.13 0.19 0.24 0.24 0.27 0.27 0.27
1.96 1.97 2.14 2.49 3.05 3.41 4.28 5.31 6.04 6.06 5.15 4.88 4.73 4.36 2.42 1.98 0.68 0.29 0.08 0.01 0.01 0.04 0.09 0.14 0.40 0.45 0.39 0.53 0.74 0.68 0.46 0.35 0.29 0.11 0.03 0.03 0.01 0.02 0.03 0.13 0.18 0.15 0.10 0.13 0.23 0.27 0.27 0.29 0.40 0.34 0.28 0.23 0.15 0.10
2.15 2.54 2.63 2.66 2.98 3.82 4.78 6.02 6.58 5.42 5.01 4.72 3.54 2.36 1.31 0.38 0.10 0.04 0.05 0.03 0.01 0.01 0.01 0.07 0.35 0.36 0.47 0.71 0.68 0.47 0.52 0.32 0.11 0.05 0.01 0.00 0.02 0.01 0.03 0.13 0.38 0.32 0.21 0.11 0.08 0.10 0.14 0.18 0.22 0.19 0.11 0.11 0.11 0.11
2.84 3.57 3.64 3.21 3.17 3.71 5.13 5.69 5.81 5.23 5.64 4.33 2.76 1.56 0.58 0.14 0.09 0.08 0.05 0.05 0.04 0.06 0.19 0.35 0.50 0.62 0.59 0.43 0.39 0.25 0.17 0.09 0.09 0.04 0.00 0.00 0.02 0.03 0.08 0.22 0.33 0.21 0.15 0.16 0.12 0.05 0.02 0.01 0.00 0.02 0.07 0.09 0.11 0.15
3.63 4.27 3.83 3.27 3.55 4.18 5.06 6.32 6.75 6.66 6.11 4.56 2.00 0.56 0.18 0.15 0.12 0.09 0.07 0.07 0.09 0.19 0.32 0.55 0.73 0.49 0.37 0.39 0.15 0.05 0.07 0.06 0.04 0.02 0.00 0.00 0.00 0.02 0.08 0.19 0.30 0.18 0.19 0.25 0.21 0.09 0.03 0.01 0.00 0.00 0.00 0.00 0.00 0.02
3.53 3.20 2.86 3.10 3.71 4.68 5.51 5.76 6.28 5.71 4.35 2.22 0.76 0.33 0.22 0.16 0.09 0.05 0.06 0.15 0.29 0.51 0.48 0.76 0.42 0.51 0.36 0.20 0.06 0.04 0.02 0.01 0.01 0.00 0.00 0.00 0.00 0.00 0.02 0.11 0.20 0.22 0.21 0.17 0.12 0.06 0.04 0.02 0.02 0.02 0.03 0.03 0.02 0.03
2.63 2.30 2.49 2.77 3.29 4.63 5.67 5.56 4.20 3.19 1.89 0.82 0.47 0.44 0.27 0.16 0.06 0.03 0.04 0.12 0.28 0.39 0.61 0.78 0.94 0.76 0.21 0.08 0.06 0.03 0.01 0.01 0.01 0.00 0.00 0.00 0.00 0.00 0.00 0.00 0.01 0.03 0.06 0.08 0.09 0.08 0.06 0.05 0.04 0.03 0.04 0.06 0.06 0.10
3.15 3.17 2.98 2.82 2.84 3.77 3.66 3.63 2.62 1.58 0.99 0.81 0.66 0.59 0.39 0.24 0.12 0.06 0.06 0.15 0.26 0.58 1.09 1.03 0.50 0.16 0.04 0.03 0.02 0.02 0.00 0.00 0.00 0.00 0.00 0.00 0.00 0.00 0.00 0.00 0.00 0.01 0.01 0.01 0.01 0.01 0.01 0.01 0.01 0.01 0.00 0.00 0.01 0.01
4.43 4.51 4.02 3.53 3.98 3.50 2.71 1.80 1.62 1.27 0.94 0.99 1.13 0.83 0.81 0.61 0.42 0.33 0.49 0.51 0.99 1.26 0.76 0.29 0.07 0.02 0.03 0.05 0.06 0.03 0.01 0.01 0.00 0.00 0.00 0.00 0.00 0.01 0.01 0.01 0.01 0.02 0.02 0.01 0.00 0.00 0.00 0.00 0.00 0.00 0.00 0.00 0.00 0.00
4.22 3.76 3.85 3.60 3.63 2.84 1.88 1.17 0.94 1.01 0.77 1.05 1.24 1.08 1.12 1.10 1.02 0.90 0.91 1.47 1.44 0.58 0.16 0.07 0.09 0.08 0.04 0.04 0.06 0.06 0.05 0.04 0.02 0.01 0.00 0.00 0.00 0.02 0.02 0.02 0.03 0.03 0.03 0.02 0.02 0.01 0.00 0.00 0.00 0.00 0.00 0.00 0.00 0.00
2.62 2.57 3.12 3.45 3.06 1.97 1.60 1.00 0.79 1.04 1.01 1.24 1.24 1.23 1.35 1.21 1.22 1.28 1.62 1.21 0.61 0.29 0.20 0.19 0.17 0.16 0.13 0.08 0.06 0.04 0.05 0.07 0.05 0.03 0.02 0.01 0.00 0.01 0.01 0.02 0.02 0.03 0.03 0.04 0.05 0.05 0.02 0.01 0.01 0.00 0.00 0.00 0.00 0.01
2.25 3.36 3.54 2.74 1.72 1.12 0.92 0.94 0.73 0.70 0.98 1.10 1.07 0.98 0.89 0.99 1.26 1.32 0.93 0.33 0.26 0.28 0.28 0.34 0.31 0.22 0.18 0.17 0.17 0.13 0.09 0.07 0.06 0.07 0.08 0.09 0.06 0.03 0.02 0.01 0.01 0.01 0.02 0.04 0.07 0.07 0.07 0.05 0.03 0.03 0.04 0.05 0.04 0.03
3.59 3.33 2.16 1.56 0.73 0.44 0.32 0.42 0.53 0.51 0.61 0.76 0.76 0.75 0.70 0.82 0.98 0.72 0.33 0.20 0.34 0.42 0.36 0.30 0.29 0.30 0.29 0.25 0.21 0.19 0.18 0.18 0.16 0.12 0.12 0.16 0.16 0.15 0.14 0.09 0.06 0.05 0.03 0.05 0.07 0.08 0.10 0.08 0.06 0.06 0.07 0.07 0.07 0.12
2.19 1.25 0.90 0.34 0.14 0.09 0.14 0.19 0.29 0.35 0.43 0.56 0.56 0.53 0.62 0.69 0.61 0.41 0.18 0.22 0.35 0.47 0.49 0.40 0.32 0.28 0.27 0.28 0.33 0.35 0.29 0.24 0.20 0.19 0.24 0.28 0.24 0.22 0.17 0.16 0.19 0.20 0.14 0.12 0.14 0.17 0.19 0.18 0.17 0.17 0.16 0.16 0.21 0.30
0.96 0.40 0.21 0.09 0.03 0.04 0.06 0.09 0.12 0.22 0.38 0.35 0.32 0.34 0.48 0.61 0.42 0.16 0.13 0.22 0.34 0.41 0.47 0.51 0.44 0.35 0.35 0.35 0.38 0.41 0.44 0.46 0.35 0.26 0.26 0.35 0.36 0.30 0.23 0.18 0.14 0.12 0.21 0.30 0.26 0.22 0.22 0.23 0.23 0.23 0.27 0.28 0.25 0.24
0.32 0.10 0.06 0.04 0.05 0.05 0.08 0.12 0.16 0.17 0.16 0.12 0.19 0.29 0.32 0.20 0.09 0.08 0.13 0.22 0.35 0.42 0.50 0.57 0.55 0.47 0.48 0.47 0.48 0.55 0.57 0.58 0.56 0.46 0.42 0.45 0.47 0.45 0.41 0.34 0.34 0.39 0.39 0.33 0.35 0.37 0.36 0.31 0.30 0.31 0.31 0.29 0.26 0.27
0.06 0.03 0.05 0.16 0.23 0.27 0.26 0.17 0.09 0.05 0.03 0.05 0.14 0.12 0.06 0.03 0.06 0.09 0.15 0.22 0.35 0.47 0.55 0.63 0.69 0.64 0.64 0.63 0.58 0.56 0.52 0.49 0.44 0.38 0.27 0.26 0.32 0.44 0.50 0.50 0.55 0.57 0.50 0.44 0.44 0.39 0.34 0.34 0.36 0.37 0.38 0.35 0.30 0.31
0.10 0.11 0.17 0.23 0.20 0.15 0.12 0.09 0.09 0.08 0.08 0.13 0.16 0.13 0.05 0.03 0.06 0.09 0.15 0.21 0.30 0.46 0.62 0.75 0.75 0.71 0.66 0.60 0.61 0.67 0.69 0.66 0.53 0.33 0.25 0.22 0.23 0.35 0.46 0.50 0.53 0.56 0.54 0.49 0.50 0.62 0.62 0.57 0.54 0.49 0.43 0.42 0.38 0.36
0.17 0.15 0.15 0.17 0.15 0.11 0.14 0.18 0.21 0.22 0.19 0.16 0.15 0.16 0.10 0.06 0.05 0.07 0.11 0.16 0.23 0.38 0.55 0.67 0.78 0.78 0.68 0.66 0.61 0.58 0.59 0.62 0.62 0.56 0.45 0.44 0.48 0.50 0.53 0.55 0.55 0.54 0.55 0.52 0.47 0.42 0.39 0.34 0.27 0.25 0.28 0.29 0.29 0.28
0.21 0.16 0.09 0.11 0.16 0.22 0.24 0.23 0.22 0.19 0.18 0.16 0.14 0.13 0.12 0.12 0.07 0.04 0.07 0.11 0.17 0.31 0.47 0.56 0.58 0.66 0.68 0.60 0.56 0.55 0.51 0.50 0.52 0.51 0.51 0.51 0.49 0.49 0.51 0.54 0.58 0.56 0.58 0.58 0.53 0.47 0.42 0.41 0.43 0.41 0.39 0.40 0.37 0.33
0.25 0.25 0.20 0.18 0.24 0.24 0.23 0.22 0.20 0.17 0.15 0.12 0.10 0.09 0.07 0.06 0.05 0.04 0.04 0.08 0.14 0.23 0.36 0.46 0.55 0.62 0.63 0.58 0.53 0.53 0.58 0.63 0.64 0.65 0.69 0.65 0.56 0.54 0.55 0.57 0.57 0.59 0.57 0.55 0.53 0.53 0.56 0.55 0.50 0.47 0.44 0.43 0.41 0.40

GFSWCAN_prec_precacc_138.txt.gz
Total_Precipitation_Accumulation
1.22 1.36 1.54 1.53 1.30 1.22 1.28 1.28 1.16 0.71 0.65 0.89 1.03 1.12 1.13 0.91 0.80 0.53 0.39 0.42 0.37 0.22 0.09 0.02 0.02 0.04 0.18 0.42 0.61 0.56 0.71 0.50 0.53 0.80 0.74 0.42 0.14 0.06 0.04 0.08 0.04 0.10 0.22 0.24 0.22 0.27 0.04 0.00 0.00 0.01 0.01 0.00 0.00 0.05
1.33 1.33 1.43 1.46 1.42 1.56 1.34 0.95 0.95 0.90 0.63 0.58 0.83 0.95 1.12 0.95 0.86 0.76 0.43 0.36 0.42 0.34 0.12 0.03 0.01 0.01 0.05 0.27 0.60 0.60 0.59 0.42 0.52 0.54 0.47 0.38 0.30 0.24 0.10 0.08 0.02 0.03 0.03 0.09 0.08 0.05 0.01 0.01 0.00 0.00 0.00 0.00 0.00 0.01
1.28 1.42 1.41 1.35 1.25 1.30 1.72 1.21 0.95 0.85 0.71 0.59 0.59 0.71 0.87 0.94 0.81 0.85 0.42 0.34 0.47 0.45 0.15 0.03 0.02 0.03 0.00 0.08 0.45 0.77 0.49 0.50 0.50 0.47 0.47 0.27 0.25 0.20 0.13 0.12 0.06 0.07 0.03 0.01 0.00 0.01 0.04 0.16 0.17 0.08 0.04 0.01 0.00 0.00
1.17 1.36 1.38 1.28 1.31 1.13 1.42 1.73 1.17 0.88 0.65 0.60 0.63 0.62 0.68 0.84 0.85 0.87 0.49 0.27 0.49 0.71 0.46 0.12 0.03 0.06 0.05 0.06 0.36 0.69 0.69 0.56 0.58 0.52 0.58 0.43 0.21 0.15 0.09 0.04 0.04 0.03 0.02 0.02 0.00 0.00 0.00 0.00 0.02 0.05 0.07 0.07 0.05 0.03
1.18 1.24 1.38 1.40 1.34 1.40 1.26 1.50 1.43 0.98 0.73 0.68 0.70 0.74 0.86 0.98 1.06 0.98 0.59 0.38 0.37 0.92 0.89 0.41 0.12 0.01 0.04 0.05 0.28 0.67 0.88 0.86 0.79 0.84 0.58 0.37 0.19 0.15 0.05 0.03 0.01 0.00 0.00 0.01 0.01 0.01 0.00 0.00 0.00 0.00 0.00 0.01 0.03 0.03
1.30 1.27 1.43 1.52 1.57 1.56 1.48 1.28 1.30 1.07 0.86 0.78 0.89 1.13 1.27 1.50 1.81 1.98 1.70 0.69 0.47 0.61 1.20 0.97 0.38 0.09 0.06 0.12 0.15 0.50 0.73 0.70 0.77 0.92 0.54 0.24 0.13 0.35 0.22 0.07 0.00 0.00 0.00 0.00 0.00 0.00 0.00 0.00 0.00 0.00 0.00 0.00 0.00 0.01
1.23 1.29 1.33 1.55 1.74 1.83 1.63 1.38 1.44 1.25 1.13 1.09 1.26 1.42 1.63 1.99 2.13 2.05 1.29 0.69 0.48 0.54 1.34 1.48 0.84 0.24 0.12 0.43 0.18 0.39 0.85 1.02 0.89 0.92 0.55 0.27 0.20 0.58 0.48 0.07 0.00 0.00 0.00 0.01 0.00 0.00 0.01 0.00 0.00 0.00 0.01 0.01 0.01 0.02
1.70 1.90 1.90 1.72 1.83 2.01 1.92 1.57 1.71 1.48 1.61 1.55 1.79 2.04 2.35 2.84 2.83 2.26 1.17 0.78 0.72 1.12 1.39 1.47 0.93 0.52 0.38 0.70 0.46 0.52 0.99 1.22 1.15 0.84 0.46 0.24 0.25 0.41 0.30 0.01 0.00 0.00 0.01 0.00 0.00 0.00 0.00 0.00 0.00 0.00 0.01 0.02 0.03 0.04
1.71 1.87 2.12 2.39 2.48 2.36 2.28 2.14 2.19 2.03 2.26 2.44 2.79 3.22 3.86 3.84 2.60 1.40 1.01 1.15 1.28 1.86 1.97 1.14 0.55 0.64 0.43 0.72 0.60 0.57 0.83 1.20 1.01 0.87 0.44 0.58 0.47 0.38 0.06 0.01 0.01 0.02 0.03 0.01 0.00 0.00 0.00 0.01 0.00 0.00 0.01 0.04 0.07 0.09
1.68 1.80 1.90 2.22 2.77 3.08 3.09 2.96 2.79 2.59 2.89 3.53 3.96 4.19 3.74 2.45 1.30 1.19 2.43 3.28 3.20 2.43 1.71 1.02 0.37 0.40 0.41 0.48 0.65 0.52 0.73 0.91 0.89 0.57 0.60 0.57 0.29 0.13 0.05 0.06 0.03 0.00 0.01 0.00 0.00 0.01 0.01 0.01 0.00 0.00 0.00 0.03 0.07 0.16
1.67 1.80 1.98 2.29 2.73 3.14 3.70 3.94 3.65 3.81 4.36 4.32 4.15 3.13 2.39 2.12 2.23 2.76 3.48 2.91 2.15 1.28 0.57 0.22 0.19 0.29 0.34 0.54 0.69 0.55 1.00 0.71 1.04 0.50 0.54 0.62 0.44 0.28 0.08 0.04 0.00 0.00 0.01 0.01 0.00 0.00 0.00 0.00 0.01 0.01 0.02 0.03 0.04 0.07
1.78 1.72 2.02 2.55 2.88 3.52 3.93 4.38 5.14 5.65 4.91 3.24 2.32 2.79 3.68 3.50 3.21 3.03 2.59 1.43 0.80 0.20 0.03 0.12 0.20 0.33 0.37 0.54 0.53 0.51 0.85 0.95 0.72 0.33 0.50 0.50 0.50 0.34 0.14 0.03 0.01 0.00 0.01 0.01 0.01 0.03 0.02 0.03 0.07 0.10 0.10 0.09 0.10 0.10
1.84 1.69 1.94 2.47 3.04 3.62 4.05 4.27 5.07 5.10 4.09 3.34 3.74 4.80 3.93 3.40 2.56 1.62 1.00 0.43 0.12 0.02 0.10 0.28 0.34 0.39 0.45 0.68 0.76 0.76 0.78 0.62 0.43 0.45 0.31 0.28 0.12 0.11 0.19 0.12 0.03 0.02 0.16 0.23 0.19 0.16 0.11 0.13 0.19 0.24 0.24 0.27 0.27 0.27
1.98 1.98 2.16 2.51 3.08 3.44 4.30 5.31 6.06 6.13 5.27 5.06 4.82 4.39 2.43 1.99 0.71 0.30 0.09 0.02 0.03 0.06 0.11 0.14 0.40 0.45 0.39 0.57 0.80 0.79 0.55 0.44 0.39 0.17 0.05 0.03 0.01 0.02 0.03 0.13 0.18 0.15 0.10 0.13 0.23 0.27 0.27 0.29 0.40 0.34 0.28 0.23 0.15 0.10
2.16 2.56 2.66 2.70 3.02 3.85 4.80 6.04 6.60 5.54 5.16 4.94 3.66 2.39 1.32 0.38 0.10 0.05 0.07 0.04 0.03 0.02 0.03 0.10 0.39 0.38 0.52 0.80 0.75 0.55 0.62 0.39 0.14 0.06 0.01 0.00 0.02 0.01 0.03 0.13 0.38 0.32 0.21 0.11 0.08 0.10 0.14 0.18 0.22 0.19 0.11 0.11 0.11 0.11
2.86 3.61 3.67 3.24 3.19 3.73 5.16 5.74 5.88 5.36 5.77 4.57 2.92 1.59 0.60 0.16 0.09 0.08 0.05 0.05 0.04 0.07 0.22 0.40 0.62 0.76 0.69 0.47 0.44 0.32 0.26 0.13 0.10 0.04 0.01 0.00 0.02 0.03 0.08 0.22 0.33 0.21 0.15 0.16 0.12 0.05 0.02 0.01 0.00 0.02 0.07 0.09 0.11 0.15
3.69 4.31 3.85 3.28 3.57 4.22 5.11 6.43 6.83 6.74 6.20 4.66 2.05 0.57 0.18 0.15 0.12 0.09 0.08 0.08 0.10 0.22 0.36 0.62 0.85 0.62 0.49 0.54 0.24 0.09 0.09 0.06 0.04 0.02 0.00 0.00 0.00 0.02 0.08 0.19 0.30 0.18 0.19 0.25 0.21 0.09 0.03 0.01 0.00 0.00 0.00 0.00 0.00 0.02
3.58 3.22 2.87 3.12 3.75 4.76 5.62 5.87 6.34 5.79 4.42 2.26 0.78 0.34 0.22 0.16 0.09 0.05 0.06 0.16 0.31 0.52 0.50 0.79 0.48 0.61 0.48 0.32 0.13 0.10 0.05 0.02 0.01 0.00 0.00 0.00 0.00 0.00 0.02 0.11 0.20 0.22 0.21 0.17 0.12 0.06 0.04 0.02 0.02 0.02 0.03 0.03 0.02 0.03
2.65 2.32 2.51 2.80 3.38 4.78 5.76 5.61 4.23 3.24 1.91 0.83 0.48 0.44 0.27 0.16 0.06 0.03 0.04 0.12 0.28 0.39 0.64 0.84 1.00 0.79 0.22 0.09 0.06 0.03 0.01 0.01 0.01 0.00 0.00 0.00 0.00 0.00 0.00 0.00 0.01 0.03 0.06 0.08 0.09 0.08 0.06 0.05 0.04 0.03 0.04 0.06 0.06 0.10
3.20 3.23 3.03 2.88 2.97 3.96 3.77 3.69 2.69 1.63 1.00 0.81 0.66 0.59 0.39 0.24 0.12 0.06 0.06 0.15 0.26 0.59 1.12 1.05 0.51 0.16 0.04 0.03 0.02 0.02 0.00 0.00 0.01 0.00 0.00 0.00 0.00 0.00 0.00 0.00 0.00 0.01 0.01 0.01 0.01 0.01 0.01 0.01 0.01 0.01 0.00 0.00 0.01 0.01
4.50 4.55 4.10 3.66 4.21 3.65 2.79 1.83 1.67 1.31 0.95 1.00 1.13 0.83 0.82 0.61 0.42 0.33 0.49 0.51 0.99 1.26 0.77 0.29 0.07 0.02 0.03 0.05 0.06 0.03 0.01 0.01 0.00 0.00 0.00 0.00 0.00 0.01 0.01 0.01 0.01 0.02 0.02 0.02 0.02 0.03 0.03 0.01 0.00 0.00 0.00 0.00 0.00 0.00
4.29 3.80 3.95 3.77 3.86 2.98 1.98 1.20 0.96 1.04 0.80 1.06 1.25 1.09 1.13 1.10 1.02 0.90 0.92 1.48 1.44 0.58 0.16 0.07 0.09 0.08 0.04 0.04 0.06 0.06 0.05 0.04 0.02 0.01 0.00 0.00 0.00 0.02 0.02 0.02 0.03 0.03 0.04 0.05 0.06 0.06 0.06 0.04 0.01 0.00 0.00 0.00 0.00 0.00
2.69 2.65 3.29 3.56 3.15 2.06 1.65 1.01 0.81 1.07 1.06 1.29 1.26 1.24 1.35 1.21 1.22 1.28 1.62 1.21 0.61 0.29 0.20 0.19 0.17 0.16 0.13 0.08 0.06 0.04 0.05 0.07 0.05 0.03 0.02 0.01 0.00 0.01 0.01 0.02 0.02 0.04 0.06 0.09 0.11 0.12 0.07 0.03 0.01 0.01 0.00 0.01 0.00 0.01
2.47 3.51 3.69 2.85 1.76 1.14 0.92 0.94 0.73 0.70 0.98 1.10 1.07 0.98 0.89 0.99 1.26 1.32 0.93 0.33 0.26 0.28 0.28 0.34 0.31 0.22 0.18 0.17 0.17 0.13 0.09 0.07 0.06 0.07 0.08 0.09 0.06 0.04 0.02 0.01 0.01 0.01 0.03 0.05 0.09 0.11 0.10 0.06 0.04 0.04 0.04 0.05 0.04 0.03
3.88 3.63 2.24 1.64 0.76 0.46 0.34 0.43 0.53 0.51 0.61 0.76 0.76 0.76 0.70 0.82 0.98 0.73 0.33 0.20 0.34 0.42 0.36 0.31 0.30 0.31 0.30 0.25 0.21 0.19 0.18 0.18 0.16 0.12 0.12 0.16 0.16 0.16 0.14 0.09 0.06 0.05 0.03 0.06 0.09 0.10 0.13 0.13 0.09 0.07 0.07 0.07 0.08 0.12
2.39 1.38 1.02 0.39 0.15 0.09 0.14 0.19 0.29 0.35 0.43 0.56 0.56 0.53 0.62 0.70 0.61 0.41 0.18 0.22 0.36 0.49 0.54 0.45 0.37 0.32 0.32 0.31 0.35 0.38 0.30 0.24 0.22 0.20 0.24 0.28 0.24 0.22 0.18 0.17 0.19 0.20 0.14 0.12 0.15 0.18 0.19 0.19 0.19 0.18 0.17 0.18 0.22 0.30
1.09 0.46 0.23 0.10 0.03 0.04 0.06 0.09 0.12 0.22 0.38 0.35 0.32 0.34 0.49 0.63 0.42 0.16 0.13 0.23 0.35 0.42 0.48 0.53 0.51 0.48 0.47 0.41 0.40 0.42 0.45 0.47 0.37 0.27 0.26 0.35 0.36 0.30 0.24 0.20 0.15 0.13 0.22 0.30 0.27 0.23 0.22 0.23 0.24 0.25 0.29 0.31 0.26 0.25
0.33 0.11 0.06 0.04 0.05 0.05 0.08 0.12 0.16 0.17 0.16 0.12 0.20 0.30 0.34 0.21 0.09 0.08 0.13 0.22 0.35 0.43 0.52 0.60 0.59 0.52 0.54 0.52 0.53 0.59 0.58 0.59 0.56 0.46 0.42 0.45 0.47 0.45 0.41 0.36 0.37 0.46 0.45 0.36 0.36 0.38 0.36 0.32 0.31 0.32 0.33 0.31 0.26 0.27
0.07 0.03 0.05 0.16 0.23 0.27 0.26 0.17 0.09 0.05 0.03 0.05 0.14 0.12 0.07 0.03 0.06 0.09 0.15 0.22 0.35 0.48 0.56 0.66 0.76 0.76 0.76 0.70 0.62 0.58 0.54 0.49 0.44 0.39 0.27 0.26 0.32 0.44 0.51 0.52 0.57 0.61 0.55 0.49 0.49 0.43 0.37 0.37 0.38 0.38 0.38 0.35 0.30 0.31
0.10 0.11 0.17 0.23 0.20 0.15 0.12 0.09 0.09 0.08 0.08 0.13 0.16 0.13 0.05 0.03 0.06 0.09 0.15 0.21 0.31 0.48 0.66 0.85 0.88 0.81 0.69 0.60 0.61 0.67 0.70 0.67 0.54 0.34 0.25 0.22 0.23 0.35 0.47 0.50 0.53 0.56 0.54 0.49 0.51 0.62 0.62 0.58 0.54 0.49 0.44 0.42 0.39 0.37
0.17 0.15 0.15 0.17 0.15 0.11 0.14 0.18 0.21 0.22 0.19 0.16 0.15 0.16 0.10 0.06 0.06 0.07 0.11 0.17 0.23 0.38 0.56 0.69 0.79 0.79 0.68 0.66 0.61 0.58 0.59 0.62 0.62 0.56 0.45 0.44 0.48 0.50 0.53 0.55 0.55 0.54 0.55 0.52 0.47 0.42 0.39 0.34 0.28 0.25 0.29 0.30 0.29 0.28
0.21 0.16 0.09 0.11 0.16 0.22 0.24 0.23 0.22 0.19 0.18 0.16 0.14 0.13 0.13 0.13 0.09 0.04 0.07 0.11 0.17 0.31 0.47 0.56 0.58 0.66 0.68 0.60 0.56 0.55 0.51 0.50 0.52 0.51 0.51 0.51 0.49 0.49 0.51 0.55 0.58 0.56 0.58 0.59 0.53 0.47 0.42 0.41 0.43 0.41 0.39 0.40 0.38 0.33
0.25 0.25 0.20 0.18 0.24 0.24 0.23 0.22 0.21 0.18 0.15 0.12 0.10 0.09 0.08 0.10 0.08 0.04 0.04 0.08 0.14 0.23 0.36 0.46 0.55 0.62 0.63 0.58 0.53 0.53 0.58 0.63 0.64 0.65 0.69 0.65 0.56 0.54 0.55 0.58 0.57 0.59 0.58 0.55 0.54 0.54 0.56 0.55 0.51 0.47 0.45 0.43 0.42 0.40

GFSWCAN_prec_precacc_141.txt.gz
Total_Precipitation_Accumulation
1.22 1.36 1.54 1.53 1.30 1.22 1.28 1.28 1.16 0.72 0.65 0.89 1.04 1.12 1.14 0.92 0.86 0.62 0.42 0.42 0.40 0.26 0.10 0.02 0.02 0.04 0.18 0.42 0.61 0.56 0.71 0.50 0.53 0.80 0.74 0.42 0.14 0.06 0.04 0.08 0.04 0.10 0.22 0.24 0.22 0.27 0.04 0.00 0.00 0.01 0.01 0.00 0.00 0.05
1.33 1.33 1.43 1.46 1.42 1.56 1.34 0.95 0.95 0.90 0.63 0.58 0.83 0.95 1.12 0.96 0.88 0.84 0.49 0.37 0.46 0.46 0.17 0.03 0.01 0.01 0.05 0.27 0.60 0.60 0.59 0.42 0.52 0.54 0.47 0.38 0.30 0.24 0.10 0.08 0.02 0.03 0.03 0.09 0.08 0.05 0.01 0.01 0.00 0.00 0.00 0.00 0.00 0.01
1.28 1.42 1.41 1.35 1.25 1.30 1.72 1.21 0.95 0.85 0.71 0.59 0.59 0.71 0.87 0.94 0.82 0.90 0.47 0.38 0.56 0.60 0.21 0.04 0.02 0.03 0.00 0.08 0.45 0.77 0.49 0.50 0.50 0.47 0.47 0.28 0.25 0.20 0.13 0.12 0.06 0.07 0.03 0.01 0.00 0.01 0.04 0.16 0.17 0.08 0.04 0.01 0.00 0.00
1.17 1.36 1.38 1.28 1.31 1.13 1.42 1.73 1.17 0.88 0.65 0.60 0.63 0.62 0.68 0.84 0.85 0.88 0.54 0.30 0.55 0.92 0.60 0.15 0.03 0.06 0.05 0.06 0.36 0.69 0.69 0.56 0.58 0.52 0.59 0.44 0.21 0.15 0.09 0.04 0.04 0.03 0.02 0.02 0.00 0.00 0.00 0.00 0.02 0.05 0.07 0.07 0.05 0.03
1.18 1.24 1.38 1.40 1.34 1.40 1.26 1.51 1.43 0.98 0.74 0.68 0.70 0.74 0.86 0.98 1.06 0.98 0.60 0.40 0.39 1.05 1.12 0.50 0.14 0.01 0.04 0.05 0.28 0.67 0.88 0.86 0.79 0.88 0.67 0.41 0.19 0.15 0.05 0.03 0.01 0.00 0.00 0.01 0.01 0.01 0.00 0.00 0.00 0.00 0.00 0.01 0.03 0.03
1.30 1.27 1.43 1.52 1.57 1.56 1.48 1.28 1.30 1.07 0.86 0.79 0.90 1.13 1.27 1.50 1.82 1.98 1.71 0.70 0.49 0.66 1.42 1.15 0.40 0.09 0.06 0.12 0.15 0.50 0.73 0.70 0.78 0.98 0.60 0.25 0.13 0.35 0.23 0.08 0.00 0.00 0.00 0.00 0.00 0.00 0.00 0.00 0.00 0.00 0.00 0.00 0.00 0.01
1.23 1.29 1.34 1.55 1.74 1.83 1.63 1.38 1.44 1.25 1.14 1.10 1.26 1.43 1.63 1.99 2.13 2.06 1.31 0.72 0.55 0.76 1.71 1.73 0.93 0.25 0.12 0.43 0.18 0.39 0.85 1.02 0.89 0.93 0.58 0.28 0.20 0.58 0.51 0.10 0.00 0.00 0.00 0.01 0.00 0.00 0.01 0.00 0.00 0.00 0.01 0.01 0.01 0.02
1.70 1.90 1.91 1.73 1.83 2.02 1.93 1.57 1.71 1.48 1.61 1.56 1.79 2.04 2.35 2.84 2.83 2.26 1.17 0.78 0.74 1.27 1.69 1.78 1.09 0.55 0.38 0.70 0.46 0.52 0.99 1.24 1.20 0.90 0.53 0.28 0.26 0.43 0.40 0.03 0.00 0.00 0.01 0.00 0.00 0.00 0.00 0.00 0.00 0.00 0.01 0.02 0.03 0.04
1.71 1.87 2.12 2.39 2.49 2.37 2.29 2.14 2.19 2.04 2.26 2.44 2.80 3.22 3.86 3.84 2.60 1.40 1.01 1.15 1.31 1.97 2.20 1.33 0.62 0.68 0.44 0.72 0.61 0.58 0.87 1.29 1.11 1.02 0.50 0.61 0.57 0.47 0.08 0.01 0.01 0.02 0.03 0.01 0.00 0.00 0.00 0.01 0.00 0.00 0.01 0.04 0.07 0.09
1.68 1.80 1.90 2.22 2.77 3.09 3.09 2.96 2.79 2.59 2.89 3.55 3.97 4.19 3.74 2.45 1.31 1.21 2.44 3.29 3.25 2.50 1.82 1.12 0.43 0.47 0.46 0.52 0.69 0.56 0.80 0.96 0.98 0.61 0.61 0.63 0.32 0.14 0.05 0.06 0.03 0.00 0.01 0.00 0.00 0.01 0.01 0.01 0.00 0.00 0.00 0.03 0.07 0.16
1.67 1.81 1.98 2.29 2.74 3.15 3.72 3.96 3.67 3.83 4.38 4.33 4.16 3.13 2.39 2.12 2.24 2.77 3.49 2.93 2.16 1.30 0.58 0.23 0.19 0.31 0.36 0.57 0.73 0.58 1.06 0.75 1.10 0.52 0.56 0.65 0.44 0.28 0.08 0.04 0.00 0.00 0.01 0.01 0.00 0.00 0.00 0.00 0.01 0.01 0.02 0.03 0.04 0.07
1.78 1.73 2.02 2.55 2.88 3.53 3.95 4.42 5.18 5.70 4.92 3.27 2.37 2.81 3.70 3.51 3.23 3.06 2.60 1.44 0.82 0.20 0.03 0.12 0.20 0.33 0.37 0.54 0.54 0.56 0.90 1.01 0.76 0.37 0.57 0.53 0.50 0.34 0.14 0.03 0.01 0.00 0.01 0.01 0.01 0.03 0.02 0.03 0.07 0.10 0.10 0.09 0.10 0.10
1.85 1.69 1.95 2.47 3.04 3.62 4.06 4.30 5.12 5.15 4.15 3.40 3.81 4.90 3.97 3.42 2.58 1.67 1.02 0.44 0.13 0.02 0.10 0.29 0.35 0.40 0.46 0.71 0.86 0.88 0.87 0.67 0.47 0.53 0.36 0.28 0.12 0.11 0.19 0.12 0.03 0.02 0.16 0.23 0.19 0.16 0.11 0.13 0.19 0.24 0.24 0.27 0.27 0.27
1.99 1.99 2.17 2.52 3.09 3.45 4.32 5.35 6.13 6.23 5.37 5.11 4.91 4.49 2.47 2.00 0.72 0.30 0.09 0.03 0.04 0.08 0.15 0.19 0.42 0.48 0.41 0.66 0.88 0.87 0.60 0.51 0.49 0.25 0.07 0.03 0.01 0.02 0.03 0.13 0.19 0.15 0.10 0.13 0.23 0.27 0.27 0.29 0.40 0.34 0.28 0.23 0.15 0.10
2.19 2.58 2.69 2.71 3.03 3.87 4.85 6.10 6.68 5.66 5.31 5.04 3.76 2.44 1.33 0.38 0.10 0.07 0.08 0.04 0.03 0.03 0.05 0.12 0.43 0.43 0.57 0.87 0.77 0.58 0.65 0.40 0.14 0.06 0.01 0.00 0.02 0.02 0.03 0.13 0.39 0.32 0.21 0.11 0.08 0.10 0.15 0.19 0.22 0.19 0.11 0.11 0.11 0.11
2.89 3.65 3.69 3.25 3.20 3.74 5.19 5.83 5.99 5.56 6.06 4.68 3.00 1.61 0.60 0.16 0.09 0.08 0.05 0.05 0.04 0.07 0.25 0.43 0.65 0.83 0.79 0.61 0.59 0.43 0.35 0.16 0.11 0.05 0.02 0.01 0.02 0.03 0.08 0.22 0.33 0.21 0.15 0.16 0.13 0.06 0.04 0.03 0.02 0.04 0.07 0.09 0.11 0.15
3.74 4.34 3.85 3.28 3.58 4.25 5.16 6.58 7.08 7.05 6.45 4.76 2.07 0.57 0.18 0.15 0.12 0.09 0.08 0.08 0.13 0.27 0.39 0.65 0.89 0.64 0.51 0.59 0.29 0.13 0.13 0.09 0.07 0.03 0.01 0.00 0.00 0.02 0.08 0.19 0.30 0.18 0.19 0.25 0.21 0.09 0.03 0.01 0.00 0.00 0.00 0.00 0.00 0.02
3.63 3.23 2.88 3.13 3.78 4.86 5.76 6.10 6.69 6.05 4.53 2.27 0.78 0.34 0.22 0.16 0.09 0.05 0.06 0.16 0.33 0.54 0.53 0.81 0.51 0.63 0.50 0.33 0.14 0.11 0.07 0.03 0.02 0.01 0.00 0.00 0.00 0.00 0.02 0.11 0.20 0.22 0.21 0.17 0.12 0.06 0.04 0.02 0.02 0.02 0.04 0.03 0.03 0.03
2.66 2.33 2.52 2.83 3.45 4.92 5.95 5.82 4.45 3.43 1.95 0.83 0.48 0.44 0.27 0.16 0.06 0.03 0.04 0.12 0.28 0.41 0.66 0.85 1.02 0.80 0.22 0.09 0.06 0.03 0.01 0.01 0.01 0.00 0.00 0.00 0.00 0.00 0.00 0.00 0.01 0.03 0.06 0.08 0.09 0.08 0.06 0.05 0.04 0.03 0.04 0.06 0.06 0.10
3.24 3.27 3.07 2.92 3.06 4.26 4.12 3.83 2.75 1.66 1.01 0.82 0.66 0.59 0.39 0.24 0.12 0.06 0.06 0.15 0.27 0.61 1.14 1.06 0.51 0.16 0.04 0.03 0.02 0.02 0.00 0.00 0.01 0.00 0.00 0.00 0.00 0.00 0.00 0.00 0.00 0.01 0.01 0.01 0.01 0.01 0.01 0.01 0.01 0.01 0.00 0.00 0.01 0.01
4.55 4.58 4.16 3.74 4.36 3.95 3.02 1.94 1.73 1.32 0.95 1.00 1.13 0.83 0.82 0.61 0.42 0.33 0.49 0.51 1.00 1.27 0.77 0.29 0.07 0.02 0.03 0.05 0.06 0.03 0.01 0.01 0.00 0.00 0.00 0.00 0.00 0.01 0.01 0.01 0.01 0.02 0.02 0.02 0.02 0.03 0.03 0.02 0.02 0.03 0.02 0.01 0.00 0.00
4.33 3.83 4.00 3.84 4.13 3.34 2.26 1.27 0.97 1.04 0.80 1.07 1.25 1.09 1.13 1.10 1.02 0.90 0.92 1.49 1.44 0.58 0.16 0.07 0.09 0.08 0.04 0.04 0.06 0.06 0.05 0.04 0.02 0.01 0.00 0.00 0.00 0.02 0.02 0.02 0.03 0.03 0.04 0.05 0.06 0.06 0.06 0.07 0.08 0.07 0.05 0.01 0.00 0.00
2.77 2.70 3.39 3.71 3.36 2.27 1.84 1.08 0.86 1.09 1.07 1.29 1.26 1.24 1.36 1.21 1.22 1.28 1.62 1.21 0.61 0.29 0.20 0.19 0.17 0.16 0.13 0.08 0.06 0.04 0.05 0.07 0.05 0.03 0.02 0.01 0.00 0.01 0.01 0.02 0.02 0.04 0.06 0.09 0.11 0.12 0.10 0.08 0.07 0.04 0.02 0.02 0.02 0.02
2.69 3.62 3.84 3.03 1.89 1.24 0.98 0.99 0.76 0.71 0.99 1.10 1.07 0.98 0.89 0.99 1.26 1.32 0.93 0.33 0.26 0.28 0.28 0.34 0.31 0.23 0.19 0.18 0.18 0.14 0.10 0.08 0.08 0.08 0.08 0.09 0.06 0.04 0.02 0.01 0.01 0.01 0.03 0.05 0.09 0.11 0.11 0.08 0.07 0.05 0.05 0.07 0.09 0.07
4.11 3.85 2.34 1.74 0.85 0.51 0.37 0.45 0.54 0.51 0.61 0.76 0.76 0.76 0.70 0.82 0.98 0.73 0.33 0.20 0.34 0.42 0.37 0.32 0.33 0.37 0.43 0.36 0.25 0.23 0.21 0.23 0.29 0.22 0.15 0.16 0.16 0.16 0.14 0.09 0.06 0.05 0.03 0.06 0.09 0.10 0.13 0.14 0.14 0.12 0.10 0.11 0.14 0.17
2.60 1.48 1.11 0.44 0.17 0.09 0.14 0.19 0.29 0.35 0.43 0.56 0.56 0.53 0.62 0.70 0.61 0.41 0.18 0.22 0.36 0.50 0.55 0.47 0.41 0.39 0.38 0.38 0.46 0.47 0.36 0.28 0.35 0.41 0.34 0.29 0.24 0.23 0.19 0.17 0.19 0.20 0.14 0.12 0.15 0.18 0.19 0.20 0.21 0.23 0.23 0.22 0.29 0.36
1.19 0.54 0.29 0.11 0.04 0.04 0.06 0.09 0.12 0.22 0.38 0.35 0.32 0.34 0.49 0.63 0.42 0.16 0.13 0.23 0.35 0.42 0.48 0.53 0.52 0.49 0.48 0.42 0.42 0.45 0.49 0.51 0.43 0.34 0.30 0.36 0.37 0.30 0.25 0.20 0.15 0.13 0.23 0.31 0.28 0.23 0.22 0.23 0.24 0.27 0.32 0.37 0.34 0.29
0.35 0.11 0.07 0.05 0.05 0.05 0.08 0.12 0.16 0.17 0.16 0.12 0.20 0.30 0.34 0.21 0.09 0.08 0.13 0.22 0.35 0.43 0.52 0.60 0.59 0.52 0.54 0.52 0.55 0.63 0.63 0.62 0.59 0.47 0.43 0.45 0.47 0.45 0.41 0.36 0.38 0.49 0.50 0.44 0.44 0.42 0.38 0.33 0.32 0.33 0.37 0.37 0.33 0.31
0.09 0.03 0.05 0.16 0.23 0.27 0.26 0.17 0.09 0.05 0.03 0.05 0.14 0.12 0.07 0.03 0.06 0.09 0.15 0.22 0.35 0.48 0.56 0.66 0.76 0.76 0.77 0.73 0.66 0.61 0.58 0.56 0.48 0.40 0.28 0.27 0.33 0.44 0.52 0.55 0.63 0.69 0.62 0.55 0.57 0.47 0.41 0.40 0.40 0.40 0.43 0.42 0.36 0.35
0.10 0.11 0.17 0.23 0.20 0.15 0.12 0.09 0.09 0.08 0.08 0.13 0.16 0.13 0.05 0.03 0.06 0.09 0.15 0.21 0.31 0.48 0.66 0.85 0.88 0.83 0.72 0.62 0.62 0.68 0.72 0.70 0.57 0.37 0.29 0.25 0.25 0.36 0.48 0.51 0.55 0.60 0.59 0.54 0.55 0.68 0.68 0.64 0.61 0.55 0.49 0.47 0.43 0.40
0.17 0.15 0.15 0.17 0.15 0.11 0.14 0.18 0.21 0.22 0.19 0.16 0.15 0.16 0.10 0.06 0.06 0.07 0.11 0.17 0.24 0.39 0.60 0.74 0.83 0.82 0.69 0.66 0.61 0.58 0.59 0.62 0.62 0.57 0.45 0.45 0.49 0.50 0.53 0.55 0.55 0.54 0.55 0.53 0.48 0.44 0.41 0.37 0.31 0.29 0.31 0.31 0.30 0.28
0.21 0.16 0.09 0.11 0.16 0.22 0.24 0.23 0.22 0.19 0.18 0.16 0.14 0.13 0.13 0.13 0.09 0.04 0.07 0.11 0.17 0.31 0.49 0.58 0.60 0.67 0.68 0.60 0.56 0.55 0.51 0.50 0.52 0.51 0.51 0.51 0.49 0.49 0.51 0.55 0.58 0.56 0.58 0.59 0.54 0.47 0.42 0.41 0.44 0.42 0.40 0.41 0.39 0.34
0.25 0.25 0.20 0.18 0.24 0.24 0.23 0.22 0.21 0.18 0.15 0.12 0.10 0.09 0.08 0.10 0.10 0.04 0.04 0.08 0.14 0.23 0.36 0.46 0.55 0.62 0.63 0.58 0.53 0.53 0.58 0.63 0.64 0.65 0.70 0.65 0.56 0.54 0.55 0.58 0.57 0.59 0.58 0.56 0.57 0.55 0.57 0.56 0.51 0.48 0.46 0.44 0.43 0.42

GFSWCAN_prec_precacc_144.txt.gz
Total_Precipitation_Accumulation
1.22 1.36 1.54 1.53 1.30 1.22 1.28 1.28 1.17 0.72 0.65 0.89 1.04 1.13 1.14 0.93 0.86 0.66 0.43 0.43 0.46 0.35 0.14 0.03 0.03 0.05 0.18 0.42 0.61 0.56 0.71 0.50 0.53 0.80 0.74 0.42 0.14 0.06 0.04 0.08 0.04 0.10 0.22 0.24 0.22 0.27 0.04 0.00 0.00 0.01 0.01 0.00 0.00 0.05
1.33 1.33 1.43 1.46 1.42 1.56 1.34 0.95 0.95 0.90 0.64 0.58 0.83 0.95 1.12 0.96 0.88 0.87 0.52 0.38 0.47 0.55 0.24 0.05 0.02 0.01 0.05 0.27 0.60 0.60 0.59 0.42 0.52 0.54 0.47 0.39 0.30 0.24 0.10 0.08 0.02 0.03 0.03 0.09 0.08 0.05 0.01 0.01 0.00 0.00 0.00 0.00 0.00 0.01
1.29 1.42 1.41 1.35 1.25 1.30 1.72 1.21 0.95 0.85 0.71 0.59 0.59 0.71 0.87 0.94 0.82 0.92 0.50 0.39 0.61 0.68 0.25 0.05 0.03 0.03 0.00 0.08 0.45 0.78 0.50 0.50 0.51 0.47 0.50 0.31 0.28 0.20 0.13 0.12 0.06 0.07 0.03 0.01 0.00 0.01 0.04 0.16 0.17 0.08 0.04 0.01 0.00 0.00
1.17 1.36 1.38 1.28 1.31 1.13 1.42 1.73 1.17 0.88 0.66 0.61 0.63 0.62 0.68 0.84 0.85 0.88 0.56 0.31 0.58 0.99 0.64 0.15 0.03 0.06 0.05 0.06 0.36 0.71 0.75 0.60 0.62 0.55 0.66 0.55 0.27 0.15 0.09 0.04 0.04 0.03 0.02 0.02 0.00 0.00 0.00 0.00 0.02 0.05 0.07 0.07 0.05 0.03
1.18 1.24 1.38 1.40 1.34 1.40 1.26 1.51 1.43 0.98 0.74 0.68 0.70 0.74 0.87 0.98 1.06 0.98 0.60 0.40 0.40 1.08 1.14 0.51 0.14 0.01 0.04 0.05 0.28 0.68 0.89 0.90 0.87 1.05 0.90 0.55 0.22 0.16 0.06 0.07 0.03 0.00 0.00 0.01 0.01 0.01 0.01 0.00 0.00 0.00 0.00 0.01 0.03 0.03
1.30 1.27 1.43 1.53 1.57 1.57 1.49 1.28 1.30 1.07 0.86 0.79 0.90 1.14 1.27 1.50 1.82 1.98 1.71 0.71 0.49 0.72 1.56 1.21 0.41 0.09 0.06 0.12 0.15 0.50 0.73 0.70 0.79 1.13 0.75 0.33 0.15 0.36 0.30 0.16 0.01 0.00 0.00 0.00 0.00 0.00 0.00 0.00 0.00 0.00 0.00 0.00 0.00 0.01
1.23 1.29 1.34 1.55 1.74 1.84 1.64 1.39 1.45 1.26 1.14 1.10 1.26 1.43 1.64 2.00 2.15 2.06 1.31 0.74 0.56 0.83 1.91 1.90 0.94 0.25 0.12 0.43 0.18 0.39 0.85 1.02 0.90 0.98 0.65 0.31 0.21 0.59 0.56 0.16 0.00 0.00 0.00 0.01 0.00 0.00 0.01 0.00 0.00 0.00 0.01 0.01 0.01 0.02
1.70 1.90 1.91 1.73 1.84 2.02 1.93 1.58 1.72 1.50 1.61 1.56 1.80 2.05 2.35 2.85 2.84 2.27 1.17 0.78 0.74 1.27 1.72 1.86 1.11 0.55 0.38 0.70 0.47 0.52 1.01 1.29 1.31 1.01 0.62 0.31 0.28 0.47 0.50 0.06 0.00 0.00 0.01 0.00 0.00 0.00 0.00 0.00 0.00 0.00 0.01 0.02 0.03 0.04
1.71 1.87 2.12 2.39 2.49 2.37 2.29 2.15 2.20 2.04 2.27 2.45 2.81 3.22 3.86 3.84 2.60 1.40 1.02 1.18 1.35 2.00 2.22 1.34 0.63 0.69 0.44 0.73 0.61 0.60 0.90 1.34 1.18 1.13 0.55 0.64 0.64 0.53 0.09 0.01 0.01 0.02 0.03 0.01 0.00 0.00 0.00 0.01 0.00 0.00 0.01 0.04 0.07 0.09
1.68 1.80 1.90 2.22 2.77 3.09 3.09 2.96 2.80 2.60 2.92 3.59 3.98 4.19 3.74 2.46 1.31 1.22 2.45 3.31 3.28 2.54 1.90 1.20 0.44 0.48 0.46 0.52 0.69 0.57 0.83 1.00 1.05 0.63 0.63 0.70 0.37 0.14 0.05 0.06 0.03 0.00 0.01 0.00 0.00 0.01 0.01 0.01 0.00 0.00 0.00 0.03 0.07 0.16
1.68 1.81 1.98 2.29 2.74 3.15 3.72 3.96 3.68 3.88 4.43 4.36 4.16 3.13 2.39 2.13 2.25 2.77 3.49 2.94 2.19 1.34 0.60 0.23 0.20 0.31 0.36 0.57 0.73 0.59 1.08 0.77 1.15 0.53 0.57 0.67 0.45 0.28 0.08 0.04 0.00 0.00 0.01 0.01 0.00 0.00 0.00 0.00 0.01 0.01 0.02 0.03 0.04 0.07
1.79 1.73 2.03 2.55 2.88 3.53 3.95 4.42 5.20 5.77 4.96 3.28 2.39 2.82 3.70 3.52 3.25 3.08 2.62 1.45 0.84 0.22 0.04 0.12 0.20 0.33 0.37 0.54 0.58 0.63 0.97 1.06 0.79 0.37 0.59 0.55 0.50 0.34 0.14 0.03 0.01 0.00 0.01 0.01 0.01 0.03 0.02 0.03 0.07 0.10 0.10 0.09 0.10 0.10
1.87 1.71 1.96 2.48 3.05 3.63 4.06 4.31 5.14 5.20 4.24 3.52 3.95 4.95 4.00 3.45 2.62 1.70 1.04 0.45 0.13 0.02 0.11 0.31 0.38 0.44 0.50 0.76 0.98 0.97 0.93 0.69 0.50 0.58 0.38 0.28 0.13 0.12 0.19 0.12 0.03 0.02 0.16 0.23 0.21 0.17 0.11 0.13 0.19 0.24 0.24 0.27 0.27 0.27
2.02 2.02 2.19 2.54 3.10 3.47 4.34 5.37 6.14 6.33 5.56 5.37 5.06 4.55 2.48 2.00 0.73 0.30 0.09 0.03 0.04 0.08 0.16 0.22 0.46 0.53 0.46 0.75 0.96 0.96 0.66 0.58 0.57 0.30 0.09 0.03 0.01 0.02 0.04 0.13 0.19 0.15 0.10 0.14 0.25 0.28 0.28 0.30 0.40 0.34 0.28 0.23 0.15 0.10
2.21 2.61 2.72 2.74 3.06 3.89 4.86 6.12 6.73 5.82 5.56 5.37 3.95 2.49 1.34 0.38 0.10 0.07 0.08 0.04 0.03 0.05 0.07 0.13 0.43 0.44 0.58 0.91 0.81 0.62 0.67 0.43 0.16 0.06 0.01 0.00 0.02 0.02 0.03 0.15 0.40 0.33 0.21 0.12 0.09 0.11 0.15 0.19 0.22 0.20 0.12 0.12 0.13 0.14
2.91 3.68 3.71 3.27 3.23 3.76 5.21 5.90 6.10 5.69 6.39 5.00 3.16 1.64 0.60 0.16 0.09 0.08 0.05 0.05 0.04 0.07 0.26 0.46 0.69 0.85 0.80 0.63 0.62 0.50 0.48 0.28 0.14 0.06 0.02 0.01 0.03 0.04 0.09 0.23 0.34 0.22 0.16 0.17 0.13 0.06 0.04 0.03 0.03 0.06 0.10 0.12 0.14 0.18
3.79 4.37 3.85 3.29 3.61 4.31 5.23 6.69 7.19 7.21 6.69 4.99 2.17 0.58 0.18 0.15 0.12 0.09 0.08 0.08 0.13 0.28 0.40 0.67 0.94 0.70 0.55 0.62 0.30 0.13 0.13 0.10 0.07 0.03 0.01 0.01 0.01 0.03 0.08 0.19 0.30 0.18 0.19 0.25 0.21 0.09 0.03 0.01 0.00 0.00 0.01 0.01 0.00 0.02
3.68 3.23 2.88 3.16 3.86 4.95 5.83 6.20 6.90 6.24 4.65 2.33 0.79 0.34 0.22 0.16 0.09 0.05 0.06 0.16 0.33 0.54 0.53 0.82 0.53 0.68 0.59 0.40 0.15 0.11 0.07 0.03 0.02 0.01 0.01 0.00 0.00 0.00 0.02 0.11 0.20 0.22 0.21 0.17 0.12 0.06 0.04 0.02 0.02 0.03 0.04 0.03 0.03 0.03
2.67 2.33 2.52 2.86 3.54 5.03 6.12 5.90 4.51 3.53 1.99 0.84 0.48 0.44 0.27 0.16 0.06 0.03 0.04 0.12 0.28 0.41 0.68 0.87 1.06 0.82 0.23 0.09 0.06 0.03 0.01 0.01 0.01 0.00 0.00 0.00 0.00 0.00 0.00 0.00 0.01 0.03 0.06 0.08 0.09 0.08 0.06 0.05 0.04 0.03 0.04 0.06 0.06 0.10
3.29 3.31 3.11 2.95 3.17 4.43 4.35 3.97 2.81 1.70 1.03 0.82 0.66 0.59 0.39 0.24 0.12 0.06 0.06 0.15 0.27 0.61 1.15 1.07 0.51 0.16 0.04 0.03 0.02 0.02 0.00 0.00 0.01 0.00 0.00 0.00 0.00 0.00 0.00 0.00 0.00 0.01 0.01 0.01 0.01 0.01 0.01 0.01 0.01 0.01 0.00 0.01 0.01 0.01
4.62 4.61 4.20 3.82 4.49 4.18 3.23 2.04 1.79 1.34 0.95 1.00 1.13 0.83 0.82 0.61 0.42 0.33 0.49 0.51 1.00 1.28 0.77 0.29 0.07 0.02 0.03 0.05 0.06 0.03 0.01 0.01 0.00 0.00 0.00 0.00 0.00 0.01 0.01 0.01 0.01 0.02 0.02 0.02 0.02 0.03 0.03 0.02 0.02 0.03 0.02 0.02 0.02 0.01
4.35 3.86 4.06 3.92 4.32 3.55 2.45 1.40 1.04 1.06 0.81 1.07 1.25 1.09 1.13 1.10 1.02 0.90 0.92 1.49 1.44 0.58 0.16 0.07 0.09 0.08 0.04 0.04 0.06 0.06 0.05 0.04 0.02 0.01 0.00 0.00 0.00 0.02 0.02 0.02 0.03 0.03 0.04 0.05 0.06 0.06 0.06 0.07 0.08 0.07 0.06 0.05 0.05 0.03
2.84 2.76 3.48 3.79 3.50 2.41 1.95 1.12 0.90 1.14 1.11 1.32 1.26 1.25 1.36 1.21 1.22 1.28 1.62 1.21 0.61 0.29 0.20 0.19 0.17 0.16 0.13 0.08 0.06 0.04 0.05 0.07 0.07 0.06 0.03 0.01 0.01 0.01 0.01 0.02 0.02 0.04 0.06 0.09 0.11 0.12 0.10 0.08 0.07 0.05 0.05 0.07 0.09 0.10
2.89 3.77 3.98 3.21 1.99 1.31 1.04 1.05 0.80 0.74 1.01 1.11 1.08 0.98 0.89 0.99 1.26 1.32 0.93 0.33 0.26 0.28 0.28 0.34 0.31 0.23 0.19 0.18 0.18 0.14 0.10 0.09 0.13 0.13 0.10 0.09 0.07 0.04 0.02 0.01 0.01 0.01 0.03 0.05 0.09 0.11 0.11 0.08 0.07 0.05 0.05 0.09 0.14 0.16
4.46 4.09 2.51 1.83 0.92 0.56 0.39 0.47 0.57 0.53 0.62 0.76 0.76 0.76 0.70 0.82 0.98 0.73 0.33 0.20 0.34 0.42 0.37 0.32 0.33 0.37 0.43 0.37 0.26 0.23 0.21 0.24 0.36 0.31 0.18 0.17 0.22 0.22 0.16 0.09 0.06 0.05 0.03 0.06 0.09 0.10 0.13 0.14 0.14 0.12 0.10 0.11 0.16 0.25
2.79 1.60 1.20 0.47 0.18 0.10 0.14 0.19 0.29 0.36 0.43 0.56 0.56 0.53 0.62 0.70 0.61 0.41 0.18 0.22 0.36 0.50 0.55 0.47 0.41 0.39 0.38 0.38 0.46 0.47 0.36 0.28 0.35 0.44 0.35 0.29 0.27 0.29 0.23 0.18 0.19 0.20 0.14 0.12 0.15 0.18 0.19 0.20 0.21 0.23 0.24 0.24 0.33 0.46
1.27 0.60 0.36 0.13 0.04 0.04 0.06 0.09 0.12 0.22 0.38 0.35 0.32 0.34 0.49 0.63 0.42 0.16 0.13 0.23 0.35 0.42 0.48 0.53 0.52 0.49 0.48 0.42 0.42 0.45 0.49 0.51 0.43 0.35 0.30 0.36 0.38 0.32 0.27 0.22 0.16 0.13 0.23 0.31 0.28 0.23 0.22 0.23 0.24 0.27 0.33 0.39 0.40 0.37
0.36 0.12 0.07 0.05 0.05 0.05 0.08 0.12 0.16 0.17 0.16 0.12 0.20 0.30 0.34 0.21 0.09 0.08 0.13 0.22 0.35 0.43 0.52 0.60 0.59 0.52 0.54 0.52 0.55 0.63 0.63 0.62 0.60 0.48 0.43 0.46 0.47 0.45 0.42 0.37 0.40 0.55 0.55 0.48 0.47 0.45 0.40 0.33 0.32 0.34 0.39 0.40 0.40 0.40
0.11 0.03 0.05 0.16 0.23 0.27 0.26 0.17 0.09 0.05 0.03 0.05 0.14 0.12 0.07 0.03 0.06 0.09 0.15 0.22 0.35 0.48 0.56 0.66 0.76 0.76 0.77 0.74 0.67 0.63 0.62 0.61 0.54 0.42 0.29 0.28 0.34 0.44 0.53 0.57 0.65 0.73 0.66 0.60 0.63 0.51 0.43 0.43 0.42 0.43 0.46 0.46 0.42 0.44
0.11 0.11 0.17 0.23 0.20 0.15 0.12 0.09 0.09 0.08 0.08 0.13 0.16 0.13 0.05 0.03 0.06 0.09 0.15 0.21 0.31 0.48 0.66 0.85 0.89 0.85 0.76 0.67 0.66 0.73 0.79 0.77 0.65 0.44 0.32 0.28 0.27 0.38 0.50 0.53 0.58 0.64 0.64 0.58 0.59 0.71 0.73 0.69 0.67 0.63 0.58 0.55 0.51 0.48
0.17 0.15 0.15 0.17 0.15 0.11 0.14 0.18 0.21 0.22 0.19 0.16 0.15 0.16 0.10 0.06 0.06 0.07 0.11 0.18 0.24 0.39 0.60 0.75 0.86 0.87 0.75 0.70 0.65 0.61 0.62 0.65 0.66 0.61 0.49 0.48 0.51 0.52 0.55 0.56 0.57 0.56 0.59 0.57 0.53 0.48 0.45 0.41 0.33 0.32 0.36 0.36 0.35 0.32
0.21 0.16 0.09 0.11 0.16 0.22 0.24 0.23 0.22 0.19 0.18 0.16 0.14 0.13 0.13 0.13 0.09 0.04 0.07 0.11 0.17 0.31 0.50 0.60 0.62 0.70 0.72 0.65 0.59 0.56 0.51 0.51 0.52 0.52 0.52 0.52 0.50 0.50 0.52 0.55 0.58 0.56 0.59 0.60 0.55 0.49 0.45 0.45 0.48 0.46 0.44 0.46 0.43 0.37
0.25 0.25 0.20 0.18 0.24 0.24 0.23 0.22 0.21 0.18 0.15 0.12 0.10 0.09 0.09 0.11 0.11 0.04 0.04 0.08 0.15 0.25 0.38 0.47 0.55 0.63 0.66 0.61 0.55 0.53 0.58 0.63 0.64 0.66 0.70 0.65 0.57 0.55 0.56 0.58 0.58 0.59 0.59 0.59 0.60 0.56 0.57 0.56 0.53 0.49 0.47 0.46 0.45 0.44